Wetterdaten: Montag, 05.09.2016
Datum Zeit Temp. A. Temp. A. max Feuchte A. Luftdruck Regen Wind Richtung Richtung Sonnenschein ET UV Solar Taupunkt Windben
05.09.2016 00:00 13,8 C 13,8 C 93 % 1015,7 hPa 0,0 mm 7,8 km/h (2 Bft) W-SW 239 0 min 0,000 mm 0,0 UV-I 0 W/m 12,7 C 12,9 km/h (3 Bft)
05.09.2016 00:01 13,8 C 13,8 C 93 % 1015,7 hPa 0,0 mm 8,4 km/h (2 Bft) NW 304 0 min 0,000 mm 0,0 UV-I 0 W/m 12,7 C 14,5 km/h (3 Bft)
05.09.2016 00:02 13,8 C 13,8 C 93 % 1015,7 hPa 0,0 mm 9,2 km/h (2 Bft) W-SW 240 0 min 0,000 mm 0,0 UV-I 0 W/m 12,7 C 14,5 km/h (3 Bft)
05.09.2016 00:03 13,8 C 13,8 C 93 % 1015,7 hPa 0,0 mm 10,6 km/h (2 Bft) SW 225 0 min 0,000 mm 0,0 UV-I 0 W/m 12,7 C 14,5 km/h (3 Bft)
05.09.2016 00:04 13,8 C 13,8 C 93 % 1015,8 hPa 0,0 mm 10,7 km/h (2 Bft) W-NW 284 0 min 0,000 mm 0,0 UV-I 0 W/m 12,7 C 19,3 km/h (3 Bft)
05.09.2016 00:05 13,8 C 13,8 C 93 % 1015,8 hPa 0,2 mm 5,5 km/h (1 Bft) W-NW 295 0 min 0,000 mm 0,0 UV-I 0 W/m 12,7 C 8,0 km/h (2 Bft)
05.09.2016 00:06 13,8 C 13,8 C 93 % 1015,7 hPa 0,0 mm 8,0 km/h (2 Bft) W 267 0 min 0,000 mm 0,0 UV-I 0 W/m 12,7 C 12,9 km/h (3 Bft)
05.09.2016 00:07 13,8 C 13,8 C 93 % 1015,7 hPa 0,0 mm 9,9 km/h (2 Bft) SW 225 0 min 0,000 mm 0,0 UV-I 0 W/m 12,7 C 22,5 km/h (4 Bft)
05.09.2016 00:08 13,8 C 13,8 C 93 % 1015,7 hPa 0,0 mm 10,1 km/h (2 Bft) W 263 0 min 0,000 mm 0,0 UV-I 0 W/m 12,7 C 14,5 km/h (3 Bft)
05.09.2016 00:09 13,8 C 13,8 C 93 % 1015,7 hPa 0,0 mm 10,8 km/h (2 Bft) W 273 0 min 0,000 mm 0,0 UV-I 0 W/m 12,7 C 16,1 km/h (3 Bft)
05.09.2016 00:10 13,8 C 13,8 C 93 % 1015,7 hPa 0,0 mm 6,7 km/h (2 Bft) W-NW 287 0 min 0,000 mm 0,0 UV-I 0 W/m 12,7 C 11,3 km/h (2 Bft)
05.09.2016 00:11 13,8 C 13,8 C 93 % 1015,7 hPa 0,0 mm 13,2 km/h (3 Bft) W 281 0 min 0,000 mm 0,0 UV-I 0 W/m 12,7 C 20,9 km/h (4 Bft)
05.09.2016 00:12 13,8 C 13,8 C 93 % 1015,8 hPa 0,2 mm 7,3 km/h (2 Bft) W 269 0 min 0,000 mm 0,0 UV-I 0 W/m 12,7 C 16,1 km/h (3 Bft)
05.09.2016 00:13 13,8 C 13,8 C 93 % 1015,7 hPa 0,0 mm 5,5 km/h (1 Bft) W-NW 286 0 min 0,000 mm 0,0 UV-I 0 W/m 12,7 C 11,3 km/h (2 Bft)
05.09.2016 00:14 13,8 C 13,8 C 93 % 1015,6 hPa 0,0 mm 8,1 km/h (2 Bft) W 267 0 min 0,000 mm 0,0 UV-I 0 W/m 12,7 C 12,9 km/h (3 Bft)
05.09.2016 00:15 13,8 C 13,8 C 93 % 1015,6 hPa 0,0 mm 15,0 km/h (3 Bft) W 275 0 min 0,000 mm 0,0 UV-I 0 W/m 12,7 C 22,5 km/h (4 Bft)
05.09.2016 00:16 13,8 C 13,8 C 93 % 1015,6 hPa 0,0 mm 6,4 km/h (2 Bft) W-SW 246 0 min 0,000 mm 0,0 UV-I 0 W/m 12,7 C 14,5 km/h (3 Bft)
05.09.2016 00:17 13,8 C 13,9 C 93 % 1015,6 hPa 0,0 mm 13,8 km/h (3 Bft) S-SW 199 0 min 0,000 mm 0,0 UV-I 0 W/m 12,7 C 17,7 km/h (3 Bft)
05.09.2016 00:18 13,8 C 13,9 C 93 % 1015,6 hPa 0,0 mm 6,5 km/h (2 Bft) S-SW 206 0 min 0,000 mm 0,0 UV-I 0 W/m 12,7 C 11,3 km/h (2 Bft)
05.09.2016 00:19 13,8 C 13,8 C 93 % 1015,6 hPa 0,0 mm 5,9 km/h (2 Bft) W 261 0 min 0,000 mm 0,0 UV-I 0 W/m 12,7 C 16,1 km/h (3 Bft)
05.09.2016 00:20 13,8 C 13,8 C 93 % 1015,7 hPa 0,0 mm 8,2 km/h (2 Bft) W-SW 254 0 min 0,000 mm 0,0 UV-I 0 W/m 12,7 C 14,5 km/h (3 Bft)
05.09.2016 00:21 13,8 C 13,8 C 93 % 1015,7 hPa 0,0 mm 12,9 km/h (3 Bft) W-SW 244 0 min 0,000 mm 0,0 UV-I 0 W/m 12,7 C 16,1 km/h (3 Bft)
05.09.2016 00:22 13,8 C 13,8 C 93 % 1015,7 hPa 0,0 mm 4,5 km/h (1 Bft) W-SW 250 0 min 0,000 mm 0,0 UV-I 0 W/m 12,7 C 8,0 km/h (2 Bft)
05.09.2016 00:23 13,8 C 13,8 C 93 % 1015,7 hPa 0,2 mm 8,7 km/h (2 Bft) SW 231 0 min 0,000 mm 0,0 UV-I 0 W/m 12,7 C 14,5 km/h (3 Bft)
05.09.2016 00:24 13,9 C 13,9 C 93 % 1015,7 hPa 0,0 mm 10,7 km/h (2 Bft) SW 227 0 min 0,000 mm 0,0 UV-I 0 W/m 12,8 C 20,9 km/h (4 Bft)
05.09.2016 00:25 13,8 C 13,9 C 93 % 1015,7 hPa 0,0 mm 9,7 km/h (2 Bft) W-SW 257 0 min 0,000 mm 0,0 UV-I 0 W/m 12,7 C 16,1 km/h (3 Bft)
05.09.2016 00:26 13,8 C 13,9 C 93 % 1015,7 hPa 0,0 mm 7,1 km/h (2 Bft) W-SW 257 0 min 0,000 mm 0,0 UV-I 0 W/m 12,7 C 12,9 km/h (3 Bft)
05.09.2016 00:27 13,9 C 13,9 C 93 % 1015,7 hPa 0,0 mm 5,3 km/h (1 Bft) W 259 0 min 0,000 mm 0,0 UV-I 0 W/m 12,8 C 9,7 km/h (2 Bft)
05.09.2016 00:28 13,9 C 13,9 C 93 % 1015,7 hPa 0,0 mm 13,1 km/h (3 Bft) W-NW 296 0 min 0,000 mm 0,0 UV-I 0 W/m 12,8 C 20,9 km/h (4 Bft)
05.09.2016 00:29 13,9 C 13,9 C 93 % 1015,6 hPa 0,0 mm 6,7 km/h (2 Bft) W 268 0 min 0,000 mm 0,0 UV-I 0 W/m 12,8 C 12,9 km/h (3 Bft)
05.09.2016 00:30 13,9 C 13,9 C 93 % 1015,6 hPa 0,0 mm 11,0 km/h (2 Bft) S 182 0 min 0,000 mm 0,0 UV-I 0 W/m 12,8 C 16,1 km/h (3 Bft)
05.09.2016 00:31 13,8 C 13,9 C 93 % 1015,6 hPa 0,0 mm 6,8 km/h (2 Bft) W-SW 256 0 min 0,000 mm 0,0 UV-I 0 W/m 12,7 C 11,3 km/h (2 Bft)
05.09.2016 00:32 13,8 C 13,9 C 93 % 1015,6 hPa 0,0 mm 6,6 km/h (2 Bft) W 267 0 min 0,000 mm 0,0 UV-I 0 W/m 12,7 C 9,7 km/h (2 Bft)
05.09.2016 00:33 13,9 C 13,9 C 93 % 1015,6 hPa 0,0 mm 8,3 km/h (2 Bft) W 277 0 min 0,000 mm 0,0 UV-I 0 W/m 12,8 C 14,5 km/h (3 Bft)
05.09.2016 00:34 13,9 C 13,9 C 93 % 1015,6 hPa 0,0 mm 5,2 km/h (1 Bft) S 176 0 min 0,000 mm 0,0 UV-I 0 W/m 12,8 C 8,0 km/h (2 Bft)
05.09.2016 00:35 13,9 C 13,9 C 93 % 1015,6 hPa 0,0 mm 2,4 km/h (1 Bft) W-SW 254 0 min 0,000 mm 0,0 UV-I 0 W/m 12,8 C 3,2 km/h (1 Bft)
05.09.2016 00:36 13,9 C 13,9 C 93 % 1015,6 hPa 0,0 mm 6,7 km/h (2 Bft) NW 313 0 min 0,000 mm 0,0 UV-I 0 W/m 12,8 C 12,9 km/h (3 Bft)
05.09.2016 00:37 13,9 C 13,9 C 93 % 1015,6 hPa 0,0 mm 7,5 km/h (2 Bft) W 262 0 min 0,000 mm 0,0 UV-I 0 W/m 12,8 C 14,5 km/h (3 Bft)
05.09.2016 00:38 13,9 C 13,9 C 93 % 1015,6 hPa 0,0 mm 7,8 km/h (2 Bft) W-NW 286 0 min 0,000 mm 0,0 UV-I 0 W/m 12,8 C 14,5 km/h (3 Bft)
05.09.2016 00:39 13,9 C 13,9 C 93 % 1015,5 hPa 0,0 mm 5,8 km/h (2 Bft) W 261 0 min 0,000 mm 0,0 UV-I 0 W/m 12,8 C 11,3 km/h (2 Bft)
05.09.2016 00:40 13,9 C 13,9 C 93 % 1015,5 hPa 0,2 mm 7,1 km/h (2 Bft) W-SW 254 0 min 0,000 mm 0,0 UV-I 0 W/m 12,8 C 9,7 km/h (2 Bft)
05.09.2016 00:41 13,9 C 13,9 C 93 % 1015,6 hPa 0,0 mm 7,6 km/h (2 Bft) SW 235 0 min 0,000 mm 0,0 UV-I 0 W/m 12,8 C 11,3 km/h (2 Bft)
05.09.2016 00:42 13,9 C 13,9 C 93 % 1015,5 hPa 0,0 mm 8,3 km/h (2 Bft) W 276 0 min 0,000 mm 0,0 UV-I 0 W/m 12,8 C 12,9 km/h (3 Bft)
05.09.2016 00:43 13,9 C 13,9 C 93 % 1015,5 hPa 0,0 mm 7,1 km/h (2 Bft) W-SW 246 0 min 0,000 mm 0,0 UV-I 0 W/m 12,8 C 11,3 km/h (2 Bft)
05.09.2016 00:44 13,9 C 13,9 C 93 % 1015,6 hPa 0,0 mm 4,5 km/h (1 Bft) W-SW 247 0 min 0,000 mm 0,0 UV-I 0 W/m 12,8 C 6,4 km/h (2 Bft)
05.09.2016 00:45 13,9 C 13,9 C 93 % 1015,5 hPa 0,0 mm 3,5 km/h (1 Bft) W-NW 284 0 min 0,000 mm 0,0 UV-I 0 W/m 12,8 C 6,4 km/h (2 Bft)
05.09.2016 00:46 13,9 C 13,9 C 93 % 1015,5 hPa 0,0 mm 6,9 km/h (2 Bft) W-SW 242 0 min 0,000 mm 0,0 UV-I 0 W/m 12,8 C 11,3 km/h (2 Bft)
05.09.2016 00:47 13,8 C 13,9 C 93 % 1015,5 hPa 0,0 mm 3,2 km/h (1 Bft) S-SW 198 0 min 0,000 mm 0,0 UV-I 0 W/m 12,7 C 6,4 km/h (2 Bft)
05.09.2016 00:48 13,9 C 13,9 C 93 % 1015,5 hPa 0,0 mm 4,6 km/h (1 Bft) S-SW 209 0 min 0,000 mm 0,0 UV-I 0 W/m 12,8 C 9,7 km/h (2 Bft)
05.09.2016 00:49 13,9 C 13,9 C 93 % 1015,5 hPa 0,0 mm 3,8 km/h (1 Bft) W-SW 252 0 min 0,000 mm 0,0 UV-I 0 W/m 12,8 C 6,4 km/h (2 Bft)
05.09.2016 00:50 13,9 C 13,9 C 93 % 1015,5 hPa 0,0 mm 7,2 km/h (2 Bft) W-SW 257 0 min 0,000 mm 0,0 UV-I 0 W/m 12,8 C 11,3 km/h (2 Bft)
05.09.2016 00:51 13,9 C 13,9 C 93 % 1015,6 hPa 0,2 mm 5,2 km/h (1 Bft) SW 232 0 min 0,000 mm 0,0 UV-I 0 W/m 12,8 C 9,7 km/h (2 Bft)
05.09.2016 00:52 13,9 C 13,9 C 93 % 1015,5 hPa 0,0 mm 5,6 km/h (1 Bft) S-SO 165 0 min 0,000 mm 0,0 UV-I 0 W/m 12,8 C 6,4 km/h (2 Bft)
05.09.2016 00:53 13,9 C 13,9 C 93 % 1015,5 hPa 0,2 mm 6,0 km/h (2 Bft) W-SW 257 0 min 0,000 mm 0,0 UV-I 0 W/m 12,8 C 11,3 km/h (2 Bft)
05.09.2016 00:54 13,9 C 13,9 C 93 % 1015,5 hPa 0,0 mm 5,7 km/h (1 Bft) W 263 0 min 0,000 mm 0,0 UV-I 0 W/m 12,8 C 11,3 km/h (2 Bft)
05.09.2016 00:55 13,9 C 13,9 C 93 % 1015,5 hPa 0,0 mm 8,5 km/h (2 Bft) W 259 0 min 0,000 mm 0,0 UV-I 0 W/m 12,8 C 14,5 km/h (3 Bft)
05.09.2016 00:56 13,9 C 13,9 C 93 % 1015,5 hPa 0,0 mm 9,6 km/h (2 Bft) W-SW 238 0 min 0,000 mm 0,0 UV-I 0 W/m 12,8 C 14,5 km/h (3 Bft)
05.09.2016 00:57 13,9 C 13,9 C 93 % 1015,5 hPa 0,2 mm 3,7 km/h (1 Bft) W 276 0 min 0,000 mm 0,0 UV-I 0 W/m 12,8 C 6,4 km/h (2 Bft)
05.09.2016 00:58 13,9 C 13,9 C 93 % 1015,5 hPa 0,2 mm 6,0 km/h (2 Bft) W-NW 297 0 min 0,000 mm 0,0 UV-I 0 W/m 12,8 C 11,3 km/h (2 Bft)
05.09.2016 00:59 13,8 C 13,9 C 93 % 1015,5 hPa 0,0 mm 4,6 km/h (1 Bft) SW 219 0 min 0,000 mm 0,0 UV-I 0 W/m 12,7 C 6,4 km/h (2 Bft)
05.09.2016 01:00 13,8 C 13,9 C 93 % 1015,5 hPa 0,0 mm 6,2 km/h (2 Bft) SW 234 0 min 0,000 mm 0,0 UV-I 0 W/m 12,7 C 12,9 km/h (3 Bft)
05.09.2016 01:01 13,8 C 13,8 C 93 % 1015,5 hPa 0,2 mm 7,2 km/h (2 Bft) W-SW 247 0 min 0,000 mm 0,0 UV-I 0 W/m 12,7 C 11,3 km/h (2 Bft)
05.09.2016 01:02 13,8 C 13,8 C 93 % 1015,5 hPa 0,0 mm 4,4 km/h (1 Bft) W 263 0 min 0,000 mm 0,0 UV-I 0 W/m 12,7 C 8,0 km/h (2 Bft)
05.09.2016 01:03 13,8 C 13,8 C 93 % 1015,5 hPa 0,0 mm 5,2 km/h (1 Bft) W 271 0 min 0,000 mm 0,0 UV-I 0 W/m 12,7 C 9,7 km/h (2 Bft)
05.09.2016 01:04 13,8 C 13,8 C 93 % 1015,5 hPa 0,2 mm 6,5 km/h (2 Bft) W-SW 242 0 min 0,000 mm 0,0 UV-I 0 W/m 12,7 C 11,3 km/h (2 Bft)
05.09.2016 01:05 13,8 C 13,8 C 93 % 1015,5 hPa 0,0 mm 5,0 km/h (1 Bft) W-NW 283 0 min 0,000 mm 0,0 UV-I 0 W/m 12,7 C 6,4 km/h (2 Bft)
05.09.2016 01:06 13,8 C 13,8 C 93 % 1015,5 hPa 0,2 mm 7,6 km/h (2 Bft) W-NW 292 0 min 0,000 mm 0,0 UV-I 0 W/m 12,7 C 12,9 km/h (3 Bft)
05.09.2016 01:07 13,8 C 13,8 C 93 % 1015,4 hPa 0,0 mm 5,5 km/h (1 Bft) W 262 0 min 0,000 mm 0,0 UV-I 0 W/m 12,7 C 11,3 km/h (2 Bft)
05.09.2016 01:08 13,8 C 13,8 C 93 % 1015,5 hPa 0,2 mm 5,6 km/h (1 Bft) W 266 0 min 0,000 mm 0,0 UV-I 0 W/m 12,7 C 12,9 km/h (3 Bft)
05.09.2016 01:09 13,8 C 13,8 C 93 % 1015,5 hPa 0,0 mm 5,4 km/h (1 Bft) S-SW 211 0 min 0,000 mm 0,0 UV-I 0 W/m 12,7 C 9,7 km/h (2 Bft)
05.09.2016 01:10 13,8 C 13,8 C 93 % 1015,5 hPa 0,0 mm 8,9 km/h (2 Bft) W-SW 254 0 min 0,000 mm 0,0 UV-I 0 W/m 12,7 C 14,5 km/h (3 Bft)
05.09.2016 01:11 13,8 C 13,8 C 93 % 1015,5 hPa 0,2 mm 4,4 km/h (1 Bft) W-SW 254 0 min 0,000 mm 0,0 UV-I 0 W/m 12,7 C 8,0 km/h (2 Bft)
05.09.2016 01:12 13,8 C 13,8 C 93 % 1015,5 hPa 0,2 mm 4,8 km/h (1 Bft) W-SW 249 0 min 0,000 mm 0,0 UV-I 0 W/m 12,7 C 6,4 km/h (2 Bft)
05.09.2016 01:13 13,8 C 13,8 C 94 % 1015,4 hPa 0,2 mm 5,3 km/h (1 Bft) W-SW 257 0 min 0,000 mm 0,0 UV-I 0 W/m 12,9 C 8,0 km/h (2 Bft)
05.09.2016 01:14 13,8 C 13,8 C 94 % 1015,5 hPa 0,0 mm 9,0 km/h (2 Bft) W-SW 254 0 min 0,000 mm 0,0 UV-I 0 W/m 12,9 C 14,5 km/h (3 Bft)
05.09.2016 01:15 13,8 C 13,8 C 94 % 1015,6 hPa 0,2 mm 8,6 km/h (2 Bft) W 260 0 min 0,000 mm 0,0 UV-I 0 W/m 12,9 C 11,3 km/h (2 Bft)
05.09.2016 01:16 13,8 C 13,8 C 94 % 1015,6 hPa 0,2 mm 8,0 km/h (2 Bft) W-NW 286 0 min 0,000 mm 0,0 UV-I 0 W/m 12,9 C 11,3 km/h (2 Bft)
05.09.2016 01:17 13,8 C 13,8 C 94 % 1015,6 hPa 0,4 mm 6,3 km/h (2 Bft) W-NW 296 0 min 0,000 mm 0,0 UV-I 0 W/m 12,9 C 11,3 km/h (2 Bft)
05.09.2016 01:18 13,8 C 13,8 C 94 % 1015,5 hPa 0,2 mm 10,0 km/h (2 Bft) W 281 0 min 0,000 mm 0,0 UV-I 0 W/m 12,9 C 14,5 km/h (3 Bft)
05.09.2016 01:19 13,8 C 13,8 C 94 % 1015,5 hPa 0,2 mm 8,2 km/h (2 Bft) W-SW 257 0 min 0,000 mm 0,0 UV-I 0 W/m 12,9 C 16,1 km/h (3 Bft)
05.09.2016 01:20 13,8 C 13,8 C 94 % 1015,6 hPa 0,2 mm 13,5 km/h (3 Bft) W 276 0 min 0,000 mm 0,0 UV-I 0 W/m 12,9 C 16,1 km/h (3 Bft)
05.09.2016 01:21 13,8 C 13,8 C 94 % 1015,5 hPa 0,2 mm 5,6 km/h (1 Bft) W-NW 294 0 min 0,000 mm 0,0 UV-I 0 W/m 12,9 C 9,7 km/h (2 Bft)
05.09.2016 01:22 13,8 C 13,8 C 94 % 1015,5 hPa 0,0 mm 8,2 km/h (2 Bft) W-NW 286 0 min 0,000 mm 0,0 UV-I 0 W/m 12,9 C 12,9 km/h (3 Bft)
05.09.2016 01:23 13,8 C 13,8 C 94 % 1015,6 hPa 0,0 mm 9,7 km/h (2 Bft) W 260 0 min 0,000 mm 0,0 UV-I 0 W/m 12,9 C 14,5 km/h (3 Bft)
05.09.2016 01:24 13,8 C 13,8 C 94 % 1015,6 hPa 0,2 mm 12,1 km/h (2 Bft) W-NW 288 0 min 0,000 mm 0,0 UV-I 0 W/m 12,9 C 16,1 km/h (3 Bft)
05.09.2016 01:25 13,8 C 13,8 C 94 % 1015,7 hPa 0,2 mm 5,6 km/h (1 Bft) W-SW 243 0 min 0,000 mm 0,0 UV-I 0 W/m 12,9 C 9,7 km/h (2 Bft)
05.09.2016 01:26 13,8 C 13,8 C 94 % 1015,7 hPa 0,2 mm 12,3 km/h (3 Bft) W 278 0 min 0,000 mm 0,0 UV-I 0 W/m 12,9 C 19,3 km/h (3 Bft)
05.09.2016 01:27 13,8 C 13,8 C 94 % 1015,8 hPa 0,6 mm 11,7 km/h (2 Bft) W-SW 239 0 min 0,000 mm 0,0 UV-I 0 W/m 12,9 C 16,1 km/h (3 Bft)
05.09.2016 01:28 13,8 C 13,8 C 94 % 1015,8 hPa 0,4 mm 13,0 km/h (3 Bft) W 273 0 min 0,000 mm 0,0 UV-I 0 W/m 12,9 C 17,7 km/h (3 Bft)
05.09.2016 01:29 13,8 C 13,8 C 94 % 1015,7 hPa 0,0 mm 13,0 km/h (3 Bft) W 259 0 min 0,000 mm 0,0 UV-I 0 W/m 12,9 C 22,5 km/h (4 Bft)
05.09.2016 01:30 13,8 C 13,8 C 94 % 1015,7 hPa 0,2 mm 13,9 km/h (3 Bft) W 269 0 min 0,000 mm 0,0 UV-I 0 W/m 12,9 C 22,5 km/h (4 Bft)
05.09.2016 01:31 13,8 C 13,8 C 94 % 1015,8 hPa 0,0 mm 13,5 km/h (3 Bft) W 281 0 min 0,000 mm 0,0 UV-I 0 W/m 12,9 C 22,5 km/h (4 Bft)
05.09.2016 01:32 13,8 C 13,8 C 94 % 1015,8 hPa 0,2 mm 8,9 km/h (2 Bft) W 280 0 min 0,000 mm 0,0 UV-I 0 W/m 12,9 C 12,9 km/h (3 Bft)
05.09.2016 01:33 13,8 C 13,8 C 94 % 1015,9 hPa 0,0 mm 11,3 km/h (2 Bft) W-NW 284 0 min 0,000 mm 0,0 UV-I 0 W/m 12,9 C 17,7 km/h (3 Bft)
05.09.2016 01:34 13,8 C 13,8 C 94 % 1015,9 hPa 0,0 mm 10,0 km/h (2 Bft) W 267 0 min 0,000 mm 0,0 UV-I 0 W/m 12,9 C 14,5 km/h (3 Bft)
05.09.2016 01:35 13,8 C 13,8 C 94 % 1015,9 hPa 0,0 mm 8,6 km/h (2 Bft) W-NW 294 0 min 0,000 mm 0,0 UV-I 0 W/m 12,9 C 12,9 km/h (3 Bft)
05.09.2016 01:36 13,8 C 13,8 C 94 % 1015,9 hPa 0,0 mm 18,7 km/h (3 Bft) W-SW 253 0 min 0,000 mm 0,0 UV-I 0 W/m 12,9 C 27,4 km/h (4 Bft)
05.09.2016 01:37 13,8 C 13,8 C 94 % 1015,9 hPa 0,0 mm 8,8 km/h (2 Bft) SW 234 0 min 0,000 mm 0,0 UV-I 0 W/m 12,9 C 17,7 km/h (3 Bft)
05.09.2016 01:38 13,8 C 13,8 C 94 % 1015,9 hPa 0,2 mm 15,5 km/h (3 Bft) W-NW 293 0 min 0,000 mm 0,0 UV-I 0 W/m 12,9 C 25,7 km/h (4 Bft)
05.09.2016 01:39 13,8 C 13,8 C 93 % 1015,9 hPa 0,0 mm 12,1 km/h (2 Bft) W 260 0 min 0,000 mm 0,0 UV-I 0 W/m 12,7 C 17,7 km/h (3 Bft)
05.09.2016 01:40 13,8 C 13,8 C 93 % 1016,0 hPa 0,0 mm 12,3 km/h (3 Bft) W 277 0 min 0,000 mm 0,0 UV-I 0 W/m 12,7 C 17,7 km/h (3 Bft)
05.09.2016 01:41 13,8 C 13,8 C 94 % 1015,9 hPa 0,2 mm 13,5 km/h (3 Bft) W 271 0 min 0,000 mm 0,0 UV-I 0 W/m 12,9 C 19,3 km/h (3 Bft)
05.09.2016 01:42 13,8 C 13,8 C 94 % 1015,9 hPa 0,0 mm 16,0 km/h (3 Bft) W 263 0 min 0,000 mm 0,0 UV-I 0 W/m 12,9 C 20,9 km/h (4 Bft)
05.09.2016 01:43 13,8 C 13,8 C 93 % 1015,9 hPa 0,0 mm 17,6 km/h (3 Bft) W-NW 299 0 min 0,000 mm 0,0 UV-I 0 W/m 12,7 C 22,5 km/h (4 Bft)
05.09.2016 01:44 13,8 C 13,8 C 93 % 1015,9 hPa 0,2 mm 12,4 km/h (3 Bft) W 259 0 min 0,000 mm 0,0 UV-I 0 W/m 12,7 C 17,7 km/h (3 Bft)
05.09.2016 01:45 13,8 C 13,8 C 93 % 1016,0 hPa 0,0 mm 10,4 km/h (2 Bft) W-SW 251 0 min 0,000 mm 0,0 UV-I 0 W/m 12,7 C 17,7 km/h (3 Bft)
05.09.2016 01:46 13,8 C 13,8 C 93 % 1016,0 hPa 0,0 mm 8,7 km/h (2 Bft) W 263 0 min 0,000 mm 0,0 UV-I 0 W/m 12,7 C 17,7 km/h (3 Bft)
05.09.2016 01:47 13,8 C 13,8 C 93 % 1016,1 hPa 0,0 mm 15,3 km/h (3 Bft) W-SW 254 0 min 0,000 mm 0,0 UV-I 0 W/m 12,7 C 25,7 km/h (4 Bft)
05.09.2016 01:48 13,8 C 13,8 C 93 % 1016,2 hPa 0,0 mm 10,9 km/h (2 Bft) W 277 0 min 0,000 mm 0,0 UV-I 0 W/m 12,7 C 22,5 km/h (4 Bft)
05.09.2016 01:49 13,8 C 13,8 C 93 % 1016,1 hPa 0,0 mm 8,9 km/h (2 Bft) SW 220 0 min 0,000 mm 0,0 UV-I 0 W/m 12,7 C 12,9 km/h (3 Bft)
05.09.2016 01:50 13,8 C 13,8 C 93 % 1016,2 hPa 0,0 mm 16,8 km/h (3 Bft) W-SW 250 0 min 0,000 mm 0,0 UV-I 0 W/m 12,7 C 29,0 km/h (5 Bft)
05.09.2016 01:51 13,8 C 13,8 C 93 % 1016,1 hPa 0,2 mm 14,1 km/h (3 Bft) W 265 0 min 0,000 mm 0,0 UV-I 0 W/m 12,7 C 24,1 km/h (4 Bft)
05.09.2016 01:52 13,8 C 13,8 C 93 % 1016,1 hPa 0,0 mm 13,0 km/h (3 Bft) W-SW 245 0 min 0,000 mm 0,0 UV-I 0 W/m 12,7 C 17,7 km/h (3 Bft)
05.09.2016 01:53 13,8 C 13,8 C 93 % 1016,1 hPa 0,0 mm 17,2 km/h (3 Bft) W 274 0 min 0,000 mm 0,0 UV-I 0 W/m 12,7 C 25,7 km/h (4 Bft)
05.09.2016 01:54 13,8 C 13,8 C 93 % 1016,1 hPa 0,0 mm 9,3 km/h (2 Bft) W-NW 288 0 min 0,000 mm 0,0 UV-I 0 W/m 12,7 C 16,1 km/h (3 Bft)
05.09.2016 01:55 13,8 C 13,8 C 93 % 1016,1 hPa 0,0 mm 11,8 km/h (2 Bft) SO 129 0 min 0,000 mm 0,0 UV-I 0 W/m 12,7 C 24,1 km/h (4 Bft)
05.09.2016 01:56 13,8 C 13,8 C 93 % 1016,1 hPa 0,0 mm 14,6 km/h (3 Bft) S-SW 198 0 min 0,000 mm 0,0 UV-I 0 W/m 12,7 C 22,5 km/h (4 Bft)
05.09.2016 01:57 13,8 C 13,8 C 93 % 1016,1 hPa 0,0 mm 19,0 km/h (3 Bft) W 267 0 min 0,000 mm 0,0 UV-I 0 W/m 12,7 C 29,0 km/h (5 Bft)
05.09.2016 01:58 13,8 C 13,8 C 93 % 1016,1 hPa 0,0 mm 11,3 km/h (2 Bft) W-SW 255 0 min 0,000 mm 0,0 UV-I 0 W/m 12,7 C 22,5 km/h (4 Bft)
05.09.2016 01:59 13,8 C 13,8 C 93 % 1016,1 hPa 0,0 mm 17,2 km/h (3 Bft) W 261 0 min 0,000 mm 0,0 UV-I 0 W/m 12,7 C 22,5 km/h (4 Bft)
05.09.2016 02:00 13,8 C 13,8 C 93 % 1016,1 hPa 0,0 mm 9,5 km/h (2 Bft) W 265 0 min 0,000 mm 0,0 UV-I 0 W/m 12,7 C 20,9 km/h (4 Bft)
05.09.2016 02:01 13,8 C 13,8 C 93 % 1016,1 hPa 0,0 mm 15,6 km/h (3 Bft) SW 216 0 min 0,000 mm 0,0 UV-I 0 W/m 12,7 C 25,7 km/h (4 Bft)
05.09.2016 02:02 13,8 C 13,8 C 93 % 1016,3 hPa 0,0 mm 13,1 km/h (3 Bft) W 263 0 min 0,000 mm 0,0 UV-I 0 W/m 12,7 C 20,9 km/h (4 Bft)
05.09.2016 02:03 13,8 C 13,8 C 93 % 1016,2 hPa 0,0 mm 13,4 km/h (3 Bft) SW 215 0 min 0,000 mm 0,0 UV-I 0 W/m 12,7 C 19,3 km/h (3 Bft)
05.09.2016 02:04 13,8 C 13,8 C 93 % 1016,1 hPa 0,0 mm 13,9 km/h (3 Bft) W 266 0 min 0,000 mm 0,0 UV-I 0 W/m 12,7 C 19,3 km/h (3 Bft)
05.09.2016 02:05 13,8 C 13,8 C 93 % 1016,1 hPa 0,0 mm 9,5 km/h (2 Bft) W-NW 286 0 min 0,000 mm 0,0 UV-I 0 W/m 12,7 C 19,3 km/h (3 Bft)
05.09.2016 02:06 13,8 C 13,8 C 93 % 1016,2 hPa 0,0 mm 9,5 km/h (2 Bft) W-SW 242 0 min 0,000 mm 0,0 UV-I 0 W/m 12,7 C 16,1 km/h (3 Bft)
05.09.2016 02:07 13,8 C 13,8 C 93 % 1016,2 hPa 0,0 mm 7,8 km/h (2 Bft) W-SW 254 0 min 0,000 mm 0,0 UV-I 0 W/m 12,7 C 16,1 km/h (3 Bft)
05.09.2016 02:08 13,8 C 13,8 C 93 % 1016,2 hPa 0,0 mm 8,4 km/h (2 Bft) W-SW 246 0 min 0,000 mm 0,0 UV-I 0 W/m 12,7 C 14,5 km/h (3 Bft)
05.09.2016 02:09 13,8 C 13,8 C 93 % 1016,3 hPa 0,0 mm 7,8 km/h (2 Bft) W 261 0 min 0,000 mm 0,0 UV-I 0 W/m 12,7 C 11,3 km/h (2 Bft)
05.09.2016 02:10 13,7 C 13,8 C 93 % 1016,3 hPa 0,0 mm 11,1 km/h (2 Bft) SW 236 0 min 0,000 mm 0,0 UV-I 0 W/m 12,6 C 16,1 km/h (3 Bft)
05.09.2016 02:11 13,7 C 13,7 C 93 % 1016,1 hPa 0,0 mm 6,8 km/h (2 Bft) W-SW 251 0 min 0,000 mm 0,0 UV-I 0 W/m 12,6 C 14,5 km/h (3 Bft)
05.09.2016 02:12 13,7 C 13,7 C 92 % 1016,2 hPa 0,0 mm 8,4 km/h (2 Bft) W-NW 284 0 min 0,000 mm 0,0 UV-I 0 W/m 12,4 C 11,3 km/h (2 Bft)
05.09.2016 02:13 13,7 C 13,7 C 92 % 1016,1 hPa 0,0 mm 8,6 km/h (2 Bft) S-SW 207 0 min 0,000 mm 0,0 UV-I 0 W/m 12,4 C 16,1 km/h (3 Bft)
05.09.2016 02:14 13,7 C 13,7 C 92 % 1016,1 hPa 0,0 mm 7,9 km/h (2 Bft) S-SW 194 0 min 0,000 mm 0,0 UV-I 0 W/m 12,4 C 14,5 km/h (3 Bft)
05.09.2016 02:15 13,7 C 13,7 C 92 % 1016,1 hPa 0,0 mm 5,4 km/h (1 Bft) S-SW 211 0 min 0,000 mm 0,0 UV-I 0 W/m 12,4 C 9,7 km/h (2 Bft)
05.09.2016 02:16 13,7 C 13,7 C 91 % 1016,1 hPa 0,0 mm 10,3 km/h (2 Bft) W-SW 248 0 min 0,000 mm 0,0 UV-I 0 W/m 12,3 C 17,7 km/h (3 Bft)
05.09.2016 02:17 13,7 C 13,7 C 91 % 1016,1 hPa 0,0 mm 8,4 km/h (2 Bft) SW 227 0 min 0,000 mm 0,0 UV-I 0 W/m 12,3 C 12,9 km/h (3 Bft)
05.09.2016 02:18 13,6 C 13,7 C 91 % 1016,1 hPa 0,0 mm 8,9 km/h (2 Bft) W-SW 255 0 min 0,000 mm 0,0 UV-I 0 W/m 12,2 C 12,9 km/h (3 Bft)
05.09.2016 02:19 13,6 C 13,7 C 91 % 1016,2 hPa 0,0 mm 6,6 km/h (2 Bft) S-SW 204 0 min 0,000 mm 0,0 UV-I 0 W/m 12,2 C 12,9 km/h (3 Bft)
05.09.2016 02:20 13,6 C 13,6 C 91 % 1016,1 hPa 0,0 mm 4,2 km/h (1 Bft) S 173 0 min 0,000 mm 0,0 UV-I 0 W/m 12,2 C 9,7 km/h (2 Bft)
05.09.2016 02:21 13,6 C 13,6 C 91 % 1016,1 hPa 0,0 mm 2,7 km/h (1 Bft) W-NW 293 0 min 0,000 mm 0,0 UV-I 0 W/m 12,2 C 6,4 km/h (2 Bft)
05.09.2016 02:22 13,5 C 13,6 C 91 % 1016,1 hPa 0,0 mm 8,4 km/h (2 Bft) W-SW 240 0 min 0,000 mm 0,0 UV-I 0 W/m 12,1 C 14,5 km/h (3 Bft)
05.09.2016 02:23 13,4 C 13,5 C 91 % 1016,1 hPa 0,0 mm 3,4 km/h (1 Bft) SW 228 0 min 0,000 mm 0,0 UV-I 0 W/m 12,0 C 6,4 km/h (2 Bft)
05.09.2016 02:24 13,4 C 13,4 C 91 % 1016,0 hPa 0,0 mm 6,6 km/h (2 Bft) SW 230 0 min 0,000 mm 0,0 UV-I 0 W/m 12,0 C 9,7 km/h (2 Bft)
05.09.2016 02:25 13,4 C 13,4 C 91 % 1016,1 hPa 0,0 mm 5,0 km/h (1 Bft) SW 217 0 min 0,000 mm 0,0 UV-I 0 W/m 12,0 C 9,7 km/h (2 Bft)
05.09.2016 02:26 13,4 C 13,4 C 91 % 1016,1 hPa 0,2 mm 2,2 km/h (1 Bft) W-SW 255 0 min 0,000 mm 0,0 UV-I 0 W/m 12,0 C 4,8 km/h (1 Bft)
05.09.2016 02:27 13,4 C 13,4 C 91 % 1016,2 hPa 0,0 mm 3,6 km/h (1 Bft) W-SW 246 0 min 0,000 mm 0,0 UV-I 0 W/m 12,0 C 4,8 km/h (1 Bft)
05.09.2016 02:28 13,4 C 13,4 C 91 % 1016,3 hPa 0,0 mm 8,0 km/h (2 Bft) W 271 0 min 0,000 mm 0,0 UV-I 0 W/m 12,0 C 14,5 km/h (3 Bft)
05.09.2016 02:29 13,4 C 13,4 C 91 % 1016,3 hPa 0,0 mm 5,0 km/h (1 Bft) W-SW 238 0 min 0,000 mm 0,0 UV-I 0 W/m 12,0 C 8,0 km/h (2 Bft)
05.09.2016 02:30 13,3 C 13,4 C 91 % 1016,3 hPa 0,0 mm 1,3 km/h (1 Bft) W-SW 238 0 min 0,000 mm 0,0 UV-I 0 W/m 11,9 C 3,2 km/h (1 Bft)
05.09.2016 02:31 13,3 C 13,3 C 91 % 1016,3 hPa 0,0 mm 2,6 km/h (1 Bft) W 269 0 min 0,000 mm 0,0 UV-I 0 W/m 11,9 C 4,8 km/h (1 Bft)
05.09.2016 02:32 13,2 C 13,3 C 91 % 1016,3 hPa 0,0 mm 2,5 km/h (1 Bft) S-SW 192 0 min 0,000 mm 0,0 UV-I 0 W/m 11,8 C 4,8 km/h (1 Bft)
05.09.2016 02:33 13,3 C 13,3 C 91 % 1016,3 hPa 0,0 mm 3,4 km/h (1 Bft) W-SW 248 0 min 0,000 mm 0,0 UV-I 0 W/m 11,9 C 6,4 km/h (2 Bft)
05.09.2016 02:34 13,2 C 13,3 C 90 % 1016,2 hPa 0,0 mm 7,0 km/h (2 Bft) W 281 0 min 0,000 mm 0,0 UV-I 0 W/m 11,6 C 11,3 km/h (2 Bft)
05.09.2016 02:35 13,2 C 13,2 C 91 % 1016,3 hPa 0,0 mm 6,3 km/h (2 Bft) S 184 0 min 0,000 mm 0,0 UV-I 0 W/m 11,8 C 8,0 km/h (2 Bft)
05.09.2016 02:36 13,2 C 13,2 C 90 % 1016,2 hPa 0,0 mm 4,2 km/h (1 Bft) W-SW 254 0 min 0,000 mm 0,0 UV-I 0 W/m 11,6 C 8,0 km/h (2 Bft)
05.09.2016 02:37 13,2 C 13,2 C 91 % 1016,2 hPa 0,0 mm 4,1 km/h (1 Bft) W 265 0 min 0,000 mm 0,0 UV-I 0 W/m 11,8 C 6,4 km/h (2 Bft)
05.09.2016 02:38 13,2 C 13,2 C 91 % 1016,2 hPa 0,0 mm 4,8 km/h (1 Bft) W 266 0 min 0,000 mm 0,0 UV-I 0 W/m 11,8 C 6,4 km/h (2 Bft)
05.09.2016 02:39 13,2 C 13,2 C 91 % 1016,2 hPa 0,0 mm 3,4 km/h (1 Bft) W-SW 241 0 min 0,000 mm 0,0 UV-I 0 W/m 11,8 C 4,8 km/h (1 Bft)
05.09.2016 02:40 13,1 C 13,2 C 90 % 1016,3 hPa 0,0 mm 3,2 km/h (1 Bft) S-SO 165 0 min 0,000 mm 0,0 UV-I 0 W/m 11,5 C 6,4 km/h (2 Bft)
05.09.2016 02:41 13,1 C 13,2 C 90 % 1016,3 hPa 0,0 mm 4,0 km/h (1 Bft) W-SW 243 0 min 0,000 mm 0,0 UV-I 0 W/m 11,5 C 8,0 km/h (2 Bft)
05.09.2016 02:42 13,2 C 13,2 C 90 % 1016,3 hPa 0,0 mm 3,8 km/h (1 Bft) W-SW 252 0 min 0,000 mm 0,0 UV-I 0 W/m 11,6 C 9,7 km/h (2 Bft)
05.09.2016 02:43 13,2 C 13,2 C 90 % 1016,3 hPa 0,0 mm 8,6 km/h (2 Bft) W 259 0 min 0,000 mm 0,0 UV-I 0 W/m 11,6 C 14,5 km/h (3 Bft)
05.09.2016 02:44 13,1 C 13,2 C 90 % 1016,3 hPa 0,0 mm 3,2 km/h (1 Bft) S 183 0 min 0,000 mm 0,0 UV-I 0 W/m 11,5 C 4,8 km/h (1 Bft)
05.09.2016 02:45 13,1 C 13,2 C 90 % 1016,2 hPa 0,0 mm 6,2 km/h (2 Bft) W-SW 246 0 min 0,000 mm 0,0 UV-I 0 W/m 11,5 C 12,9 km/h (3 Bft)
05.09.2016 02:46 13,1 C 13,1 C 90 % 1016,2 hPa 0,0 mm 4,8 km/h (1 Bft) W-SW 244 0 min 0,000 mm 0,0 UV-I 0 W/m 11,5 C 8,0 km/h (2 Bft)
05.09.2016 02:47 13,1 C 13,1 C 90 % 1016,2 hPa 0,0 mm 6,6 km/h (2 Bft) S-SW 209 0 min 0,000 mm 0,0 UV-I 0 W/m 11,5 C 12,9 km/h (3 Bft)
05.09.2016 02:48 13,1 C 13,1 C 90 % 1016,2 hPa 0,0 mm 2,3 km/h (1 Bft) S-SW 196 0 min 0,000 mm 0,0 UV-I 0 W/m 11,5 C 4,8 km/h (1 Bft)
05.09.2016 02:49 13,1 C 13,1 C 90 % 1016,1 hPa 0,0 mm 2,9 km/h (1 Bft) W-SW 247 0 min 0,000 mm 0,0 UV-I 0 W/m 11,5 C 4,8 km/h (1 Bft)
05.09.2016 02:50 13,1 C 13,1 C 90 % 1016,1 hPa 0,0 mm 2,4 km/h (1 Bft) W-SW 238 0 min 0,000 mm 0,0 UV-I 0 W/m 11,5 C 4,8 km/h (1 Bft)
05.09.2016 02:51 13,0 C 13,1 C 90 % 1016,1 hPa 0,0 mm 4,2 km/h (1 Bft) W-SW 249 0 min 0,000 mm 0,0 UV-I 0 W/m 11,4 C 6,4 km/h (2 Bft)
05.09.2016 02:52 12,9 C 13,0 C 91 % 1016,1 hPa 0,2 mm 4,2 km/h (1 Bft) W-SW 252 0 min 0,000 mm 0,0 UV-I 0 W/m 11,5 C 6,4 km/h (2 Bft)
05.09.2016 02:53 12,9 C 12,9 C 91 % 1016,1 hPa 0,2 mm 1,9 km/h (1 Bft) W-SW 252 0 min 0,000 mm 0,0 UV-I 0 W/m 11,5 C 3,2 km/h (1 Bft)
05.09.2016 02:54 12,9 C 12,9 C 91 % 1016,2 hPa 0,0 mm 3,1 km/h (1 Bft) S-SW 205 0 min 0,000 mm 0,0 UV-I 0 W/m 11,5 C 4,8 km/h (1 Bft)
05.09.2016 02:55 12,9 C 12,9 C 91 % 1016,2 hPa 0,2 mm 4,2 km/h (1 Bft) SW 219 0 min 0,000 mm 0,0 UV-I 0 W/m 11,5 C 9,7 km/h (2 Bft)
05.09.2016 02:56 12,8 C 12,9 C 91 % 1016,2 hPa 0,0 mm 5,4 km/h (1 Bft) W-SW 240 0 min 0,000 mm 0,0 UV-I 0 W/m 11,4 C 9,7 km/h (2 Bft)
05.09.2016 02:57 12,8 C 12,9 C 91 % 1016,1 hPa 0,2 mm 3,2 km/h (1 Bft) W-SW 250 0 min 0,000 mm 0,0 UV-I 0 W/m 11,4 C 4,8 km/h (1 Bft)
05.09.2016 02:58 12,8 C 12,8 C 91 % 1016,1 hPa 0,0 mm 3,1 km/h (1 Bft) W-SW 248 0 min 0,000 mm 0,0 UV-I 0 W/m 11,4 C 4,8 km/h (1 Bft)
05.09.2016 02:59 12,8 C 12,8 C 91 % 1016,2 hPa 0,0 mm 6,2 km/h (2 Bft) W 276 0 min 0,000 mm 0,0 UV-I 0 W/m 11,4 C 14,5 km/h (3 Bft)
05.09.2016 03:00 12,8 C 12,8 C 91 % 1016,1 hPa 0,0 mm 5,6 km/h (1 Bft) SW 220 0 min 0,000 mm 0,0 UV-I 0 W/m 11,4 C 11,3 km/h (2 Bft)
05.09.2016 03:01 12,8 C 12,8 C 91 % 1016,2 hPa 0,0 mm 6,1 km/h (2 Bft) W-SW 240 0 min 0,000 mm 0,0 UV-I 0 W/m 11,4 C 12,9 km/h (3 Bft)
05.09.2016 03:02 12,8 C 12,8 C 91 % 1016,2 hPa 0,0 mm 4,5 km/h (1 Bft) W 261 0 min 0,000 mm 0,0 UV-I 0 W/m 11,4 C 6,4 km/h (2 Bft)
05.09.2016 03:03 12,7 C 12,8 C 91 % 1016,2 hPa 0,0 mm 4,4 km/h (1 Bft) S-SW 211 0 min 0,000 mm 0,0 UV-I 0 W/m 11,3 C 6,4 km/h (2 Bft)
05.09.2016 03:04 12,7 C 12,7 C 91 % 1016,2 hPa 0,0 mm 4,2 km/h (1 Bft) W-SW 245 0 min 0,000 mm 0,0 UV-I 0 W/m 11,3 C 4,8 km/h (1 Bft)
05.09.2016 03:05 12,7 C 12,7 C 91 % 1016,2 hPa 0,0 mm 4,0 km/h (1 Bft) S-SW 196 0 min 0,000 mm 0,0 UV-I 0 W/m 11,3 C 6,4 km/h (2 Bft)
05.09.2016 03:06 12,7 C 12,7 C 91 % 1016,1 hPa 0,0 mm 4,3 km/h (1 Bft) SW 223 0 min 0,000 mm 0,0 UV-I 0 W/m 11,3 C 8,0 km/h (2 Bft)
05.09.2016 03:07 12,7 C 12,7 C 91 % 1016,1 hPa 0,0 mm 4,5 km/h (1 Bft) S-SW 213 0 min 0,000 mm 0,0 UV-I 0 W/m 11,3 C 9,7 km/h (2 Bft)
05.09.2016 03:08 12,7 C 12,7 C 91 % 1016,1 hPa 0,0 mm 5,6 km/h (1 Bft) W-SW 239 0 min 0,000 mm 0,0 UV-I 0 W/m 11,3 C 9,7 km/h (2 Bft)
05.09.2016 03:09 12,7 C 12,7 C 91 % 1016,0 hPa 0,0 mm 4,6 km/h (1 Bft) W-SW 247 0 min 0,000 mm 0,0 UV-I 0 W/m 11,3 C 6,4 km/h (2 Bft)
05.09.2016 03:10 12,7 C 12,7 C 91 % 1016,0 hPa 0,0 mm 2,8 km/h (1 Bft) S-SW 200 0 min 0,000 mm 0,0 UV-I 0 W/m 11,3 C 4,8 km/h (1 Bft)
05.09.2016 03:11 12,7 C 12,7 C 91 % 1016,1 hPa 0,0 mm 2,1 km/h (1 Bft) W-SW 242 0 min 0,000 mm 0,0 UV-I 0 W/m 11,3 C 4,8 km/h (1 Bft)
05.09.2016 03:12 12,7 C 12,7 C 91 % 1016,1 hPa 0,0 mm 3,0 km/h (1 Bft) W-SW 257 0 min 0,000 mm 0,0 UV-I 0 W/m 11,3 C 4,8 km/h (1 Bft)
05.09.2016 03:13 12,7 C 12,7 C 91 % 1016,1 hPa 0,0 mm 5,1 km/h (1 Bft) S-SW 201 0 min 0,000 mm 0,0 UV-I 0 W/m 11,3 C 8,0 km/h (2 Bft)
05.09.2016 03:14 12,7 C 12,7 C 92 % 1016,1 hPa 0,0 mm 2,6 km/h (1 Bft) S 181 0 min 0,000 mm 0,0 UV-I 0 W/m 11,4 C 4,8 km/h (1 Bft)
05.09.2016 03:15 12,7 C 12,7 C 91 % 1016,1 hPa 0,0 mm 4,8 km/h (1 Bft) S-SW 201 0 min 0,000 mm 0,0 UV-I 0 W/m 11,3 C 9,7 km/h (2 Bft)
05.09.2016 03:16 12,6 C 12,7 C 91 % 1016,1 hPa 0,0 mm 3,8 km/h (1 Bft) W-SW 239 0 min 0,000 mm 0,0 UV-I 0 W/m 11,2 C 9,7 km/h (2 Bft)
05.09.2016 03:17 12,7 C 12,7 C 91 % 1016,1 hPa 0,0 mm 4,4 km/h (1 Bft) W-SW 246 0 min 0,000 mm 0,0 UV-I 0 W/m 11,3 C 8,0 km/h (2 Bft)
05.09.2016 03:18 12,7 C 12,7 C 91 % 1016,1 hPa 0,0 mm 1,5 km/h (1 Bft) S-SW 202 0 min 0,000 mm 0,0 UV-I 0 W/m 11,3 C 3,2 km/h (1 Bft)
05.09.2016 03:19 12,7 C 12,7 C 91 % 1016,1 hPa 0,0 mm 4,9 km/h (1 Bft) SW 232 0 min 0,000 mm 0,0 UV-I 0 W/m 11,3 C 8,0 km/h (2 Bft)
05.09.2016 03:20 12,7 C 12,7 C 91 % 1016,1 hPa 0,0 mm 4,7 km/h (1 Bft) W-SW 241 0 min 0,000 mm 0,0 UV-I 0 W/m 11,3 C 8,0 km/h (2 Bft)
05.09.2016 03:21 12,7 C 12,7 C 91 % 1016,1 hPa 0,0 mm 2,5 km/h (1 Bft) SW 222 0 min 0,000 mm 0,0 UV-I 0 W/m 11,3 C 4,8 km/h (1 Bft)
05.09.2016 03:22 12,7 C 12,7 C 91 % 1016,1 hPa 0,0 mm 2,7 km/h (1 Bft) W-SW 240 0 min 0,000 mm 0,0 UV-I 0 W/m 11,3 C 4,8 km/h (1 Bft)
05.09.2016 03:23 12,7 C 12,7 C 91 % 1016,1 hPa 0,0 mm 2,8 km/h (1 Bft) W-SW 240 0 min 0,000 mm 0,0 UV-I 0 W/m 11,3 C 4,8 km/h (1 Bft)
05.09.2016 03:24 12,7 C 12,7 C 91 % 1016,1 hPa 0,0 mm 0,2 km/h (0 Bft) W-SW 240 0 min 0,000 mm 0,0 UV-I 0 W/m 11,3 C 1,6 km/h (1 Bft)
05.09.2016 03:25 12,7 C 12,7 C 92 % 1016,2 hPa 0,2 mm 1,7 km/h (1 Bft) W-SW 244 0 min 0,000 mm 0,0 UV-I 0 W/m 11,4 C 3,2 km/h (1 Bft)
05.09.2016 03:26 12,7 C 12,7 C 92 % 1016,2 hPa 0,0 mm 4,2 km/h (1 Bft) SW 220 0 min 0,000 mm 0,0 UV-I 0 W/m 11,4 C 8,0 km/h (2 Bft)
05.09.2016 03:27 12,7 C 12,7 C 92 % 1016,2 hPa 0,0 mm 2,2 km/h (1 Bft) S-SW 205 0 min 0,000 mm 0,0 UV-I 0 W/m 11,4 C 4,8 km/h (1 Bft)
05.09.2016 03:28 12,7 C 12,7 C 92 % 1016,2 hPa 0,2 mm 2,0 km/h (1 Bft) W-SW 244 0 min 0,000 mm 0,0 UV-I 0 W/m 11,4 C 3,2 km/h (1 Bft)
05.09.2016 03:29 12,6 C 12,7 C 92 % 1016,2 hPa 0,0 mm 3,0 km/h (1 Bft) SW 234 0 min 0,000 mm 0,0 UV-I 0 W/m 11,3 C 6,4 km/h (2 Bft)
05.09.2016 03:30 12,6 C 12,6 C 92 % 1016,2 hPa 0,0 mm 1,3 km/h (1 Bft) SW 235 0 min 0,000 mm 0,0 UV-I 0 W/m 11,3 C 3,2 km/h (1 Bft)
05.09.2016 03:31 12,6 C 12,6 C 92 % 1016,2 hPa 0,0 mm 2,4 km/h (1 Bft) W-SW 246 0 min 0,000 mm 0,0 UV-I 0 W/m 11,3 C 3,2 km/h (1 Bft)
05.09.2016 03:32 12,6 C 12,6 C 92 % 1016,1 hPa 0,2 mm 1,1 km/h (1 Bft) W-NW 292 0 min 0,000 mm 0,0 UV-I 0 W/m 11,3 C 3,2 km/h (1 Bft)
05.09.2016 03:33 12,6 C 12,6 C 92 % 1016,2 hPa 0,0 mm 3,2 km/h (1 Bft) W-SW 246 0 min 0,000 mm 0,0 UV-I 0 W/m 11,3 C 4,8 km/h (1 Bft)
05.09.2016 03:34 12,6 C 12,6 C 92 % 1016,2 hPa 0,0 mm 3,5 km/h (1 Bft) S-SO 163 0 min 0,000 mm 0,0 UV-I 0 W/m 11,3 C 6,4 km/h (2 Bft)
05.09.2016 03:35 12,6 C 12,6 C 92 % 1016,1 hPa 0,0 mm 2,5 km/h (1 Bft) W-SW 250 0 min 0,000 mm 0,0 UV-I 0 W/m 11,3 C 11,3 km/h (2 Bft)
05.09.2016 03:36 12,6 C 12,6 C 92 % 1016,2 hPa 0,0 mm 4,5 km/h (1 Bft) W-SW 252 0 min 0,000 mm 0,0 UV-I 0 W/m 11,3 C 11,3 km/h (2 Bft)
05.09.2016 03:37 12,6 C 12,6 C 92 % 1016,1 hPa 0,0 mm 4,0 km/h (1 Bft) W 271 0 min 0,000 mm 0,0 UV-I 0 W/m 11,3 C 6,4 km/h (2 Bft)
05.09.2016 03:38 12,6 C 12,6 C 92 % 1016,1 hPa 0,2 mm 8,2 km/h (2 Bft) W 259 0 min 0,000 mm 0,0 UV-I 0 W/m 11,3 C 16,1 km/h (3 Bft)
05.09.2016 03:39 12,7 C 12,7 C 92 % 1016,1 hPa 0,0 mm 5,8 km/h (2 Bft) W-SW 239 0 min 0,000 mm 0,0 UV-I 0 W/m 11,4 C 8,0 km/h (2 Bft)
05.09.2016 03:40 12,6 C 12,7 C 92 % 1016,1 hPa 0,0 mm 4,1 km/h (1 Bft) SW 233 0 min 0,000 mm 0,0 UV-I 0 W/m 11,3 C 9,7 km/h (2 Bft)
05.09.2016 03:41 12,7 C 12,7 C 92 % 1016,1 hPa 0,0 mm 3,8 km/h (1 Bft) W 267 0 min 0,000 mm 0,0 UV-I 0 W/m 11,4 C 9,7 km/h (2 Bft)
05.09.2016 03:42 12,6 C 12,7 C 92 % 1016,1 hPa 0,2 mm 2,3 km/h (1 Bft) W-NW 284 0 min 0,000 mm 0,0 UV-I 0 W/m 11,3 C 3,2 km/h (1 Bft)
05.09.2016 03:43 12,6 C 12,7 C 92 % 1016,1 hPa 0,0 mm 2,7 km/h (1 Bft) SW 215 0 min 0,000 mm 0,0 UV-I 0 W/m 11,3 C 4,8 km/h (1 Bft)
05.09.2016 03:44 12,6 C 12,7 C 92 % 1016,0 hPa 0,0 mm 2,3 km/h (1 Bft) W-SW 238 0 min 0,000 mm 0,0 UV-I 0 W/m 11,3 C 3,2 km/h (1 Bft)
05.09.2016 03:45 12,6 C 12,6 C 92 % 1016,0 hPa 0,0 mm 3,4 km/h (1 Bft) SW 235 0 min 0,000 mm 0,0 UV-I 0 W/m 11,3 C 6,4 km/h (2 Bft)
05.09.2016 03:46 12,6 C 12,6 C 92 % 1016,1 hPa 0,2 mm 3,6 km/h (1 Bft) S-SW 213 0 min 0,000 mm 0,0 UV-I 0 W/m 11,3 C 4,8 km/h (1 Bft)
05.09.2016 03:47 12,6 C 12,6 C 92 % 1016,1 hPa 0,2 mm 3,1 km/h (1 Bft) S-SW 207 0 min 0,000 mm 0,0 UV-I 0 W/m 11,3 C 6,4 km/h (2 Bft)
05.09.2016 03:48 12,6 C 12,6 C 92 % 1016,0 hPa 0,0 mm 2,0 km/h (1 Bft) S-SW 207 0 min 0,000 mm 0,0 UV-I 0 W/m 11,3 C 6,4 km/h (2 Bft)
05.09.2016 03:49 12,6 C 12,6 C 92 % 1016,0 hPa 0,2 mm 3,1 km/h (1 Bft) W-SW 250 0 min 0,000 mm 0,0 UV-I 0 W/m 11,3 C 4,8 km/h (1 Bft)
05.09.2016 03:50 12,6 C 12,6 C 92 % 1016,0 hPa 0,0 mm 6,6 km/h (2 Bft) W-SW 248 0 min 0,000 mm 0,0 UV-I 0 W/m 11,3 C 12,9 km/h (3 Bft)
05.09.2016 03:51 12,6 C 12,6 C 92 % 1016,0 hPa 0,0 mm 5,0 km/h (1 Bft) W-SW 248 0 min 0,000 mm 0,0 UV-I 0 W/m 11,3 C 6,4 km/h (2 Bft)
05.09.2016 03:52 12,6 C 12,6 C 92 % 1016,1 hPa 0,0 mm 1,9 km/h (1 Bft) W-SW 248 0 min 0,000 mm 0,0 UV-I 0 W/m 11,3 C 4,8 km/h (1 Bft)
05.09.2016 03:53 12,6 C 12,6 C 92 % 1016,0 hPa 0,0 mm 1,2 km/h (1 Bft) W 260 0 min 0,000 mm 0,0 UV-I 0 W/m 11,3 C 3,2 km/h (1 Bft)
05.09.2016 03:54 12,5 C 12,6 C 92 % 1016,0 hPa 0,2 mm 3,4 km/h (1 Bft) SW 235 0 min 0,000 mm 0,0 UV-I 0 W/m 11,2 C 4,8 km/h (1 Bft)
05.09.2016 03:55 12,5 C 12,5 C 92 % 1016,0 hPa 0,0 mm 5,6 km/h (1 Bft) W-NW 291 0 min 0,000 mm 0,0 UV-I 0 W/m 11,2 C 12,9 km/h (3 Bft)
05.09.2016 03:56 12,5 C 12,5 C 92 % 1016,1 hPa 0,0 mm 4,1 km/h (1 Bft) S-SW 207 0 min 0,000 mm 0,0 UV-I 0 W/m 11,2 C 6,4 km/h (2 Bft)
05.09.2016 03:57 12,5 C 12,5 C 93 % 1016,0 hPa 0,0 mm 3,1 km/h (1 Bft) W-NW 290 0 min 0,000 mm 0,0 UV-I 0 W/m 11,4 C 4,8 km/h (1 Bft)
05.09.2016 03:58 12,5 C 12,5 C 92 % 1016,1 hPa 0,0 mm 2,8 km/h (1 Bft) W 267 0 min 0,000 mm 0,0 UV-I 0 W/m 11,2 C 4,8 km/h (1 Bft)
05.09.2016 03:59 12,5 C 12,5 C 92 % 1016,1 hPa 0,0 mm 2,1 km/h (1 Bft) W-NW 293 0 min 0,000 mm 0,0 UV-I 0 W/m 11,2 C 3,2 km/h (1 Bft)
05.09.2016 04:00 12,5 C 12,5 C 92 % 1016,1 hPa 0,0 mm 4,6 km/h (1 Bft) W-SW 258 0 min 0,000 mm 0,0 UV-I 0 W/m 11,2 C 6,4 km/h (2 Bft)
05.09.2016 04:01 12,5 C 12,5 C 92 % 1016,1 hPa 0,0 mm 3,8 km/h (1 Bft) W-SW 239 0 min 0,000 mm 0,0 UV-I 0 W/m 11,2 C 6,4 km/h (2 Bft)
05.09.2016 04:02 12,5 C 12,5 C 92 % 1016,0 hPa 0,0 mm 3,4 km/h (1 Bft) SW 228 0 min 0,000 mm 0,0 UV-I 0 W/m 11,2 C 4,8 km/h (1 Bft)
05.09.2016 04:03 12,5 C 12,5 C 92 % 1016,1 hPa 0,0 mm 8,1 km/h (2 Bft) W-SW 255 0 min 0,000 mm 0,0 UV-I 0 W/m 11,2 C 14,5 km/h (3 Bft)
05.09.2016 04:04 12,5 C 12,6 C 92 % 1016,1 hPa 0,0 mm 9,3 km/h (2 Bft) S-SO 154 0 min 0,000 mm 0,0 UV-I 0 W/m 11,2 C 11,3 km/h (2 Bft)
05.09.2016 04:05 12,6 C 12,6 C 92 % 1016,1 hPa 0,0 mm 8,3 km/h (2 Bft) W 271 0 min 0,000 mm 0,0 UV-I 0 W/m 11,3 C 14,5 km/h (3 Bft)
05.09.2016 04:06 12,6 C 12,6 C 92 % 1016,1 hPa 0,0 mm 6,7 km/h (2 Bft) SW 217 0 min 0,000 mm 0,0 UV-I 0 W/m 11,3 C 9,7 km/h (2 Bft)
05.09.2016 04:07 12,6 C 12,6 C 92 % 1016,2 hPa 0,0 mm 8,8 km/h (2 Bft) W 265 0 min 0,000 mm 0,0 UV-I 0 W/m 11,3 C 14,5 km/h (3 Bft)
05.09.2016 04:08 12,6 C 12,6 C 92 % 1016,2 hPa 0,0 mm 13,7 km/h (3 Bft) W 269 0 min 0,000 mm 0,0 UV-I 0 W/m 11,3 C 22,5 km/h (4 Bft)
05.09.2016 04:09 12,6 C 12,6 C 91 % 1016,2 hPa 0,0 mm 10,6 km/h (2 Bft) W 261 0 min 0,000 mm 0,0 UV-I 0 W/m 11,2 C 16,1 km/h (3 Bft)
05.09.2016 04:10 12,6 C 12,6 C 91 % 1016,2 hPa 0,0 mm 14,6 km/h (3 Bft) W 263 0 min 0,000 mm 0,0 UV-I 0 W/m 11,2 C 22,5 km/h (4 Bft)
05.09.2016 04:11 12,7 C 12,7 C 91 % 1016,3 hPa 0,0 mm 13,6 km/h (3 Bft) W 267 0 min 0,000 mm 0,0 UV-I 0 W/m 11,3 C 19,3 km/h (3 Bft)
05.09.2016 04:12 12,7 C 12,7 C 91 % 1016,3 hPa 0,0 mm 10,1 km/h (2 Bft) W-NW 290 0 min 0,000 mm 0,0 UV-I 0 W/m 11,3 C 19,3 km/h (3 Bft)
05.09.2016 04:13 12,7 C 12,7 C 91 % 1016,4 hPa 0,0 mm 12,9 km/h (3 Bft) W-SW 246 0 min 0,000 mm 0,0 UV-I 0 W/m 11,3 C 24,1 km/h (4 Bft)
05.09.2016 04:14 12,7 C 12,7 C 91 % 1016,5 hPa 0,0 mm 12,1 km/h (2 Bft) W-SW 246 0 min 0,000 mm 0,0 UV-I 0 W/m 11,3 C 20,9 km/h (4 Bft)
05.09.2016 04:15 12,6 C 12,7 C 91 % 1016,4 hPa 0,0 mm 8,6 km/h (2 Bft) W-SW 238 0 min 0,000 mm 0,0 UV-I 0 W/m 11,2 C 14,5 km/h (3 Bft)
05.09.2016 04:16 12,7 C 12,7 C 91 % 1016,3 hPa 0,0 mm 8,2 km/h (2 Bft) NW 314 0 min 0,000 mm 0,0 UV-I 0 W/m 11,3 C 14,5 km/h (3 Bft)
05.09.2016 04:17 12,6 C 12,7 C 91 % 1016,3 hPa 0,0 mm 6,3 km/h (2 Bft) W-SW 237 0 min 0,000 mm 0,0 UV-I 0 W/m 11,2 C 9,7 km/h (2 Bft)
05.09.2016 04:18 12,6 C 12,7 C 92 % 1016,4 hPa 0,0 mm 8,1 km/h (2 Bft) SW 233 0 min 0,000 mm 0,0 UV-I 0 W/m 11,3 C 14,5 km/h (3 Bft)
05.09.2016 04:19 12,6 C 12,6 C 92 % 1016,4 hPa 0,0 mm 9,8 km/h (2 Bft) S 176 0 min 0,000 mm 0,0 UV-I 0 W/m 11,3 C 17,7 km/h (3 Bft)
05.09.2016 04:20 12,6 C 12,6 C 91 % 1016,3 hPa 0,0 mm 5,8 km/h (2 Bft) W-SW 257 0 min 0,000 mm 0,0 UV-I 0 W/m 11,2 C 16,1 km/h (3 Bft)
05.09.2016 04:21 12,6 C 12,6 C 91 % 1016,4 hPa 0,0 mm 9,7 km/h (2 Bft) W-SW 240 0 min 0,000 mm 0,0 UV-I 0 W/m 11,2 C 16,1 km/h (3 Bft)
05.09.2016 04:22 12,6 C 12,6 C 91 % 1016,4 hPa 0,0 mm 6,6 km/h (2 Bft) S 182 0 min 0,000 mm 0,0 UV-I 0 W/m 11,2 C 14,5 km/h (3 Bft)
05.09.2016 04:23 12,6 C 12,6 C 92 % 1016,3 hPa 0,0 mm 5,8 km/h (2 Bft) SW 232 0 min 0,000 mm 0,0 UV-I 0 W/m 11,3 C 11,3 km/h (2 Bft)
05.09.2016 04:24 12,6 C 12,6 C 92 % 1016,4 hPa 0,2 mm 9,6 km/h (2 Bft) S 183 0 min 0,000 mm 0,0 UV-I 0 W/m 11,3 C 16,1 km/h (3 Bft)
05.09.2016 04:25 12,6 C 12,6 C 91 % 1016,3 hPa 0,0 mm 8,5 km/h (2 Bft) W-SW 253 0 min 0,000 mm 0,0 UV-I 0 W/m 11,2 C 14,5 km/h (3 Bft)
05.09.2016 04:26 12,7 C 12,7 C 92 % 1016,3 hPa 0,0 mm 11,6 km/h (2 Bft) N 360 0 min 0,000 mm 0,0 UV-I 0 W/m 11,4 C 17,7 km/h (3 Bft)
05.09.2016 04:27 12,7 C 12,7 C 91 % 1016,2 hPa 0,0 mm 6,1 km/h (2 Bft) W 267 0 min 0,000 mm 0,0 UV-I 0 W/m 11,3 C 11,3 km/h (2 Bft)
05.09.2016 04:28 12,7 C 12,7 C 92 % 1016,2 hPa 0,0 mm 10,1 km/h (2 Bft) W-SW 254 0 min 0,000 mm 0,0 UV-I 0 W/m 11,4 C 17,7 km/h (3 Bft)
05.09.2016 04:29 12,6 C 12,7 C 91 % 1016,2 hPa 0,0 mm 5,9 km/h (2 Bft) NW 309 0 min 0,000 mm 0,0 UV-I 0 W/m 11,2 C 9,7 km/h (2 Bft)
05.09.2016 04:30 12,7 C 12,7 C 91 % 1016,2 hPa 0,0 mm 8,2 km/h (2 Bft) W-SW 239 0 min 0,000 mm 0,0 UV-I 0 W/m 11,3 C 14,5 km/h (3 Bft)
05.09.2016 04:31 12,7 C 12,7 C 91 % 1016,2 hPa 0,0 mm 12,9 km/h (3 Bft) W 263 0 min 0,000 mm 0,0 UV-I 0 W/m 11,3 C 19,3 km/h (3 Bft)
05.09.2016 04:32 12,6 C 12,7 C 92 % 1016,2 hPa 0,0 mm 9,3 km/h (2 Bft) NW 306 0 min 0,000 mm 0,0 UV-I 0 W/m 11,3 C 14,5 km/h (3 Bft)
05.09.2016 04:33 12,6 C 12,7 C 92 % 1016,2 hPa 0,0 mm 12,1 km/h (2 Bft) W-SW 244 0 min 0,000 mm 0,0 UV-I 0 W/m 11,3 C 20,9 km/h (4 Bft)
05.09.2016 04:34 12,7 C 12,7 C 91 % 1016,2 hPa 0,0 mm 13,7 km/h (3 Bft) SW 218 0 min 0,000 mm 0,0 UV-I 0 W/m 11,3 C 22,5 km/h (4 Bft)
05.09.2016 04:35 12,6 C 12,7 C 91 % 1016,1 hPa 0,0 mm 10,1 km/h (2 Bft) W 264 0 min 0,000 mm 0,0 UV-I 0 W/m 11,2 C 16,1 km/h (3 Bft)
05.09.2016 04:36 12,6 C 12,7 C 91 % 1016,2 hPa 0,0 mm 10,8 km/h (2 Bft) W 279 0 min 0,000 mm 0,0 UV-I 0 W/m 11,2 C 17,7 km/h (3 Bft)
05.09.2016 04:37 12,6 C 12,7 C 91 % 1016,3 hPa 0,0 mm 9,5 km/h (2 Bft) W-SW 258 0 min 0,000 mm 0,0 UV-I 0 W/m 11,2 C 14,5 km/h (3 Bft)
05.09.2016 04:38 12,7 C 12,7 C 91 % 1016,3 hPa 0,2 mm 9,5 km/h (2 Bft) W-SW 255 0 min 0,000 mm 0,0 UV-I 0 W/m 11,3 C 16,1 km/h (3 Bft)
05.09.2016 04:39 12,6 C 12,7 C 91 % 1016,3 hPa 0,0 mm 10,1 km/h (2 Bft) W-NW 293 0 min 0,000 mm 0,0 UV-I 0 W/m 11,2 C 16,1 km/h (3 Bft)
05.09.2016 04:40 12,6 C 12,6 C 91 % 1016,3 hPa 0,0 mm 6,9 km/h (2 Bft) S-SW 208 0 min 0,000 mm 0,0 UV-I 0 W/m 11,2 C 11,3 km/h (2 Bft)
05.09.2016 04:41 12,6 C 12,6 C 91 % 1016,3 hPa 0,0 mm 7,6 km/h (2 Bft) W 264 0 min 0,000 mm 0,0 UV-I 0 W/m 11,2 C 12,9 km/h (3 Bft)
05.09.2016 04:42 12,6 C 12,6 C 91 % 1016,4 hPa 0,0 mm 7,5 km/h (2 Bft) SW 214 0 min 0,000 mm 0,0 UV-I 0 W/m 11,2 C 14,5 km/h (3 Bft)
05.09.2016 04:43 12,6 C 12,6 C 91 % 1016,4 hPa 0,0 mm 7,7 km/h (2 Bft) NW 317 0 min 0,000 mm 0,0 UV-I 0 W/m 11,2 C 16,1 km/h (3 Bft)
05.09.2016 04:44 12,6 C 12,6 C 91 % 1016,3 hPa 0,0 mm 9,1 km/h (2 Bft) W-SW 249 0 min 0,000 mm 0,0 UV-I 0 W/m 11,2 C 22,5 km/h (4 Bft)
05.09.2016 04:45 12,6 C 12,6 C 91 % 1016,3 hPa 0,0 mm 5,6 km/h (1 Bft) W 265 0 min 0,000 mm 0,0 UV-I 0 W/m 11,2 C 8,0 km/h (2 Bft)
05.09.2016 04:46 12,5 C 12,6 C 91 % 1016,3 hPa 0,0 mm 6,6 km/h (2 Bft) W-SW 245 0 min 0,000 mm 0,0 UV-I 0 W/m 11,1 C 9,7 km/h (2 Bft)
05.09.2016 04:47 12,6 C 12,6 C 91 % 1016,3 hPa 0,0 mm 7,4 km/h (2 Bft) W 263 0 min 0,000 mm 0,0 UV-I 0 W/m 11,2 C 12,9 km/h (3 Bft)
05.09.2016 04:48 12,5 C 12,6 C 91 % 1016,3 hPa 0,0 mm 9,3 km/h (2 Bft) SW 236 0 min 0,000 mm 0,0 UV-I 0 W/m 11,1 C 12,9 km/h (3 Bft)
05.09.2016 04:49 12,6 C 12,6 C 91 % 1016,3 hPa 0,2 mm 8,8 km/h (2 Bft) S 174 0 min 0,000 mm 0,0 UV-I 0 W/m 11,2 C 16,1 km/h (3 Bft)
05.09.2016 04:50 12,5 C 12,6 C 91 % 1016,3 hPa 0,0 mm 9,7 km/h (2 Bft) SW 223 0 min 0,000 mm 0,0 UV-I 0 W/m 11,1 C 16,1 km/h (3 Bft)
05.09.2016 04:51 12,5 C 12,6 C 91 % 1016,3 hPa 0,0 mm 5,7 km/h (1 Bft) S 186 0 min 0,000 mm 0,0 UV-I 0 W/m 11,1 C 14,5 km/h (3 Bft)
05.09.2016 04:52 12,5 C 12,6 C 91 % 1016,4 hPa 0,0 mm 8,0 km/h (2 Bft) SW 234 0 min 0,000 mm 0,0 UV-I 0 W/m 11,1 C 14,5 km/h (3 Bft)
05.09.2016 04:53 12,5 C 12,6 C 91 % 1016,4 hPa 0,0 mm 9,9 km/h (2 Bft) S-SW 212 0 min 0,000 mm 0,0 UV-I 0 W/m 11,1 C 16,1 km/h (3 Bft)
05.09.2016 04:54 12,5 C 12,5 C 91 % 1016,4 hPa 0,0 mm 5,4 km/h (1 Bft) S-SW 213 0 min 0,000 mm 0,0 UV-I 0 W/m 11,1 C 8,0 km/h (2 Bft)
05.09.2016 04:55 12,5 C 12,5 C 91 % 1016,3 hPa 0,0 mm 9,4 km/h (2 Bft) W 264 0 min 0,000 mm 0,0 UV-I 0 W/m 11,1 C 14,5 km/h (3 Bft)
05.09.2016 04:56 12,5 C 12,5 C 91 % 1016,4 hPa 0,0 mm 12,6 km/h (3 Bft) W 270 0 min 0,000 mm 0,0 UV-I 0 W/m 11,1 C 24,1 km/h (4 Bft)
05.09.2016 04:57 12,5 C 12,6 C 91 % 1016,4 hPa 0,0 mm 10,7 km/h (2 Bft) S-SW 212 0 min 0,000 mm 0,0 UV-I 0 W/m 11,1 C 19,3 km/h (3 Bft)
05.09.2016 04:58 12,5 C 12,6 C 91 % 1016,3 hPa 0,2 mm 6,4 km/h (2 Bft) S-SW 198 0 min 0,000 mm 0,0 UV-I 0 W/m 11,1 C 14,5 km/h (3 Bft)
05.09.2016 04:59 12,5 C 12,5 C 91 % 1016,3 hPa 0,0 mm 8,2 km/h (2 Bft) S-SW 204 0 min 0,000 mm 0,0 UV-I 0 W/m 11,1 C 20,9 km/h (4 Bft)
05.09.2016 05:00 12,5 C 12,5 C 91 % 1016,3 hPa 0,0 mm 9,7 km/h (2 Bft) S-SW 209 0 min 0,025 mm 0,0 UV-I 0 W/m 11,1 C 19,3 km/h (3 Bft)
05.09.2016 05:01 12,6 C 12,6 C 91 % 1016,2 hPa 0,0 mm 10,1 km/h (2 Bft) S-SO 155 0 min 0,000 mm 0,0 UV-I 0 W/m 11,2 C 16,1 km/h (3 Bft)
05.09.2016 05:02 12,5 C 12,6 C 91 % 1016,2 hPa 0,0 mm 8,6 km/h (2 Bft) W-SW 239 0 min 0,000 mm 0,0 UV-I 0 W/m 11,1 C 14,5 km/h (3 Bft)
05.09.2016 05:03 12,5 C 12,6 C 91 % 1016,2 hPa 0,0 mm 8,5 km/h (2 Bft) S 177 0 min 0,000 mm 0,0 UV-I 0 W/m 11,1 C 14,5 km/h (3 Bft)
05.09.2016 05:04 12,5 C 12,6 C 90 % 1016,1 hPa 0,0 mm 9,7 km/h (2 Bft) SW 224 0 min 0,000 mm 0,0 UV-I 0 W/m 10,9 C 20,9 km/h (4 Bft)
05.09.2016 05:05 12,5 C 12,5 C 90 % 1016,1 hPa 0,0 mm 6,9 km/h (2 Bft) W 268 0 min 0,000 mm 0,0 UV-I 0 W/m 10,9 C 14,5 km/h (3 Bft)
05.09.2016 05:06 12,5 C 12,5 C 89 % 1016,2 hPa 0,0 mm 11,9 km/h (2 Bft) SW 224 0 min 0,000 mm 0,0 UV-I 0 W/m 10,7 C 29,0 km/h (5 Bft)
05.09.2016 05:07 12,5 C 12,5 C 89 % 1016,2 hPa 0,0 mm 7,8 km/h (2 Bft) SW 232 0 min 0,000 mm 0,0 UV-I 0 W/m 10,7 C 14,5 km/h (3 Bft)
05.09.2016 05:08 12,5 C 12,5 C 89 % 1016,2 hPa 0,0 mm 5,8 km/h (2 Bft) W-SW 239 0 min 0,000 mm 0,0 UV-I 0 W/m 10,7 C 9,7 km/h (2 Bft)
05.09.2016 05:09 12,4 C 12,5 C 89 % 1016,2 hPa 0,0 mm 7,7 km/h (2 Bft) S-SW 205 0 min 0,000 mm 0,0 UV-I 0 W/m 10,6 C 14,5 km/h (3 Bft)
05.09.2016 05:10 12,4 C 12,4 C 89 % 1016,2 hPa 0,0 mm 10,1 km/h (2 Bft) W 259 0 min 0,000 mm 0,0 UV-I 0 W/m 10,6 C 17,7 km/h (3 Bft)
05.09.2016 05:11 12,4 C 12,4 C 89 % 1016,2 hPa 0,0 mm 9,9 km/h (2 Bft) S-SW 209 0 min 0,000 mm 0,0 UV-I 0 W/m 10,6 C 17,7 km/h (3 Bft)
05.09.2016 05:12 12,4 C 12,4 C 88 % 1016,3 hPa 0,0 mm 5,7 km/h (1 Bft) SW 222 0 min 0,000 mm 0,0 UV-I 0 W/m 10,5 C 14,5 km/h (3 Bft)
05.09.2016 05:13 12,3 C 12,4 C 88 % 1016,3 hPa 0,0 mm 12,3 km/h (3 Bft) SW 220 0 min 0,000 mm 0,0 UV-I 0 W/m 10,4 C 25,7 km/h (4 Bft)
05.09.2016 05:14 12,3 C 12,3 C 88 % 1016,3 hPa 0,0 mm 4,5 km/h (1 Bft) W-SW 240 0 min 0,000 mm 0,0 UV-I 0 W/m 10,4 C 6,4 km/h (2 Bft)
05.09.2016 05:15 12,3 C 12,3 C 89 % 1016,2 hPa 0,0 mm 5,7 km/h (1 Bft) S-SW 209 0 min 0,000 mm 0,0 UV-I 0 W/m 10,5 C 11,3 km/h (2 Bft)
05.09.2016 05:16 12,3 C 12,3 C 89 % 1016,2 hPa 0,0 mm 4,4 km/h (1 Bft) W-SW 253 0 min 0,000 mm 0,0 UV-I 0 W/m 10,5 C 6,4 km/h (2 Bft)
05.09.2016 05:17 12,2 C 12,3 C 89 % 1016,2 hPa 0,2 mm 8,5 km/h (2 Bft) S-SW 207 0 min 0,000 mm 0,0 UV-I 0 W/m 10,4 C 16,1 km/h (3 Bft)
05.09.2016 05:18 12,2 C 12,2 C 88 % 1016,3 hPa 0,0 mm 3,6 km/h (1 Bft) W 279 0 min 0,000 mm 0,0 UV-I 0 W/m 10,3 C 8,0 km/h (2 Bft)
05.09.2016 05:19 12,2 C 12,2 C 88 % 1016,2 hPa 0,0 mm 6,2 km/h (2 Bft) W-SW 244 0 min 0,000 mm 0,0 UV-I 0 W/m 10,3 C 12,9 km/h (3 Bft)
05.09.2016 05:20 12,2 C 12,2 C 88 % 1016,3 hPa 0,0 mm 5,1 km/h (1 Bft) SW 219 0 min 0,000 mm 0,0 UV-I 0 W/m 10,3 C 9,7 km/h (2 Bft)
05.09.2016 05:21 12,2 C 12,2 C 88 % 1016,3 hPa 0,0 mm 4,6 km/h (1 Bft) W-SW 243 0 min 0,000 mm 0,0 UV-I 0 W/m 10,3 C 12,9 km/h (3 Bft)
05.09.2016 05:22 12,2 C 12,2 C 88 % 1016,3 hPa 0,0 mm 3,7 km/h (1 Bft) W 274 0 min 0,000 mm 0,0 UV-I 0 W/m 10,3 C 8,0 km/h (2 Bft)
05.09.2016 05:23 12,2 C 12,2 C 88 % 1016,3 hPa 0,0 mm 4,0 km/h (1 Bft) W-SW 243 0 min 0,000 mm 0,0 UV-I 0 W/m 10,3 C 6,4 km/h (2 Bft)
05.09.2016 05:24 12,1 C 12,2 C 88 % 1016,3 hPa 0,0 mm 4,3 km/h (1 Bft) W-SW 248 0 min 0,000 mm 0,0 UV-I 0 W/m 10,2 C 6,4 km/h (2 Bft)
05.09.2016 05:25 12,1 C 12,2 C 88 % 1016,3 hPa 0,0 mm 3,0 km/h (1 Bft) W-SW 248 0 min 0,000 mm 0,0 UV-I 0 W/m 10,2 C 4,8 km/h (1 Bft)
05.09.2016 05:26 12,1 C 12,2 C 88 % 1016,2 hPa 0,0 mm 4,7 km/h (1 Bft) W-SW 246 0 min 0,000 mm 0,0 UV-I 0 W/m 10,2 C 14,5 km/h (3 Bft)
05.09.2016 05:27 12,1 C 12,1 C 88 % 1016,3 hPa 0,0 mm 7,0 km/h (2 Bft) S-SW 194 0 min 0,000 mm 0,0 UV-I 0 W/m 10,2 C 14,5 km/h (3 Bft)
05.09.2016 05:28 12,1 C 12,1 C 87 % 1016,2 hPa 0,0 mm 4,0 km/h (1 Bft) SO 146 0 min 0,000 mm 0,0 UV-I 0 W/m 10,0 C 6,4 km/h (2 Bft)
05.09.2016 05:29 12,1 C 12,1 C 88 % 1016,2 hPa 0,0 mm 4,4 km/h (1 Bft) SW 227 0 min 0,000 mm 0,0 UV-I 0 W/m 10,2 C 8,0 km/h (2 Bft)
05.09.2016 05:30 12,1 C 12,1 C 88 % 1016,2 hPa 0,0 mm 4,4 km/h (1 Bft) W 275 0 min 0,000 mm 0,0 UV-I 0 W/m 10,2 C 8,0 km/h (2 Bft)
05.09.2016 05:31 12,1 C 12,1 C 87 % 1016,2 hPa 0,0 mm 4,4 km/h (1 Bft) S-SW 201 0 min 0,000 mm 0,0 UV-I 0 W/m 10,0 C 6,4 km/h (2 Bft)
05.09.2016 05:32 12,1 C 12,1 C 87 % 1016,2 hPa 0,0 mm 4,1 km/h (1 Bft) SW 236 0 min 0,000 mm 0,0 UV-I 0 W/m 10,0 C 6,4 km/h (2 Bft)
05.09.2016 05:33 12,0 C 12,1 C 88 % 1016,1 hPa 0,0 mm 4,8 km/h (1 Bft) SW 234 0 min 0,000 mm 0,0 UV-I 0 W/m 10,1 C 6,4 km/h (2 Bft)
05.09.2016 05:34 12,0 C 12,1 C 87 % 1016,1 hPa 0,0 mm 5,2 km/h (1 Bft) SW 216 0 min 0,000 mm 0,0 UV-I 0 W/m 9,9 C 8,0 km/h (2 Bft)
05.09.2016 05:35 12,0 C 12,0 C 87 % 1016,1 hPa 0,0 mm 4,9 km/h (1 Bft) S 180 0 min 0,000 mm 0,0 UV-I 0 W/m 9,9 C 8,0 km/h (2 Bft)
05.09.2016 05:36 12,0 C 12,1 C 86 % 1016,1 hPa 0,0 mm 5,3 km/h (1 Bft) W-SW 246 0 min 0,000 mm 0,0 UV-I 0 W/m 9,7 C 11,3 km/h (2 Bft)
05.09.2016 05:37 12,1 C 12,1 C 86 % 1016,0 hPa 0,0 mm 4,4 km/h (1 Bft) W 266 0 min 0,000 mm 0,0 UV-I 0 W/m 9,8 C 11,3 km/h (2 Bft)
05.09.2016 05:38 12,1 C 12,1 C 86 % 1016,0 hPa 0,0 mm 4,4 km/h (1 Bft) W 272 0 min 0,000 mm 0,0 UV-I 0 W/m 9,8 C 9,7 km/h (2 Bft)
05.09.2016 05:39 12,1 C 12,1 C 87 % 1016,0 hPa 0,0 mm 4,8 km/h (1 Bft) W 269 0 min 0,000 mm 0,0 UV-I 0 W/m 10,0 C 9,7 km/h (2 Bft)
05.09.2016 05:40 12,0 C 12,1 C 88 % 1016,0 hPa 0,0 mm 6,2 km/h (2 Bft) W-NW 282 0 min 0,000 mm 0,0 UV-I 0 W/m 10,1 C 11,3 km/h (2 Bft)
05.09.2016 05:41 11,9 C 12,0 C 88 % 1016,0 hPa 0,0 mm 4,3 km/h (1 Bft) W-SW 250 0 min 0,000 mm 0,0 UV-I 0 W/m 10,0 C 6,4 km/h (2 Bft)
05.09.2016 05:42 11,9 C 11,9 C 88 % 1016,1 hPa 0,0 mm 8,1 km/h (2 Bft) W 270 0 min 0,000 mm 0,0 UV-I 0 W/m 10,0 C 11,3 km/h (2 Bft)
05.09.2016 05:43 11,9 C 11,9 C 87 % 1016,0 hPa 0,0 mm 6,6 km/h (2 Bft) SW 228 0 min 0,000 mm 0,0 UV-I 0 W/m 9,8 C 11,3 km/h (2 Bft)
05.09.2016 05:44 11,9 C 11,9 C 88 % 1016,0 hPa 0,0 mm 8,9 km/h (2 Bft) S-SW 208 0 min 0,000 mm 0,0 UV-I 0 W/m 10,0 C 12,9 km/h (3 Bft)
05.09.2016 05:45 11,8 C 11,9 C 88 % 1015,9 hPa 0,0 mm 8,9 km/h (2 Bft) W-SW 255 0 min 0,000 mm 0,0 UV-I 0 W/m 9,9 C 12,9 km/h (3 Bft)
05.09.2016 05:46 11,8 C 11,8 C 88 % 1016,0 hPa 0,0 mm 6,1 km/h (2 Bft) W-SW 246 0 min 0,000 mm 0,0 UV-I 0 W/m 9,9 C 11,3 km/h (2 Bft)
05.09.2016 05:47 11,8 C 11,8 C 87 % 1015,9 hPa 0,0 mm 2,8 km/h (1 Bft) S 191 0 min 0,000 mm 0,0 UV-I 0 W/m 9,7 C 4,8 km/h (1 Bft)
05.09.2016 05:48 11,8 C 11,8 C 87 % 1015,9 hPa 0,2 mm 7,3 km/h (2 Bft) W 272 0 min 0,000 mm 0,0 UV-I 0 W/m 9,7 C 16,1 km/h (3 Bft)
05.09.2016 05:49 11,9 C 11,9 C 87 % 1015,9 hPa 0,0 mm 5,7 km/h (1 Bft) W-SW 240 0 min 0,000 mm 0,0 UV-I 0 W/m 9,8 C 12,9 km/h (3 Bft)
05.09.2016 05:50 11,9 C 11,9 C 85 % 1015,9 hPa 0,0 mm 6,4 km/h (2 Bft) NW 306 0 min 0,000 mm 0,0 UV-I 0 W/m 9,5 C 12,9 km/h (3 Bft)
05.09.2016 05:51 11,9 C 11,9 C 86 % 1015,9 hPa 0,0 mm 10,5 km/h (2 Bft) W-SW 251 0 min 0,000 mm 0,0 UV-I 0 W/m 9,6 C 17,7 km/h (3 Bft)
05.09.2016 05:52 11,9 C 11,9 C 85 % 1015,9 hPa 0,0 mm 10,3 km/h (2 Bft) W-SW 242 0 min 0,000 mm 0,0 UV-I 0 W/m 9,5 C 14,5 km/h (3 Bft)
05.09.2016 05:53 12,0 C 12,0 C 85 % 1016,0 hPa 0,0 mm 4,1 km/h (1 Bft) W 263 0 min 0,000 mm 0,0 UV-I 0 W/m 9,6 C 4,8 km/h (1 Bft)
05.09.2016 05:54 11,9 C 12,0 C 86 % 1015,9 hPa 0,0 mm 8,1 km/h (2 Bft) SW 218 0 min 0,000 mm 0,0 UV-I 0 W/m 9,6 C 11,3 km/h (2 Bft)
05.09.2016 05:55 11,9 C 11,9 C 85 % 1016,1 hPa 0,0 mm 6,6 km/h (2 Bft) W-SW 238 0 min 0,000 mm 0,0 UV-I 0 W/m 9,5 C 11,3 km/h (2 Bft)
05.09.2016 05:56 11,9 C 11,9 C 86 % 1016,0 hPa 0,0 mm 8,2 km/h (2 Bft) SW 217 0 min 0,000 mm 0,0 UV-I 0 W/m 9,6 C 12,9 km/h (3 Bft)
05.09.2016 05:57 11,9 C 11,9 C 85 % 1016,1 hPa 0,0 mm 5,3 km/h (1 Bft) W 279 0 min 0,000 mm 0,0 UV-I 0 W/m 9,5 C 8,0 km/h (2 Bft)
05.09.2016 05:58 11,9 C 11,9 C 85 % 1016,1 hPa 0,0 mm 8,1 km/h (2 Bft) W-SW 240 0 min 0,000 mm 0,0 UV-I 0 W/m 9,5 C 14,5 km/h (3 Bft)
05.09.2016 05:59 11,9 C 11,9 C 85 % 1016,1 hPa 0,0 mm 4,9 km/h (1 Bft) W-NW 283 0 min 0,000 mm 0,0 UV-I 0 W/m 9,5 C 9,7 km/h (2 Bft)
05.09.2016 06:00 11,9 C 11,9 C 85 % 1016,2 hPa 0,0 mm 5,8 km/h (2 Bft) W-SW 250 0 min 0,000 mm 0,0 UV-I 0 W/m 9,5 C 12,9 km/h (3 Bft)
05.09.2016 06:01 11,9 C 11,9 C 85 % 1016,2 hPa 0,0 mm 4,7 km/h (1 Bft) W-SW 241 0 min 0,025 mm 0,0 UV-I 0 W/m 9,5 C 12,9 km/h (3 Bft)
05.09.2016 06:02 11,8 C 11,9 C 85 % 1016,2 hPa 0,0 mm 7,0 km/h (2 Bft) W-SW 249 0 min 0,001 mm 0,0 UV-I 0 W/m 9,4 C 11,3 km/h (2 Bft)
05.09.2016 06:03 11,8 C 11,8 C 86 % 1016,2 hPa 0,0 mm 5,6 km/h (1 Bft) W 270 0 min 0,000 mm 0,0 UV-I 0 W/m 9,5 C 11,3 km/h (2 Bft)
05.09.2016 06:04 11,7 C 11,8 C 86 % 1016,3 hPa 0,0 mm 8,0 km/h (2 Bft) S-SW 209 0 min 0,000 mm 0,0 UV-I 0 W/m 9,4 C 14,5 km/h (3 Bft)
05.09.2016 06:05 11,7 C 11,7 C 87 % 1016,3 hPa 0,0 mm 5,0 km/h (1 Bft) SW 224 0 min 0,000 mm 0,0 UV-I 0 W/m 9,6 C 9,7 km/h (2 Bft)
05.09.2016 06:06 11,7 C 11,7 C 86 % 1016,3 hPa 0,0 mm 3,9 km/h (1 Bft) W-SW 251 0 min 0,000 mm 0,0 UV-I 0 W/m 9,4 C 4,8 km/h (1 Bft)
05.09.2016 06:07 11,6 C 11,7 C 87 % 1016,3 hPa 0,0 mm 4,6 km/h (1 Bft) W-SW 248 0 min 0,000 mm 0,0 UV-I 0 W/m 9,5 C 6,4 km/h (2 Bft)
05.09.2016 06:08 11,6 C 11,6 C 87 % 1016,3 hPa 0,0 mm 4,6 km/h (1 Bft) S 184 0 min 0,000 mm 0,0 UV-I 0 W/m 9,5 C 8,0 km/h (2 Bft)
05.09.2016 06:09 11,6 C 11,6 C 86 % 1016,3 hPa 0,0 mm 3,5 km/h (1 Bft) S 170 0 min 0,000 mm 0,0 UV-I 0 W/m 9,3 C 6,4 km/h (2 Bft)
05.09.2016 06:10 11,6 C 11,6 C 86 % 1016,3 hPa 0,0 mm 5,8 km/h (2 Bft) W-SW 250 0 min 0,000 mm 0,0 UV-I 0 W/m 9,3 C 11,3 km/h (2 Bft)
05.09.2016 06:11 11,6 C 11,7 C 86 % 1016,4 hPa 0,0 mm 10,5 km/h (2 Bft) SW 235 0 min 0,000 mm 0,0 UV-I 0 W/m 9,3 C 17,7 km/h (3 Bft)
05.09.2016 06:12 11,7 C 11,7 C 86 % 1016,3 hPa 0,0 mm 5,9 km/h (2 Bft) W 263 0 min 0,000 mm 0,0 UV-I 0 W/m 9,4 C 11,3 km/h (2 Bft)
05.09.2016 06:13 11,7 C 11,7 C 86 % 1016,3 hPa 0,0 mm 5,8 km/h (2 Bft) W-SW 242 0 min 0,000 mm 0,0 UV-I 0 W/m 9,4 C 8,0 km/h (2 Bft)
05.09.2016 06:14 11,7 C 11,7 C 86 % 1016,3 hPa 0,0 mm 7,4 km/h (2 Bft) SW 217 0 min 0,000 mm 0,0 UV-I 0 W/m 9,4 C 12,9 km/h (3 Bft)
05.09.2016 06:15 11,7 C 11,7 C 85 % 1016,4 hPa 0,0 mm 8,2 km/h (2 Bft) SW 228 0 min 0,000 mm 0,0 UV-I 0 W/m 9,3 C 16,1 km/h (3 Bft)
05.09.2016 06:16 11,7 C 11,7 C 85 % 1016,4 hPa 0,0 mm 3,2 km/h (1 Bft) W-SW 242 0 min 0,000 mm 0,0 UV-I 0 W/m 9,3 C 4,8 km/h (1 Bft)
05.09.2016 06:17 11,7 C 11,7 C 86 % 1016,4 hPa 0,0 mm 5,8 km/h (2 Bft) S 180 0 min 0,000 mm 0,0 UV-I 0 W/m 9,4 C 9,7 km/h (2 Bft)
05.09.2016 06:18 11,7 C 11,7 C 86 % 1016,4 hPa 0,0 mm 5,7 km/h (1 Bft) S 174 0 min 0,000 mm 0,0 UV-I 0 W/m 9,4 C 11,3 km/h (2 Bft)
05.09.2016 06:19 11,7 C 11,7 C 85 % 1016,4 hPa 0,0 mm 4,9 km/h (1 Bft) S-SW 202 0 min 0,000 mm 0,0 UV-I 0 W/m 9,3 C 9,7 km/h (2 Bft)
05.09.2016 06:20 11,7 C 11,7 C 85 % 1016,5 hPa 0,0 mm 6,0 km/h (2 Bft) W-SW 242 0 min 0,000 mm 0,0 UV-I 0 W/m 9,3 C 12,9 km/h (3 Bft)
05.09.2016 06:21 11,7 C 11,7 C 84 % 1016,4 hPa 0,0 mm 6,4 km/h (2 Bft) SW 215 0 min 0,000 mm 0,0 UV-I 0 W/m 9,1 C 11,3 km/h (2 Bft)
05.09.2016 06:22 11,7 C 11,7 C 85 % 1016,4 hPa 0,0 mm 3,8 km/h (1 Bft) W-SW 246 0 min 0,000 mm 0,0 UV-I 0 W/m 9,3 C 6,4 km/h (2 Bft)
05.09.2016 06:23 11,7 C 11,7 C 85 % 1016,5 hPa 0,0 mm 4,9 km/h (1 Bft) W 275 0 min 0,000 mm 0,0 UV-I 0 W/m 9,3 C 9,7 km/h (2 Bft)
05.09.2016 06:24 11,7 C 11,8 C 85 % 1016,4 hPa 0,0 mm 5,0 km/h (1 Bft) W 277 0 min 0,000 mm 0,0 UV-I 0 W/m 9,3 C 8,0 km/h (2 Bft)
05.09.2016 06:25 11,7 C 11,7 C 85 % 1016,5 hPa 0,0 mm 5,6 km/h (1 Bft) S 188 0 min 0,000 mm 0,0 UV-I 0 W/m 9,3 C 11,3 km/h (2 Bft)
05.09.2016 06:26 11,7 C 11,7 C 85 % 1016,5 hPa 0,0 mm 3,4 km/h (1 Bft) W-SW 244 0 min 0,000 mm 0,0 UV-I 0 W/m 9,3 C 8,0 km/h (2 Bft)
05.09.2016 06:27 11,7 C 11,7 C 84 % 1016,4 hPa 0,0 mm 6,3 km/h (2 Bft) S-SW 192 0 min 0,000 mm 0,0 UV-I 0 W/m 9,1 C 11,3 km/h (2 Bft)
05.09.2016 06:28 11,8 C 11,8 C 84 % 1016,5 hPa 0,0 mm 4,2 km/h (1 Bft) S 188 0 min 0,000 mm 0,0 UV-I 0 W/m 9,2 C 8,0 km/h (2 Bft)
05.09.2016 06:29 11,8 C 11,8 C 84 % 1016,4 hPa 0,0 mm 6,8 km/h (2 Bft) S-SW 201 0 min 0,000 mm 0,0 UV-I 0 W/m 9,2 C 12,9 km/h (3 Bft)
05.09.2016 06:30 11,8 C 11,8 C 85 % 1016,4 hPa 0,0 mm 4,8 km/h (1 Bft) W-SW 250 0 min 0,000 mm 0,0 UV-I 0 W/m 9,4 C 11,3 km/h (2 Bft)
05.09.2016 06:31 11,8 C 11,8 C 85 % 1016,4 hPa 0,0 mm 8,7 km/h (2 Bft) SW 229 0 min 0,000 mm 0,0 UV-I 0 W/m 9,4 C 14,5 km/h (3 Bft)
05.09.2016 06:32 11,8 C 11,8 C 84 % 1016,5 hPa 0,0 mm 7,0 km/h (2 Bft) W 260 0 min 0,000 mm 0,0 UV-I 0 W/m 9,2 C 16,1 km/h (3 Bft)
05.09.2016 06:33 11,8 C 11,8 C 85 % 1016,5 hPa 0,0 mm 5,5 km/h (1 Bft) W 265 0 min 0,000 mm 0,0 UV-I 0 W/m 9,4 C 8,0 km/h (2 Bft)
05.09.2016 06:34 11,8 C 11,8 C 85 % 1016,5 hPa 0,0 mm 8,5 km/h (2 Bft) W 270 0 min 0,000 mm 0,0 UV-I 0 W/m 9,4 C 12,9 km/h (3 Bft)
05.09.2016 06:35 11,7 C 11,8 C 85 % 1016,5 hPa 0,0 mm 7,2 km/h (2 Bft) W-SW 252 0 min 0,000 mm 0,0 UV-I 0 W/m 9,3 C 9,7 km/h (2 Bft)
05.09.2016 06:36 11,8 C 11,8 C 85 % 1016,5 hPa 0,0 mm 2,5 km/h (1 Bft) W-SW 249 0 min 0,000 mm 0,0 UV-I 0 W/m 9,4 C 6,4 km/h (2 Bft)
05.09.2016 06:37 11,7 C 11,8 C 85 % 1016,6 hPa 0,0 mm 4,6 km/h (1 Bft) W-SW 253 0 min 0,000 mm 0,0 UV-I 0 W/m 9,3 C 11,3 km/h (2 Bft)
05.09.2016 06:38 11,7 C 11,7 C 84 % 1016,5 hPa 0,0 mm 4,4 km/h (1 Bft) SW 215 0 min 0,000 mm 0,0 UV-I 0 W/m 9,1 C 6,4 km/h (2 Bft)
05.09.2016 06:39 11,8 C 11,8 C 85 % 1016,5 hPa 0,0 mm 4,9 km/h (1 Bft) SW 214 0 min 0,000 mm 0,0 UV-I 0 W/m 9,4 C 9,7 km/h (2 Bft)
05.09.2016 06:40 11,8 C 11,8 C 84 % 1016,6 hPa 0,2 mm 10,7 km/h (2 Bft) W 260 0 min 0,000 mm 0,0 UV-I 5 W/m 9,2 C 14,5 km/h (3 Bft)
05.09.2016 06:41 11,8 C 11,8 C 84 % 1016,6 hPa 0,0 mm 6,8 km/h (2 Bft) S-SW 202 0 min 0,000 mm 0,0 UV-I 5 W/m 9,2 C 11,3 km/h (2 Bft)
05.09.2016 06:42 11,8 C 11,8 C 85 % 1016,6 hPa 0,0 mm 4,3 km/h (1 Bft) W 269 0 min 0,000 mm 0,0 UV-I 7 W/m 9,4 C 9,7 km/h (2 Bft)
05.09.2016 06:43 11,8 C 11,8 C 85 % 1016,5 hPa 0,0 mm 3,6 km/h (1 Bft) W-SW 251 0 min 0,000 mm 0,0 UV-I 7 W/m 9,4 C 4,8 km/h (1 Bft)
05.09.2016 06:44 11,8 C 11,8 C 85 % 1016,5 hPa 0,0 mm 2,7 km/h (1 Bft) S-SW 192 0 min 0,000 mm 0,0 UV-I 7 W/m 9,4 C 3,2 km/h (1 Bft)
05.09.2016 06:45 11,8 C 11,8 C 84 % 1016,5 hPa 0,0 mm 3,7 km/h (1 Bft) S 173 0 min 0,000 mm 0,0 UV-I 5 W/m 9,2 C 8,0 km/h (2 Bft)
05.09.2016 06:46 11,8 C 11,8 C 84 % 1016,5 hPa 0,0 mm 4,0 km/h (1 Bft) S-SW 207 0 min 0,000 mm 0,0 UV-I 5 W/m 9,2 C 6,4 km/h (2 Bft)
05.09.2016 06:47 11,8 C 11,8 C 84 % 1016,5 hPa 0,0 mm 2,4 km/h (1 Bft) W 265 0 min 0,000 mm 0,0 UV-I 5 W/m 9,2 C 4,8 km/h (1 Bft)
05.09.2016 06:48 11,8 C 11,8 C 84 % 1016,5 hPa 0,0 mm 3,6 km/h (1 Bft) S-SW 192 0 min 0,000 mm 0,0 UV-I 7 W/m 9,2 C 8,0 km/h (2 Bft)
05.09.2016 06:49 11,8 C 11,8 C 85 % 1016,6 hPa 0,0 mm 4,6 km/h (1 Bft) S-SO 161 0 min 0,000 mm 0,0 UV-I 7 W/m 9,4 C 8,0 km/h (2 Bft)
05.09.2016 06:50 11,8 C 11,9 C 84 % 1016,5 hPa 0,0 mm 4,2 km/h (1 Bft) S-SW 210 0 min 0,000 mm 0,0 UV-I 7 W/m 9,2 C 8,0 km/h (2 Bft)
05.09.2016 06:51 11,8 C 11,8 C 86 % 1016,5 hPa 0,0 mm 4,3 km/h (1 Bft) SW 221 0 min 0,000 mm 0,0 UV-I 7 W/m 9,5 C 9,7 km/h (2 Bft)
05.09.2016 06:52 11,8 C 11,8 C 84 % 1016,5 hPa 0,0 mm 4,6 km/h (1 Bft) S-SW 208 0 min 0,000 mm 0,0 UV-I 7 W/m 9,2 C 6,4 km/h (2 Bft)
05.09.2016 06:53 11,8 C 11,8 C 84 % 1016,5 hPa 0,0 mm 3,8 km/h (1 Bft) S 179 0 min 0,000 mm 0,0 UV-I 9 W/m 9,2 C 9,7 km/h (2 Bft)
05.09.2016 06:54 11,8 C 11,8 C 85 % 1016,6 hPa 0,0 mm 3,3 km/h (1 Bft) S-SO 163 0 min 0,000 mm 0,0 UV-I 9 W/m 9,4 C 6,4 km/h (2 Bft)
05.09.2016 06:55 11,8 C 11,8 C 84 % 1016,5 hPa 0,0 mm 4,8 km/h (1 Bft) S 178 0 min 0,000 mm 0,0 UV-I 9 W/m 9,2 C 8,0 km/h (2 Bft)
05.09.2016 06:56 11,8 C 11,8 C 83 % 1016,5 hPa 0,0 mm 3,9 km/h (1 Bft) SW 224 0 min 0,000 mm 0,0 UV-I 9 W/m 9,0 C 9,7 km/h (2 Bft)
05.09.2016 06:57 11,8 C 11,8 C 84 % 1016,5 hPa 0,0 mm 3,4 km/h (1 Bft) S-SW 209 0 min 0,000 mm 0,0 UV-I 9 W/m 9,2 C 6,4 km/h (2 Bft)
05.09.2016 06:58 11,9 C 11,9 C 83 % 1016,5 hPa 0,0 mm 4,5 km/h (1 Bft) S-SO 168 0 min 0,000 mm 0,0 UV-I 11 W/m 9,1 C 6,4 km/h (2 Bft)
05.09.2016 06:59 11,9 C 11,9 C 83 % 1016,4 hPa 0,0 mm 4,1 km/h (1 Bft) W-SW 240 0 min 0,000 mm 0,0 UV-I 11 W/m 9,1 C 6,4 km/h (2 Bft)
05.09.2016 07:00 11,9 C 11,9 C 83 % 1016,4 hPa 0,0 mm 8,0 km/h (2 Bft) W-SW 244 0 min 0,000 mm 0,0 UV-I 11 W/m 9,1 C 14,5 km/h (3 Bft)
05.09.2016 07:01 11,9 C 11,9 C 83 % 1016,4 hPa 0,0 mm 5,7 km/h (1 Bft) S-SO 165 0 min 0,000 mm 0,0 UV-I 11 W/m 9,1 C 9,7 km/h (2 Bft)
05.09.2016 07:02 11,9 C 11,9 C 82 % 1016,4 hPa 0,0 mm 5,8 km/h (2 Bft) S-SW 209 0 min 0,000 mm 0,0 UV-I 12 W/m 8,9 C 12,9 km/h (3 Bft)
05.09.2016 07:03 12,0 C 12,0 C 82 % 1016,4 hPa 0,0 mm 8,8 km/h (2 Bft) S-SW 194 0 min 0,000 mm 0,0 UV-I 12 W/m 9,0 C 20,9 km/h (4 Bft)
05.09.2016 07:04 12,1 C 12,1 C 81 % 1016,4 hPa 0,0 mm 9,9 km/h (2 Bft) SW 232 0 min 0,000 mm 0,0 UV-I 12 W/m 8,9 C 14,5 km/h (3 Bft)
05.09.2016 07:05 12,1 C 12,1 C 81 % 1016,5 hPa 0,0 mm 4,0 km/h (1 Bft) W-SW 258 0 min 0,000 mm 0,0 UV-I 12 W/m 8,9 C 6,4 km/h (2 Bft)
05.09.2016 07:06 12,2 C 12,2 C 80 % 1016,4 hPa 0,0 mm 8,3 km/h (2 Bft) W-SW 254 0 min 0,000 mm 0,0 UV-I 12 W/m 8,9 C 12,9 km/h (3 Bft)
05.09.2016 07:07 12,2 C 12,2 C 80 % 1016,4 hPa 0,0 mm 7,2 km/h (2 Bft) S 178 0 min 0,000 mm 0,0 UV-I 14 W/m 8,9 C 12,9 km/h (3 Bft)
05.09.2016 07:08 12,3 C 12,3 C 81 % 1016,5 hPa 0,0 mm 4,0 km/h (1 Bft) W 266 0 min 0,000 mm 0,0 UV-I 14 W/m 9,1 C 6,4 km/h (2 Bft)
05.09.2016 07:09 12,3 C 12,3 C 81 % 1016,5 hPa 0,0 mm 5,1 km/h (1 Bft) S-SW 208 0 min 0,000 mm 0,0 UV-I 16 W/m 9,1 C 6,4 km/h (2 Bft)
05.09.2016 07:10 12,3 C 12,3 C 81 % 1016,5 hPa 0,0 mm 2,5 km/h (1 Bft) W-SW 257 0 min 0,000 mm 0,0 UV-I 16 W/m 9,1 C 6,4 km/h (2 Bft)
05.09.2016 07:11 12,3 C 12,3 C 81 % 1016,5 hPa 0,0 mm 3,0 km/h (1 Bft) SW 224 0 min 0,000 mm 0,0 UV-I 18 W/m 9,1 C 4,8 km/h (1 Bft)
05.09.2016 07:12 12,3 C 12,3 C 80 % 1016,6 hPa 0,0 mm 3,8 km/h (1 Bft) W 261 0 min 0,000 mm 0,0 UV-I 18 W/m 8,9 C 9,7 km/h (2 Bft)
05.09.2016 07:13 12,2 C 12,3 C 82 % 1016,6 hPa 0,0 mm 3,0 km/h (1 Bft) SW 224 0 min 0,000 mm 0,0 UV-I 19 W/m 9,2 C 4,8 km/h (1 Bft)
05.09.2016 07:14 12,2 C 12,2 C 81 % 1016,6 hPa 0,0 mm 3,4 km/h (1 Bft) W-SW 248 0 min 0,000 mm 0,0 UV-I 19 W/m 9,0 C 4,8 km/h (1 Bft)
05.09.2016 07:15 12,2 C 12,2 C 81 % 1016,6 hPa 0,0 mm 4,8 km/h (1 Bft) SW 224 0 min 0,000 mm 0,0 UV-I 19 W/m 9,0 C 6,4 km/h (2 Bft)
05.09.2016 07:16 12,2 C 12,2 C 81 % 1016,6 hPa 0,0 mm 3,8 km/h (1 Bft) W 273 0 min 0,000 mm 0,0 UV-I 21 W/m 9,0 C 4,8 km/h (1 Bft)
05.09.2016 07:17 12,2 C 12,2 C 82 % 1016,6 hPa 0,0 mm 4,2 km/h (1 Bft) W-SW 237 0 min 0,000 mm 0,0 UV-I 21 W/m 9,2 C 8,0 km/h (2 Bft)
05.09.2016 07:18 12,2 C 12,3 C 81 % 1016,6 hPa 0,0 mm 5,5 km/h (1 Bft) SW 234 0 min 0,000 mm 0,0 UV-I 19 W/m 9,0 C 6,4 km/h (2 Bft)
05.09.2016 07:19 12,2 C 12,3 C 81 % 1016,6 hPa 0,0 mm 4,3 km/h (1 Bft) W-SW 252 0 min 0,000 mm 0,0 UV-I 19 W/m 9,0 C 6,4 km/h (2 Bft)
05.09.2016 07:20 12,2 C 12,2 C 81 % 1016,6 hPa 0,0 mm 4,1 km/h (1 Bft) S-SW 196 0 min 0,000 mm 0,0 UV-I 19 W/m 9,0 C 6,4 km/h (2 Bft)
05.09.2016 07:21 12,2 C 12,3 C 82 % 1016,5 hPa 0,0 mm 3,5 km/h (1 Bft) S-SW 200 0 min 0,000 mm 0,0 UV-I 21 W/m 9,2 C 8,0 km/h (2 Bft)
05.09.2016 07:22 12,2 C 12,2 C 81 % 1016,5 hPa 0,0 mm 2,8 km/h (1 Bft) S-SW 198 0 min 0,000 mm 0,0 UV-I 23 W/m 9,0 C 4,8 km/h (1 Bft)
05.09.2016 07:23 12,2 C 12,2 C 80 % 1016,5 hPa 0,0 mm 3,5 km/h (1 Bft) SW 219 0 min 0,000 mm 0,0 UV-I 25 W/m 8,9 C 4,8 km/h (1 Bft)
05.09.2016 07:24 12,3 C 12,3 C 80 % 1016,5 hPa 0,0 mm 3,4 km/h (1 Bft) S 188 0 min 0,000 mm 0,0 UV-I 26 W/m 8,9 C 8,0 km/h (2 Bft)
05.09.2016 07:25 12,3 C 12,3 C 80 % 1016,5 hPa 0,0 mm 3,8 km/h (1 Bft) S-SW 197 0 min 0,000 mm 0,0 UV-I 28 W/m 8,9 C 8,0 km/h (2 Bft)
05.09.2016 07:26 12,3 C 12,3 C 81 % 1016,5 hPa 0,0 mm 3,6 km/h (1 Bft) W-SW 248 0 min 0,000 mm 0,0 UV-I 28 W/m 9,1 C 6,4 km/h (2 Bft)
05.09.2016 07:27 12,3 C 12,3 C 80 % 1016,6 hPa 0,0 mm 3,7 km/h (1 Bft) W-SW 257 0 min 0,000 mm 0,0 UV-I 28 W/m 8,9 C 4,8 km/h (1 Bft)
05.09.2016 07:28 12,3 C 12,3 C 81 % 1016,6 hPa 0,0 mm 6,5 km/h (2 Bft) W 262 0 min 0,000 mm 0,0 UV-I 30 W/m 9,1 C 14,5 km/h (3 Bft)
05.09.2016 07:29 12,3 C 12,3 C 80 % 1016,6 hPa 0,0 mm 3,6 km/h (1 Bft) W 270 0 min 0,000 mm 0,0 UV-I 30 W/m 8,9 C 6,4 km/h (2 Bft)
05.09.2016 07:30 12,3 C 12,3 C 80 % 1016,6 hPa 0,0 mm 5,4 km/h (1 Bft) W 266 0 min 0,000 mm 0,0 UV-I 32 W/m 8,9 C 9,7 km/h (2 Bft)
05.09.2016 07:31 12,3 C 12,3 C 80 % 1016,6 hPa 0,0 mm 3,8 km/h (1 Bft) W-SW 243 0 min 0,000 mm 0,0 UV-I 33 W/m 8,9 C 6,4 km/h (2 Bft)
05.09.2016 07:32 12,3 C 12,3 C 81 % 1016,6 hPa 0,0 mm 5,8 km/h (2 Bft) W-SW 244 0 min 0,000 mm 0,0 UV-I 33 W/m 9,1 C 9,7 km/h (2 Bft)
05.09.2016 07:33 12,3 C 12,3 C 82 % 1016,5 hPa 0,0 mm 5,7 km/h (1 Bft) W 262 0 min 0,000 mm 0,0 UV-I 33 W/m 9,3 C 6,4 km/h (2 Bft)
05.09.2016 07:34 12,2 C 12,3 C 83 % 1016,6 hPa 0,0 mm 4,6 km/h (1 Bft) W-SW 258 0 min 0,000 mm 0,0 UV-I 33 W/m 9,4 C 9,7 km/h (2 Bft)
05.09.2016 07:35 12,2 C 12,2 C 82 % 1016,6 hPa 0,0 mm 2,5 km/h (1 Bft) W-SW 242 0 min 0,000 mm 0,0 UV-I 33 W/m 9,2 C 4,8 km/h (1 Bft)
05.09.2016 07:36 12,2 C 12,2 C 82 % 1016,6 hPa 0,0 mm 5,2 km/h (1 Bft) W 259 0 min 0,000 mm 0,0 UV-I 32 W/m 9,2 C 8,0 km/h (2 Bft)
05.09.2016 07:37 12,1 C 12,2 C 83 % 1016,6 hPa 0,0 mm 5,9 km/h (2 Bft) S-SW 202 0 min 0,000 mm 0,0 UV-I 30 W/m 9,3 C 8,0 km/h (2 Bft)
05.09.2016 07:38 12,1 C 12,2 C 82 % 1016,5 hPa 0,0 mm 2,4 km/h (1 Bft) W 271 0 min 0,000 mm 0,0 UV-I 33 W/m 9,1 C 3,2 km/h (1 Bft)
05.09.2016 07:39 12,1 C 12,1 C 83 % 1016,5 hPa 0,0 mm 3,1 km/h (1 Bft) W-SW 238 0 min 0,000 mm 0,0 UV-I 33 W/m 9,3 C 4,8 km/h (1 Bft)
05.09.2016 07:40 12,2 C 12,2 C 81 % 1016,5 hPa 0,0 mm 4,3 km/h (1 Bft) W-SW 256 0 min 0,000 mm 0,0 UV-I 35 W/m 9,0 C 6,4 km/h (2 Bft)
05.09.2016 07:41 12,2 C 12,2 C 82 % 1016,5 hPa 0,0 mm 4,1 km/h (1 Bft) SW 227 0 min 0,000 mm 0,0 UV-I 39 W/m 9,2 C 8,0 km/h (2 Bft)
05.09.2016 07:42 12,2 C 12,2 C 82 % 1016,5 hPa 0,0 mm 5,7 km/h (1 Bft) W-SW 248 0 min 0,000 mm 0,0 UV-I 42 W/m 9,2 C 8,0 km/h (2 Bft)
05.09.2016 07:43 12,2 C 12,2 C 84 % 1016,6 hPa 0,0 mm 4,9 km/h (1 Bft) W-SW 256 0 min 0,000 mm 0,0 UV-I 42 W/m 9,6 C 6,4 km/h (2 Bft)
05.09.2016 07:44 12,2 C 12,2 C 82 % 1016,5 hPa 0,0 mm 4,5 km/h (1 Bft) SW 234 0 min 0,000 mm 0,0 UV-I 42 W/m 9,2 C 9,7 km/h (2 Bft)
05.09.2016 07:45 12,2 C 12,2 C 82 % 1016,5 hPa 0,0 mm 4,9 km/h (1 Bft) SW 232 0 min 0,000 mm 0,0 UV-I 44 W/m 9,2 C 11,3 km/h (2 Bft)
05.09.2016 07:46 12,2 C 12,2 C 81 % 1016,5 hPa 0,0 mm 4,3 km/h (1 Bft) W-SW 252 0 min 0,000 mm 0,0 UV-I 46 W/m 9,0 C 6,4 km/h (2 Bft)
05.09.2016 07:47 12,2 C 12,2 C 83 % 1016,5 hPa 0,0 mm 2,5 km/h (1 Bft) W-SW 251 0 min 0,000 mm 0,0 UV-I 47 W/m 9,4 C 4,8 km/h (1 Bft)
05.09.2016 07:48 12,2 C 12,2 C 82 % 1016,5 hPa 0,0 mm 2,1 km/h (1 Bft) S-SW 192 0 min 0,000 mm 0,0 UV-I 49 W/m 9,2 C 3,2 km/h (1 Bft)
05.09.2016 07:49 12,2 C 12,2 C 82 % 1016,5 hPa 0,0 mm 3,4 km/h (1 Bft) S-SW 203 0 min 0,000 mm 0,0 UV-I 53 W/m 9,2 C 4,8 km/h (1 Bft)
05.09.2016 07:50 12,3 C 12,3 C 81 % 1016,5 hPa 0,0 mm 3,3 km/h (1 Bft) W-SW 237 0 min 0,000 mm 0,0 UV-I 53 W/m 9,1 C 4,8 km/h (1 Bft)
05.09.2016 07:51 12,3 C 12,3 C 80 % 1016,5 hPa 0,0 mm 2,0 km/h (1 Bft) S 185 0 min 0,000 mm 0,0 UV-I 53 W/m 8,9 C 3,2 km/h (1 Bft)
05.09.2016 07:52 12,2 C 12,3 C 86 % 1016,5 hPa 0,0 mm 2,2 km/h (1 Bft) W-SW 252 0 min 0,000 mm 0,0 UV-I 51 W/m 9,9 C 3,2 km/h (1 Bft)
05.09.2016 07:53 12,1 C 12,2 C 83 % 1016,5 hPa 0,0 mm 1,6 km/h (1 Bft) W-SW 249 0 min 0,000 mm 0,0 UV-I 49 W/m 9,3 C 3,2 km/h (1 Bft)
05.09.2016 07:54 12,1 C 12,1 C 82 % 1016,5 hPa 0,0 mm 0,6 km/h (0 Bft) W-SW 245 0 min 0,000 mm 0,0 UV-I 47 W/m 9,1 C 1,6 km/h (1 Bft)
05.09.2016 07:55 12,2 C 12,2 C 82 % 1016,5 hPa 0,0 mm 4,0 km/h (1 Bft) S 187 0 min 0,000 mm 0,0 UV-I 46 W/m 9,2 C 8,0 km/h (2 Bft)
05.09.2016 07:56 12,2 C 12,2 C 82 % 1016,6 hPa 0,0 mm 3,6 km/h (1 Bft) W 273 0 min 0,000 mm 0,0 UV-I 44 W/m 9,2 C 6,4 km/h (2 Bft)
05.09.2016 07:57 12,2 C 12,2 C 82 % 1016,6 hPa 0,0 mm 3,4 km/h (1 Bft) SW 216 0 min 0,000 mm 0,0 UV-I 42 W/m 9,2 C 4,8 km/h (1 Bft)
05.09.2016 07:58 12,3 C 12,3 C 81 % 1016,7 hPa 0,0 mm 3,2 km/h (1 Bft) S-SW 205 0 min 0,000 mm 0,0 UV-I 40 W/m 9,1 C 6,4 km/h (2 Bft)
05.09.2016 07:59 12,3 C 12,3 C 80 % 1016,6 hPa 0,0 mm 4,8 km/h (1 Bft) W 266 0 min 0,000 mm 0,0 UV-I 37 W/m 8,9 C 11,3 km/h (2 Bft)
05.09.2016 08:00 12,4 C 12,4 C 81 % 1016,7 hPa 0,0 mm 5,3 km/h (1 Bft) SW 226 0 min 0,025 mm 0,0 UV-I 37 W/m 9,2 C 6,4 km/h (2 Bft)
05.09.2016 08:01 12,4 C 12,4 C 81 % 1016,7 hPa 0,0 mm 6,0 km/h (2 Bft) W-SW 255 0 min 0,000 mm 0,0 UV-I 39 W/m 9,2 C 9,7 km/h (2 Bft)
05.09.2016 08:02 12,4 C 12,4 C 81 % 1016,8 hPa 0,0 mm 6,6 km/h (2 Bft) W-SW 252 0 min 0,000 mm 0,0 UV-I 39 W/m 9,2 C 9,7 km/h (2 Bft)
05.09.2016 08:03 12,4 C 12,4 C 83 % 1016,8 hPa 0,0 mm 3,7 km/h (1 Bft) W-SW 251 0 min 0,000 mm 0,0 UV-I 40 W/m 9,6 C 4,8 km/h (1 Bft)
05.09.2016 08:04 12,4 C 12,4 C 83 % 1016,8 hPa 0,0 mm 3,6 km/h (1 Bft) W 264 0 min 0,000 mm 0,0 UV-I 42 W/m 9,6 C 4,8 km/h (1 Bft)
05.09.2016 08:05 12,3 C 12,4 C 85 % 1016,8 hPa 0,0 mm 3,3 km/h (1 Bft) W-SW 253 0 min 0,000 mm 0,0 UV-I 47 W/m 9,9 C 4,8 km/h (1 Bft)
05.09.2016 08:06 12,3 C 12,3 C 84 % 1016,9 hPa 0,0 mm 2,2 km/h (1 Bft) S-SW 205 0 min 0,000 mm 0,0 UV-I 56 W/m 9,7 C 3,2 km/h (1 Bft)
05.09.2016 08:07 12,3 C 12,3 C 83 % 1016,9 hPa 0,0 mm 2,1 km/h (1 Bft) S-SW 205 0 min 0,000 mm 0,0 UV-I 60 W/m 9,5 C 4,8 km/h (1 Bft)
05.09.2016 08:08 12,3 C 12,3 C 83 % 1016,9 hPa 0,0 mm 0,6 km/h (0 Bft) S-SW 205 0 min 0,000 mm 0,0 UV-I 63 W/m 9,5 C 3,2 km/h (1 Bft)
05.09.2016 08:09 12,3 C 12,3 C 81 % 1016,9 hPa 0,0 mm 3,2 km/h (1 Bft) W-SW 252 0 min 0,000 mm 0,0 UV-I 67 W/m 9,1 C 6,4 km/h (2 Bft)
05.09.2016 08:10 12,3 C 12,3 C 83 % 1016,8 hPa 0,0 mm 2,7 km/h (1 Bft) W-SW 245 0 min 0,000 mm 0,0 UV-I 69 W/m 9,5 C 4,8 km/h (1 Bft)
05.09.2016 08:11 12,3 C 12,3 C 82 % 1016,9 hPa 0,0 mm 4,6 km/h (1 Bft) SW 229 0 min 0,000 mm 0,0 UV-I 72 W/m 9,3 C 9,7 km/h (2 Bft)
05.09.2016 08:12 12,4 C 12,4 C 81 % 1016,9 hPa 0,0 mm 5,0 km/h (1 Bft) W 261 0 min 0,000 mm 0,0 UV-I 76 W/m 9,2 C 6,4 km/h (2 Bft)
05.09.2016 08:13 12,4 C 12,4 C 83 % 1016,9 hPa 0,0 mm 2,8 km/h (1 Bft) SW 223 0 min 0,000 mm 0,5 UV-I 77 W/m 9,6 C 4,8 km/h (1 Bft)
05.09.2016 08:14 12,4 C 12,4 C 83 % 1016,9 hPa 0,0 mm 3,5 km/h (1 Bft) W-SW 241 0 min 0,000 mm 0,5 UV-I 77 W/m 9,6 C 4,8 km/h (1 Bft)
05.09.2016 08:15 12,5 C 12,5 C 81 % 1017,0 hPa 0,0 mm 4,0 km/h (1 Bft) W 269 0 min 0,000 mm 0,5 UV-I 79 W/m 9,3 C 9,7 km/h (2 Bft)
05.09.2016 08:16 12,6 C 12,6 C 82 % 1016,9 hPa 0,0 mm 3,8 km/h (1 Bft) W-SW 244 0 min 0,000 mm 0,5 UV-I 81 W/m 9,6 C 4,8 km/h (1 Bft)
05.09.2016 08:17 12,6 C 12,6 C 82 % 1016,9 hPa 0,0 mm 1,0 km/h (0 Bft) W-SW 244 0 min 0,000 mm 0,5 UV-I 83 W/m 9,6 C 1,6 km/h (1 Bft)
05.09.2016 08:18 12,6 C 12,6 C 82 % 1017,0 hPa 0,0 mm 3,4 km/h (1 Bft) W 259 0 min 0,000 mm 0,5 UV-I 88 W/m 9,6 C 6,4 km/h (2 Bft)
05.09.2016 08:19 12,6 C 12,6 C 82 % 1017,0 hPa 0,0 mm 3,1 km/h (1 Bft) W 281 0 min 0,000 mm 0,5 UV-I 93 W/m 9,6 C 4,8 km/h (1 Bft)
05.09.2016 08:20 12,6 C 12,6 C 84 % 1017,0 hPa 0,0 mm 5,4 km/h (1 Bft) W-SW 250 0 min 0,000 mm 0,5 UV-I 90 W/m 10,0 C 8,0 km/h (2 Bft)
05.09.2016 08:21 12,6 C 12,6 C 83 % 1017,0 hPa 0,0 mm 5,2 km/h (1 Bft) W-SW 254 0 min 0,000 mm 0,5 UV-I 91 W/m 9,8 C 9,7 km/h (2 Bft)
05.09.2016 08:22 12,6 C 12,6 C 82 % 1017,0 hPa 0,0 mm 4,0 km/h (1 Bft) W-SW 238 0 min 0,000 mm 0,6 UV-I 98 W/m 9,6 C 6,4 km/h (2 Bft)
05.09.2016 08:23 12,6 C 12,7 C 83 % 1017,0 hPa 0,0 mm 3,4 km/h (1 Bft) W 260 0 min 0,000 mm 0,6 UV-I 100 W/m 9,8 C 4,8 km/h (1 Bft)
05.09.2016 08:24 12,7 C 12,7 C 82 % 1017,0 hPa 0,0 mm 5,2 km/h (1 Bft) SW 230 0 min 0,000 mm 0,6 UV-I 100 W/m 9,7 C 6,4 km/h (2 Bft)
05.09.2016 08:25 12,7 C 12,7 C 81 % 1017,0 hPa 0,0 mm 6,1 km/h (2 Bft) S-SW 207 0 min 0,000 mm 0,6 UV-I 100 W/m 9,5 C 11,3 km/h (2 Bft)
05.09.2016 08:26 12,7 C 12,7 C 81 % 1017,0 hPa 0,0 mm 6,7 km/h (2 Bft) W-SW 254 0 min 0,000 mm 0,6 UV-I 104 W/m 9,5 C 11,3 km/h (2 Bft)
05.09.2016 08:27 12,7 C 12,7 C 81 % 1017,0 hPa 0,0 mm 3,7 km/h (1 Bft) W-SW 257 0 min 0,000 mm 0,6 UV-I 107 W/m 9,5 C 4,8 km/h (1 Bft)
05.09.2016 08:28 12,7 C 12,7 C 82 % 1017,0 hPa 0,0 mm 6,2 km/h (2 Bft) S 189 0 min 0,000 mm 0,6 UV-I 111 W/m 9,7 C 11,3 km/h (2 Bft)
05.09.2016 08:29 12,7 C 12,7 C 82 % 1017,0 hPa 0,0 mm 5,8 km/h (2 Bft) W-SW 241 0 min 0,000 mm 0,6 UV-I 113 W/m 9,7 C 8,0 km/h (2 Bft)
05.09.2016 08:30 12,7 C 12,7 C 83 % 1017,0 hPa 0,0 mm 4,5 km/h (1 Bft) W-SW 243 0 min 0,000 mm 0,7 UV-I 118 W/m 9,9 C 6,4 km/h (2 Bft)
05.09.2016 08:31 12,7 C 12,7 C 82 % 1017,0 hPa 0,0 mm 5,0 km/h (1 Bft) W-SW 248 0 min 0,000 mm 0,7 UV-I 123 W/m 9,7 C 8,0 km/h (2 Bft)
05.09.2016 08:32 12,7 C 12,7 C 82 % 1017,0 hPa 0,0 mm 6,2 km/h (2 Bft) W 262 0 min 0,000 mm 0,7 UV-I 125 W/m 9,7 C 11,3 km/h (2 Bft)
05.09.2016 08:33 12,7 C 12,7 C 83 % 1017,0 hPa 0,0 mm 4,4 km/h (1 Bft) SW 228 0 min 0,000 mm 0,8 UV-I 127 W/m 9,9 C 9,7 km/h (2 Bft)
05.09.2016 08:34 12,7 C 12,7 C 84 % 1017,0 hPa 0,0 mm 3,9 km/h (1 Bft) W 268 0 min 0,000 mm 0,8 UV-I 128 W/m 10,1 C 6,4 km/h (2 Bft)
05.09.2016 08:35 12,7 C 12,7 C 84 % 1017,0 hPa 0,0 mm 5,0 km/h (1 Bft) W 275 0 min 0,000 mm 0,8 UV-I 128 W/m 10,1 C 8,0 km/h (2 Bft)
05.09.2016 08:36 12,7 C 12,7 C 83 % 1016,9 hPa 0,0 mm 4,3 km/h (1 Bft) W-SW 255 0 min 0,000 mm 0,8 UV-I 121 W/m 9,9 C 6,4 km/h (2 Bft)
05.09.2016 08:37 12,7 C 12,7 C 84 % 1017,0 hPa 0,0 mm 4,3 km/h (1 Bft) W-SW 253 0 min 0,000 mm 0,7 UV-I 118 W/m 10,1 C 6,4 km/h (2 Bft)
05.09.2016 08:38 12,7 C 12,7 C 84 % 1017,0 hPa 0,0 mm 4,4 km/h (1 Bft) W-SW 240 0 min 0,000 mm 0,7 UV-I 118 W/m 10,1 C 6,4 km/h (2 Bft)
05.09.2016 08:39 12,7 C 12,7 C 85 % 1017,0 hPa 0,0 mm 6,4 km/h (2 Bft) SW 230 0 min 0,000 mm 0,7 UV-I 116 W/m 10,2 C 11,3 km/h (2 Bft)
05.09.2016 08:40 12,7 C 12,7 C 84 % 1017,0 hPa 0,0 mm 5,0 km/h (1 Bft) W-SW 248 0 min 0,000 mm 0,7 UV-I 114 W/m 10,1 C 8,0 km/h (2 Bft)
05.09.2016 08:41 12,7 C 12,7 C 84 % 1017,0 hPa 0,0 mm 4,2 km/h (1 Bft) W-NW 296 0 min 0,000 mm 0,7 UV-I 111 W/m 10,1 C 6,4 km/h (2 Bft)
05.09.2016 08:42 12,7 C 12,7 C 84 % 1017,0 hPa 0,0 mm 4,3 km/h (1 Bft) SW 232 0 min 0,000 mm 0,7 UV-I 113 W/m 10,1 C 6,4 km/h (2 Bft)
05.09.2016 08:43 12,7 C 12,7 C 84 % 1017,0 hPa 0,0 mm 3,5 km/h (1 Bft) W 269 0 min 0,000 mm 0,8 UV-I 118 W/m 10,1 C 6,4 km/h (2 Bft)
05.09.2016 08:44 12,8 C 12,8 C 83 % 1017,0 hPa 0,0 mm 4,6 km/h (1 Bft) SW 224 0 min 0,000 mm 0,8 UV-I 121 W/m 10,0 C 6,4 km/h (2 Bft)
05.09.2016 08:45 12,8 C 12,8 C 84 % 1017,0 hPa 0,0 mm 5,1 km/h (1 Bft) W 265 0 min 0,000 mm 0,8 UV-I 127 W/m 10,2 C 8,0 km/h (2 Bft)
05.09.2016 08:46 12,8 C 12,8 C 84 % 1017,1 hPa 0,0 mm 4,6 km/h (1 Bft) W-SW 250 0 min 0,000 mm 0,9 UV-I 132 W/m 10,2 C 6,4 km/h (2 Bft)
05.09.2016 08:47 12,8 C 12,8 C 84 % 1017,1 hPa 0,0 mm 4,0 km/h (1 Bft) W-SW 246 0 min 0,000 mm 0,9 UV-I 135 W/m 10,2 C 4,8 km/h (1 Bft)
05.09.2016 08:48 12,9 C 12,9 C 83 % 1017,0 hPa 0,0 mm 5,0 km/h (1 Bft) W 278 0 min 0,000 mm 0,9 UV-I 137 W/m 10,1 C 6,4 km/h (2 Bft)
05.09.2016 08:49 12,9 C 12,9 C 83 % 1017,1 hPa 0,0 mm 5,6 km/h (1 Bft) W 281 0 min 0,000 mm 0,9 UV-I 135 W/m 10,1 C 9,7 km/h (2 Bft)
05.09.2016 08:50 12,9 C 12,9 C 84 % 1017,1 hPa 0,0 mm 4,4 km/h (1 Bft) W-NW 295 0 min 0,000 mm 0,9 UV-I 135 W/m 10,3 C 6,4 km/h (2 Bft)
05.09.2016 08:51 12,9 C 12,9 C 84 % 1017,1 hPa 0,0 mm 3,4 km/h (1 Bft) SW 216 0 min 0,000 mm 0,9 UV-I 135 W/m 10,3 C 4,8 km/h (1 Bft)
05.09.2016 08:52 12,9 C 12,9 C 82 % 1017,1 hPa 0,0 mm 3,8 km/h (1 Bft) W-SW 242 0 min 0,000 mm 0,9 UV-I 134 W/m 9,9 C 9,7 km/h (2 Bft)
05.09.2016 08:53 13,0 C 13,0 C 82 % 1017,1 hPa 0,0 mm 3,7 km/h (1 Bft) W 280 0 min 0,000 mm 0,9 UV-I 139 W/m 10,0 C 6,4 km/h (2 Bft)
05.09.2016 08:54 13,1 C 13,1 C 83 % 1017,1 hPa 0,0 mm 6,8 km/h (2 Bft) W-SW 253 0 min 0,000 mm 0,9 UV-I 137 W/m 10,3 C 14,5 km/h (3 Bft)
05.09.2016 08:55 13,1 C 13,1 C 82 % 1017,0 hPa 0,0 mm 5,4 km/h (1 Bft) W-SW 242 0 min 0,000 mm 0,8 UV-I 134 W/m 10,1 C 11,3 km/h (2 Bft)
05.09.2016 08:56 13,1 C 13,1 C 82 % 1017,0 hPa 0,0 mm 3,0 km/h (1 Bft) W 277 0 min 0,000 mm 0,8 UV-I 125 W/m 10,1 C 6,4 km/h (2 Bft)
05.09.2016 08:57 13,2 C 13,2 C 82 % 1017,0 hPa 0,0 mm 2,5 km/h (1 Bft) W-SW 246 0 min 0,000 mm 0,7 UV-I 116 W/m 10,2 C 4,8 km/h (1 Bft)
05.09.2016 08:58 13,2 C 13,2 C 83 % 1017,0 hPa 0,0 mm 3,9 km/h (1 Bft) W 275 0 min 0,000 mm 0,7 UV-I 113 W/m 10,4 C 9,7 km/h (2 Bft)
05.09.2016 08:59 13,2 C 13,2 C 83 % 1017,0 hPa 0,0 mm 4,8 km/h (1 Bft) W 263 0 min 0,000 mm 0,7 UV-I 109 W/m 10,4 C 6,4 km/h (2 Bft)
05.09.2016 09:00 13,2 C 13,2 C 83 % 1017,0 hPa 0,0 mm 2,7 km/h (1 Bft) W 267 0 min 0,051 mm 0,8 UV-I 109 W/m 10,4 C 4,8 km/h (1 Bft)
05.09.2016 09:01 13,2 C 13,2 C 83 % 1017,0 hPa 0,0 mm 4,6 km/h (1 Bft) W 266 0 min 0,000 mm 0,8 UV-I 109 W/m 10,4 C 8,0 km/h (2 Bft)
05.09.2016 09:02 13,2 C 13,2 C 83 % 1017,0 hPa 0,0 mm 2,2 km/h (1 Bft) W 260 0 min 0,000 mm 0,7 UV-I 105 W/m 10,4 C 4,8 km/h (1 Bft)
05.09.2016 09:03 13,2 C 13,2 C 83 % 1016,9 hPa 0,0 mm 2,9 km/h (1 Bft) W 259 0 min 0,000 mm 0,7 UV-I 100 W/m 10,4 C 4,8 km/h (1 Bft)
05.09.2016 09:04 13,2 C 13,2 C 83 % 1017,0 hPa 0,0 mm 5,3 km/h (1 Bft) W-NW 282 0 min 0,000 mm 0,7 UV-I 97 W/m 10,4 C 11,3 km/h (2 Bft)
05.09.2016 09:05 13,2 C 13,2 C 82 % 1017,0 hPa 0,0 mm 5,8 km/h (2 Bft) W 265 0 min 0,000 mm 0,7 UV-I 100 W/m 10,2 C 11,3 km/h (2 Bft)
05.09.2016 09:06 13,3 C 13,3 C 82 % 1017,0 hPa 0,0 mm 3,9 km/h (1 Bft) W-SW 258 0 min 0,000 mm 0,7 UV-I 104 W/m 10,3 C 4,8 km/h (1 Bft)
05.09.2016 09:07 13,2 C 13,3 C 82 % 1017,1 hPa 0,0 mm 1,8 km/h (1 Bft) W 267 0 min 0,000 mm 0,7 UV-I 102 W/m 10,2 C 3,2 km/h (1 Bft)
05.09.2016 09:08 13,2 C 13,3 C 83 % 1017,1 hPa 0,0 mm 2,6 km/h (1 Bft) W-SW 251 0 min 0,000 mm 0,7 UV-I 98 W/m 10,4 C 6,4 km/h (2 Bft)
05.09.2016 09:09 13,3 C 13,3 C 83 % 1017,1 hPa 0,0 mm 3,8 km/h (1 Bft) W-SW 244 0 min 0,000 mm 0,7 UV-I 93 W/m 10,5 C 6,4 km/h (2 Bft)
05.09.2016 09:10 13,2 C 13,3 C 83 % 1017,0 hPa 0,0 mm 2,2 km/h (1 Bft) W-SW 243 0 min 0,000 mm 0,7 UV-I 95 W/m 10,4 C 3,2 km/h (1 Bft)
05.09.2016 09:11 13,2 C 13,3 C 81 % 1017,0 hPa 0,0 mm 2,6 km/h (1 Bft) W-SW 246 0 min 0,000 mm 0,7 UV-I 104 W/m 10,0 C 6,4 km/h (2 Bft)
05.09.2016 09:12 13,3 C 13,3 C 84 % 1017,0 hPa 0,0 mm 5,6 km/h (1 Bft) W-SW 255 0 min 0,000 mm 0,8 UV-I 109 W/m 10,7 C 8,0 km/h (2 Bft)
05.09.2016 09:13 13,3 C 13,3 C 82 % 1017,0 hPa 0,0 mm 3,4 km/h (1 Bft) W 271 0 min 0,000 mm 0,8 UV-I 113 W/m 10,3 C 4,8 km/h (1 Bft)
05.09.2016 09:14 13,3 C 13,3 C 82 % 1017,0 hPa 0,0 mm 3,2 km/h (1 Bft) W 275 0 min 0,000 mm 0,8 UV-I 114 W/m 10,3 C 4,8 km/h (1 Bft)
05.09.2016 09:15 13,3 C 13,3 C 84 % 1016,9 hPa 0,0 mm 6,1 km/h (2 Bft) W-SW 248 0 min 0,000 mm 0,9 UV-I 120 W/m 10,7 C 12,9 km/h (3 Bft)
05.09.2016 09:16 13,3 C 13,3 C 81 % 1017,0 hPa 0,0 mm 5,4 km/h (1 Bft) W-SW 257 0 min 0,000 mm 0,9 UV-I 125 W/m 10,1 C 12,9 km/h (3 Bft)
05.09.2016 09:17 13,4 C 13,4 C 81 % 1017,0 hPa 0,0 mm 6,1 km/h (2 Bft) SW 235 0 min 0,000 mm 1,0 UV-I 144 W/m 10,2 C 11,3 km/h (2 Bft)
05.09.2016 09:18 13,4 C 13,4 C 82 % 1017,0 hPa 0,0 mm 4,5 km/h (1 Bft) SW 223 0 min 0,000 mm 1,0 UV-I 149 W/m 10,4 C 8,0 km/h (2 Bft)
05.09.2016 09:19 13,4 C 13,4 C 80 % 1017,0 hPa 0,0 mm 3,6 km/h (1 Bft) W-SW 255 0 min 0,000 mm 1,0 UV-I 151 W/m 10,0 C 6,4 km/h (2 Bft)
05.09.2016 09:20 13,5 C 13,5 C 81 % 1017,0 hPa 0,0 mm 4,2 km/h (1 Bft) W 273 0 min 0,000 mm 1,0 UV-I 153 W/m 10,3 C 8,0 km/h (2 Bft)
05.09.2016 09:21 13,6 C 13,6 C 81 % 1017,0 hPa 0,0 mm 4,3 km/h (1 Bft) W-SW 241 0 min 0,000 mm 1,0 UV-I 151 W/m 10,4 C 8,0 km/h (2 Bft)
05.09.2016 09:22 13,6 C 13,6 C 81 % 1016,9 hPa 0,0 mm 6,6 km/h (2 Bft) W-SW 255 0 min 0,000 mm 1,1 UV-I 156 W/m 10,4 C 9,7 km/h (2 Bft)
05.09.2016 09:23 13,7 C 13,7 C 80 % 1016,9 hPa 0,0 mm 6,9 km/h (2 Bft) W 265 0 min 0,000 mm 1,1 UV-I 160 W/m 10,3 C 11,3 km/h (2 Bft)
05.09.2016 09:24 13,7 C 13,7 C 80 % 1016,9 hPa 0,0 mm 5,2 km/h (1 Bft) W-SW 256 0 min 0,000 mm 1,2 UV-I 167 W/m 10,3 C 9,7 km/h (2 Bft)
05.09.2016 09:25 13,7 C 13,7 C 80 % 1016,9 hPa 0,0 mm 7,2 km/h (2 Bft) W 266 0 min 0,000 mm 1,3 UV-I 178 W/m 10,3 C 11,3 km/h (2 Bft)
05.09.2016 09:26 13,7 C 13,7 C 80 % 1017,0 hPa 0,0 mm 4,3 km/h (1 Bft) W-SW 252 0 min 0,000 mm 1,3 UV-I 188 W/m 10,3 C 11,3 km/h (2 Bft)
05.09.2016 09:27 13,8 C 13,8 C 81 % 1017,0 hPa 0,0 mm 5,0 km/h (1 Bft) W 261 0 min 0,000 mm 1,4 UV-I 195 W/m 10,6 C 11,3 km/h (2 Bft)
05.09.2016 09:28 13,8 C 13,8 C 80 % 1017,0 hPa 0,0 mm 3,3 km/h (1 Bft) W-SW 256 0 min 0,000 mm 1,4 UV-I 200 W/m 10,4 C 6,4 km/h (2 Bft)
05.09.2016 09:29 13,8 C 13,8 C 81 % 1017,0 hPa 0,0 mm 6,0 km/h (2 Bft) S-SW 202 0 min 0,000 mm 1,4 UV-I 202 W/m 10,6 C 11,3 km/h (2 Bft)
05.09.2016 09:30 13,9 C 13,9 C 80 % 1017,0 hPa 0,0 mm 4,8 km/h (1 Bft) W 277 0 min 0,000 mm 1,4 UV-I 204 W/m 10,5 C 8,0 km/h (2 Bft)
05.09.2016 09:31 13,9 C 13,9 C 80 % 1017,0 hPa 0,0 mm 7,6 km/h (2 Bft) W-NW 295 0 min 0,000 mm 1,4 UV-I 204 W/m 10,5 C 14,5 km/h (3 Bft)
05.09.2016 09:32 13,9 C 13,9 C 79 % 1017,0 hPa 0,0 mm 3,9 km/h (1 Bft) W-SW 238 0 min 0,000 mm 1,4 UV-I 199 W/m 10,3 C 6,4 km/h (2 Bft)
05.09.2016 09:33 13,9 C 13,9 C 80 % 1017,0 hPa 0,0 mm 5,5 km/h (1 Bft) SW 235 0 min 0,000 mm 1,4 UV-I 192 W/m 10,5 C 9,7 km/h (2 Bft)
05.09.2016 09:34 13,9 C 13,9 C 81 % 1017,0 hPa 0,0 mm 6,0 km/h (2 Bft) W 264 0 min 0,000 mm 1,3 UV-I 179 W/m 10,7 C 12,9 km/h (3 Bft)
05.09.2016 09:35 13,9 C 14,0 C 79 % 1017,0 hPa 0,0 mm 7,8 km/h (2 Bft) W-SW 244 0 min 0,000 mm 1,3 UV-I 174 W/m 10,3 C 11,3 km/h (2 Bft)
05.09.2016 09:36 14,0 C 14,0 C 78 % 1017,0 hPa 0,0 mm 7,2 km/h (2 Bft) W-SW 252 0 min 0,000 mm 1,3 UV-I 172 W/m 10,2 C 11,3 km/h (2 Bft)
05.09.2016 09:37 13,9 C 14,0 C 79 % 1017,1 hPa 0,0 mm 6,6 km/h (2 Bft) W 267 0 min 0,000 mm 1,3 UV-I 172 W/m 10,3 C 9,7 km/h (2 Bft)
05.09.2016 09:38 13,9 C 14,0 C 78 % 1017,0 hPa 0,0 mm 5,4 km/h (1 Bft) W-SW 242 0 min 0,000 mm 1,3 UV-I 172 W/m 10,1 C 6,4 km/h (2 Bft)
05.09.2016 09:39 13,9 C 13,9 C 80 % 1017,1 hPa 0,0 mm 5,0 km/h (1 Bft) W-SW 237 0 min 0,000 mm 1,3 UV-I 172 W/m 10,5 C 9,7 km/h (2 Bft)
05.09.2016 09:40 13,9 C 13,9 C 77 % 1017,1 hPa 0,0 mm 9,4 km/h (2 Bft) W 265 0 min 0,000 mm 1,3 UV-I 165 W/m 9,9 C 12,9 km/h (3 Bft)
05.09.2016 09:41 13,9 C 13,9 C 79 % 1017,2 hPa 0,0 mm 8,5 km/h (2 Bft) SW 233 0 min 0,000 mm 1,2 UV-I 158 W/m 10,3 C 12,9 km/h (3 Bft)
05.09.2016 09:42 13,9 C 13,9 C 76 % 1017,1 hPa 0,0 mm 11,0 km/h (2 Bft) W 263 0 min 0,000 mm 1,2 UV-I 153 W/m 9,7 C 16,1 km/h (3 Bft)
05.09.2016 09:43 13,9 C 13,9 C 78 % 1017,2 hPa 0,0 mm 10,9 km/h (2 Bft) W-NW 284 0 min 0,000 mm 1,1 UV-I 146 W/m 10,1 C 16,1 km/h (3 Bft)
05.09.2016 09:44 13,8 C 13,9 C 80 % 1017,2 hPa 0,0 mm 7,1 km/h (2 Bft) W-NW 282 0 min 0,000 mm 1,1 UV-I 141 W/m 10,4 C 14,5 km/h (3 Bft)
05.09.2016 09:45 13,8 C 13,8 C 78 % 1017,2 hPa 0,0 mm 10,5 km/h (2 Bft) W 262 0 min 0,000 mm 1,1 UV-I 141 W/m 10,0 C 14,5 km/h (3 Bft)
05.09.2016 09:46 13,8 C 13,8 C 79 % 1017,2 hPa 0,0 mm 8,3 km/h (2 Bft) W 264 0 min 0,000 mm 1,2 UV-I 158 W/m 10,2 C 12,9 km/h (3 Bft)
05.09.2016 09:47 13,8 C 13,8 C 79 % 1017,2 hPa 0,0 mm 11,1 km/h (2 Bft) W-SW 241 0 min 0,000 mm 1,3 UV-I 162 W/m 10,2 C 19,3 km/h (3 Bft)
05.09.2016 09:48 13,8 C 13,8 C 78 % 1017,2 hPa 0,0 mm 13,2 km/h (3 Bft) W-SW 242 0 min 0,000 mm 1,3 UV-I 160 W/m 10,0 C 19,3 km/h (3 Bft)
05.09.2016 09:49 13,8 C 13,8 C 76 % 1017,2 hPa 0,0 mm 5,9 km/h (2 Bft) W-NW 286 0 min 0,000 mm 1,2 UV-I 155 W/m 9,6 C 16,1 km/h (3 Bft)
05.09.2016 09:50 13,8 C 13,8 C 80 % 1017,2 hPa 0,0 mm 4,1 km/h (1 Bft) W-SW 252 0 min 0,000 mm 1,2 UV-I 153 W/m 10,4 C 6,4 km/h (2 Bft)
05.09.2016 09:51 13,8 C 13,8 C 80 % 1017,2 hPa 0,0 mm 8,0 km/h (2 Bft) S-SO 166 0 min 0,000 mm 1,2 UV-I 155 W/m 10,4 C 12,9 km/h (3 Bft)
05.09.2016 09:52 13,8 C 13,8 C 79 % 1017,1 hPa 0,0 mm 6,4 km/h (2 Bft) SW 234 0 min 0,000 mm 1,2 UV-I 160 W/m 10,2 C 9,7 km/h (2 Bft)
05.09.2016 09:53 13,8 C 13,8 C 80 % 1017,2 hPa 0,0 mm 8,6 km/h (2 Bft) W 259 0 min 0,000 mm 1,2 UV-I 155 W/m 10,4 C 14,5 km/h (3 Bft)
05.09.2016 09:54 13,9 C 13,9 C 78 % 1017,1 hPa 0,0 mm 9,9 km/h (2 Bft) W 279 0 min 0,000 mm 1,1 UV-I 148 W/m 10,1 C 14,5 km/h (3 Bft)
05.09.2016 09:55 13,8 C 13,9 C 78 % 1017,2 hPa 0,0 mm 7,8 km/h (2 Bft) W-SW 248 0 min 0,000 mm 1,1 UV-I 142 W/m 10,0 C 14,5 km/h (3 Bft)
05.09.2016 09:56 13,8 C 13,9 C 79 % 1017,2 hPa 0,0 mm 6,7 km/h (2 Bft) W 267 0 min 0,000 mm 1,1 UV-I 137 W/m 10,2 C 9,7 km/h (2 Bft)
05.09.2016 09:57 13,8 C 13,9 C 79 % 1017,2 hPa 0,0 mm 4,3 km/h (1 Bft) W-SW 254 0 min 0,000 mm 1,1 UV-I 134 W/m 10,2 C 6,4 km/h (2 Bft)
05.09.2016 09:58 13,8 C 13,9 C 80 % 1017,2 hPa 0,0 mm 5,8 km/h (2 Bft) W-NW 300 0 min 0,000 mm 1,1 UV-I 137 W/m 10,4 C 11,3 km/h (2 Bft)
05.09.2016 09:59 13,8 C 13,8 C 79 % 1017,2 hPa 0,0 mm 4,7 km/h (1 Bft) W-NW 284 0 min 0,000 mm 1,2 UV-I 144 W/m 10,2 C 4,8 km/h (1 Bft)
05.09.2016 10:00 13,8 C 13,8 C 79 % 1017,2 hPa 0,0 mm 4,6 km/h (1 Bft) W 261 0 min 0,102 mm 1,2 UV-I 151 W/m 10,2 C 6,4 km/h (2 Bft)
05.09.2016 10:01 13,8 C 13,8 C 78 % 1017,2 hPa 0,0 mm 4,8 km/h (1 Bft) W-SW 245 0 min 0,000 mm 1,3 UV-I 151 W/m 10,0 C 8,0 km/h (2 Bft)
05.09.2016 10:02 13,8 C 13,8 C 79 % 1017,2 hPa 0,0 mm 5,2 km/h (1 Bft) W-NW 286 0 min 0,000 mm 1,3 UV-I 146 W/m 10,2 C 11,3 km/h (2 Bft)
05.09.2016 10:03 13,8 C 13,8 C 79 % 1017,2 hPa 0,0 mm 7,5 km/h (2 Bft) W 259 0 min 0,000 mm 1,3 UV-I 146 W/m 10,2 C 12,9 km/h (3 Bft)
05.09.2016 10:04 13,8 C 13,8 C 79 % 1017,2 hPa 0,0 mm 11,1 km/h (2 Bft) W-SW 257 0 min 0,000 mm 1,4 UV-I 185 W/m 10,2 C 14,5 km/h (3 Bft)
05.09.2016 10:05 13,8 C 13,8 C 79 % 1017,2 hPa 0,0 mm 4,4 km/h (1 Bft) W 263 0 min 0,000 mm 1,6 UV-I 213 W/m 10,2 C 8,0 km/h (2 Bft)
05.09.2016 10:06 13,9 C 13,9 C 79 % 1017,2 hPa 0,0 mm 4,3 km/h (1 Bft) W 278 0 min 0,000 mm 1,6 UV-I 220 W/m 10,3 C 6,4 km/h (2 Bft)
05.09.2016 10:07 13,9 C 13,9 C 80 % 1017,2 hPa 0,0 mm 5,4 km/h (1 Bft) W-SW 246 0 min 0,000 mm 1,5 UV-I 206 W/m 10,5 C 9,7 km/h (2 Bft)
05.09.2016 10:08 13,9 C 13,9 C 79 % 1017,2 hPa 0,0 mm 5,8 km/h (2 Bft) W 267 0 min 0,000 mm 1,4 UV-I 193 W/m 10,3 C 9,7 km/h (2 Bft)
05.09.2016 10:09 14,0 C 14,0 C 78 % 1017,2 hPa 0,0 mm 8,0 km/h (2 Bft) W-SW 240 0 min 0,000 mm 1,4 UV-I 169 W/m 10,2 C 14,5 km/h (3 Bft)
05.09.2016 10:10 14,0 C 14,0 C 78 % 1017,2 hPa 0,0 mm 2,3 km/h (1 Bft) W-SW 250 0 min 0,000 mm 1,3 UV-I 158 W/m 10,2 C 4,8 km/h (1 Bft)
05.09.2016 10:11 14,0 C 14,1 C 77 % 1017,2 hPa 0,0 mm 7,6 km/h (2 Bft) SW 226 0 min 0,000 mm 1,3 UV-I 156 W/m 10,0 C 14,5 km/h (3 Bft)
05.09.2016 10:12 14,0 C 14,1 C 77 % 1017,2 hPa 0,0 mm 6,1 km/h (2 Bft) W 273 0 min 0,000 mm 1,3 UV-I 160 W/m 10,0 C 11,3 km/h (2 Bft)
05.09.2016 10:13 14,0 C 14,1 C 78 % 1017,2 hPa 0,0 mm 7,4 km/h (2 Bft) W 259 0 min 0,000 mm 1,4 UV-I 165 W/m 10,2 C 12,9 km/h (3 Bft)
05.09.2016 10:14 14,0 C 14,1 C 77 % 1017,1 hPa 0,0 mm 4,0 km/h (1 Bft) W-SW 246 0 min 0,000 mm 1,4 UV-I 169 W/m 10,0 C 9,7 km/h (2 Bft)
05.09.2016 10:15 14,1 C 14,1 C 78 % 1017,2 hPa 0,0 mm 3,7 km/h (1 Bft) W-SW 244 0 min 0,000 mm 1,5 UV-I 155 W/m 10,3 C 4,8 km/h (1 Bft)
05.09.2016 10:16 14,1 C 14,1 C 79 % 1017,2 hPa 0,0 mm 7,8 km/h (2 Bft) W-SW 250 0 min 0,000 mm 1,4 UV-I 148 W/m 10,5 C 12,9 km/h (3 Bft)
05.09.2016 10:17 14,1 C 14,1 C 77 % 1017,3 hPa 0,0 mm 8,4 km/h (2 Bft) W 271 0 min 0,000 mm 1,5 UV-I 148 W/m 10,1 C 12,9 km/h (3 Bft)
05.09.2016 10:18 14,1 C 14,1 C 79 % 1017,3 hPa 0,0 mm 10,1 km/h (2 Bft) W-SW 249 0 min 0,000 mm 1,5 UV-I 146 W/m 10,5 C 12,9 km/h (3 Bft)
05.09.2016 10:19 14,1 C 14,1 C 78 % 1017,3 hPa 0,0 mm 8,0 km/h (2 Bft) W-SW 252 0 min 0,000 mm 0,7 UV-I 146 W/m 10,3 C 11,3 km/h (2 Bft)
05.09.2016 10:20 14,1 C 14,1 C 78 % 1017,3 hPa 0,0 mm 9,1 km/h (2 Bft) W-SW 248 0 min 0,000 mm 1,6 UV-I 149 W/m 10,3 C 12,9 km/h (3 Bft)
05.09.2016 10:21 14,1 C 14,1 C 79 % 1017,3 hPa 0,0 mm 5,8 km/h (2 Bft) W-SW 254 0 min 0,000 mm 1,6 UV-I 171 W/m 10,5 C 8,0 km/h (2 Bft)
05.09.2016 10:22 14,0 C 14,1 C 79 % 1017,4 hPa 0,0 mm 3,7 km/h (1 Bft) W-NW 282 0 min 0,000 mm 1,8 UV-I 192 W/m 10,4 C 6,4 km/h (2 Bft)
05.09.2016 10:23 14,1 C 14,1 C 81 % 1017,3 hPa 0,0 mm 4,4 km/h (1 Bft) W 272 0 min 0,000 mm 1,9 UV-I 209 W/m 10,9 C 6,4 km/h (2 Bft)
05.09.2016 10:24 14,1 C 14,1 C 80 % 1017,3 hPa 0,0 mm 5,4 km/h (1 Bft) NW 317 0 min 0,000 mm 1,9 UV-I 207 W/m 10,7 C 8,0 km/h (2 Bft)
05.09.2016 10:25 14,2 C 14,2 C 79 % 1017,3 hPa 0,0 mm 9,4 km/h (2 Bft) W 261 0 min 0,000 mm 1,9 UV-I 209 W/m 10,6 C 16,1 km/h (3 Bft)
05.09.2016 10:26 14,2 C 14,2 C 78 % 1017,5 hPa 0,0 mm 8,9 km/h (2 Bft) W-NW 284 0 min 0,000 mm 2,0 UV-I 218 W/m 10,4 C 16,1 km/h (3 Bft)
05.09.2016 10:27 14,2 C 14,2 C 78 % 1017,5 hPa 0,0 mm 6,8 km/h (2 Bft) NW 326 0 min 0,000 mm 2,1 UV-I 311 W/m 10,4 C 12,9 km/h (3 Bft)
05.09.2016 10:28 14,3 C 14,3 C 78 % 1017,5 hPa 0,0 mm 7,1 km/h (2 Bft) W-NW 292 1 min 0,000 mm 2,4 UV-I 350 W/m 10,5 C 12,9 km/h (3 Bft)
05.09.2016 10:29 14,4 C 14,4 C 82 % 1017,6 hPa 0,0 mm 7,6 km/h (2 Bft) W-NW 302 1 min 0,000 mm 2,2 UV-I 323 W/m 11,4 C 11,3 km/h (2 Bft)
05.09.2016 10:30 14,5 C 14,5 C 79 % 1017,6 hPa 0,0 mm 10,6 km/h (2 Bft) W 277 0 min 0,000 mm 2,1 UV-I 279 W/m 10,9 C 16,1 km/h (3 Bft)
05.09.2016 10:31 14,6 C 14,6 C 78 % 1017,6 hPa 0,0 mm 6,0 km/h (2 Bft) W-SW 245 0 min 0,000 mm 2,1 UV-I 295 W/m 10,8 C 9,7 km/h (2 Bft)
05.09.2016 10:32 14,7 C 14,7 C 81 % 1017,6 hPa 0,0 mm 3,0 km/h (1 Bft) W 281 0 min 0,000 mm 2,1 UV-I 318 W/m 11,5 C 6,4 km/h (2 Bft)
05.09.2016 10:33 14,8 C 14,8 C 79 % 1017,6 hPa 0,0 mm 3,4 km/h (1 Bft) W-NW 284 1 min 0,000 mm 2,2 UV-I 329 W/m 11,2 C 8,0 km/h (2 Bft)
05.09.2016 10:34 14,9 C 14,9 C 77 % 1017,6 hPa 0,0 mm 8,9 km/h (2 Bft) W-NW 288 0 min 0,000 mm 2,0 UV-I 271 W/m 10,9 C 17,7 km/h (3 Bft)
05.09.2016 10:35 14,9 C 14,9 C 77 % 1017,7 hPa 0,0 mm 3,5 km/h (1 Bft) SW 226 0 min 0,000 mm 2,0 UV-I 278 W/m 10,9 C 9,7 km/h (2 Bft)
05.09.2016 10:36 14,9 C 14,9 C 78 % 1017,6 hPa 0,0 mm 5,5 km/h (1 Bft) SW 215 0 min 0,000 mm 2,0 UV-I 276 W/m 11,1 C 12,9 km/h (3 Bft)
05.09.2016 10:37 14,9 C 14,9 C 77 % 1017,7 hPa 0,0 mm 5,3 km/h (1 Bft) NW 307 0 min 0,000 mm 2,0 UV-I 276 W/m 10,9 C 8,0 km/h (2 Bft)
05.09.2016 10:38 14,9 C 14,9 C 76 % 1017,7 hPa 0,0 mm 9,1 km/h (2 Bft) W-NW 289 0 min 0,000 mm 2,0 UV-I 274 W/m 10,7 C 17,7 km/h (3 Bft)
05.09.2016 10:39 14,9 C 14,9 C 74 % 1017,7 hPa 0,0 mm 6,3 km/h (2 Bft) W-NW 300 0 min 0,000 mm 2,0 UV-I 258 W/m 10,3 C 9,7 km/h (2 Bft)
05.09.2016 10:40 14,9 C 14,9 C 75 % 1017,7 hPa 0,0 mm 6,9 km/h (2 Bft) W-SW 241 0 min 0,000 mm 1,9 UV-I 244 W/m 10,5 C 11,3 km/h (2 Bft)
05.09.2016 10:41 14,9 C 14,9 C 77 % 1017,7 hPa 0,0 mm 12,9 km/h (3 Bft) W 262 0 min 0,000 mm 1,9 UV-I 234 W/m 10,9 C 17,7 km/h (3 Bft)
05.09.2016 10:42 14,8 C 14,9 C 73 % 1017,7 hPa 0,0 mm 11,9 km/h (2 Bft) NW 309 0 min 0,000 mm 1,8 UV-I 225 W/m 10,0 C 20,9 km/h (4 Bft)
05.09.2016 10:43 14,7 C 14,8 C 74 % 1017,8 hPa 0,0 mm 15,2 km/h (3 Bft) W-SW 253 0 min 0,000 mm 1,6 UV-I 199 W/m 10,1 C 22,5 km/h (4 Bft)
05.09.2016 10:44 14,7 C 14,7 C 73 % 1017,8 hPa 0,0 mm 7,4 km/h (2 Bft) S-SW 207 0 min 0,000 mm 1,5 UV-I 183 W/m 9,9 C 12,9 km/h (3 Bft)
05.09.2016 10:45 14,6 C 14,7 C 73 % 1017,8 hPa 0,0 mm 5,0 km/h (1 Bft) SW 232 0 min 0,000 mm 1,5 UV-I 176 W/m 9,8 C 8,0 km/h (2 Bft)
05.09.2016 10:46 14,4 C 14,6 C 75 % 1017,8 hPa 0,0 mm 7,5 km/h (2 Bft) W-SW 257 0 min 0,000 mm 1,4 UV-I 171 W/m 10,0 C 12,9 km/h (3 Bft)
05.09.2016 10:47 14,4 C 14,4 C 75 % 1017,9 hPa 0,0 mm 13,6 km/h (3 Bft) W-NW 283 0 min 0,000 mm 1,4 UV-I 171 W/m 10,0 C 19,3 km/h (3 Bft)
05.09.2016 10:48 14,3 C 14,4 C 75 % 1017,8 hPa 0,0 mm 10,7 km/h (2 Bft) SW 235 0 min 0,000 mm 1,5 UV-I 176 W/m 9,9 C 19,3 km/h (3 Bft)
05.09.2016 10:49 14,3 C 14,3 C 75 % 1017,8 hPa 0,0 mm 9,6 km/h (2 Bft) W-NW 283 0 min 0,000 mm 1,6 UV-I 183 W/m 9,9 C 12,9 km/h (3 Bft)
05.09.2016 10:50 14,2 C 14,3 C 76 % 1017,7 hPa 0,0 mm 9,5 km/h (2 Bft) W 279 0 min 0,000 mm 1,7 UV-I 200 W/m 10,0 C 22,5 km/h (4 Bft)
05.09.2016 10:51 14,2 C 14,2 C 75 % 1017,7 hPa 0,0 mm 9,1 km/h (2 Bft) W 277 0 min 0,000 mm 1,8 UV-I 202 W/m 9,8 C 17,7 km/h (3 Bft)
05.09.2016 10:52 14,2 C 14,2 C 75 % 1017,8 hPa 0,0 mm 8,4 km/h (2 Bft) W 261 0 min 0,000 mm 1,8 UV-I 202 W/m 9,8 C 16,1 km/h (3 Bft)
05.09.2016 10:53 14,1 C 14,2 C 76 % 1017,8 hPa 0,0 mm 7,4 km/h (2 Bft) W 259 0 min 0,000 mm 1,9 UV-I 209 W/m 9,9 C 9,7 km/h (2 Bft)
05.09.2016 10:54 14,1 C 14,1 C 75 % 1017,7 hPa 0,0 mm 9,8 km/h (2 Bft) W-SW 257 0 min 0,000 mm 2,0 UV-I 221 W/m 9,7 C 14,5 km/h (3 Bft)
05.09.2016 10:55 14,1 C 14,1 C 77 % 1017,8 hPa 0,0 mm 9,2 km/h (2 Bft) W 266 0 min 0,000 mm 2,0 UV-I 221 W/m 10,1 C 16,1 km/h (3 Bft)
05.09.2016 10:56 14,1 C 14,1 C 76 % 1017,8 hPa 0,0 mm 8,6 km/h (2 Bft) W 261 0 min 0,000 mm 2,0 UV-I 221 W/m 9,9 C 14,5 km/h (3 Bft)
05.09.2016 10:57 14,2 C 14,2 C 76 % 1017,8 hPa 0,0 mm 7,0 km/h (2 Bft) S-SW 207 0 min 0,000 mm 2,1 UV-I 234 W/m 10,0 C 12,9 km/h (3 Bft)
05.09.2016 10:58 14,2 C 14,2 C 76 % 1017,7 hPa 0,0 mm 8,9 km/h (2 Bft) W-NW 298 0 min 0,000 mm 2,2 UV-I 248 W/m 10,0 C 20,9 km/h (4 Bft)
05.09.2016 10:59 14,2 C 14,2 C 75 % 1017,8 hPa 0,0 mm 8,0 km/h (2 Bft) W-NW 291 0 min 0,000 mm 2,2 UV-I 260 W/m 9,8 C 12,9 km/h (3 Bft)
05.09.2016 11:00 14,2 C 14,2 C 74 % 1017,9 hPa 0,0 mm 8,9 km/h (2 Bft) W-NW 293 0 min 0,000 mm 2,2 UV-I 269 W/m 9,6 C 24,1 km/h (4 Bft)
05.09.2016 11:01 14,2 C 14,2 C 76 % 1017,9 hPa 0,0 mm 10,7 km/h (2 Bft) S 174 0 min 0,127 mm 2,2 UV-I 260 W/m 10,0 C 22,5 km/h (4 Bft)
05.09.2016 11:02 14,2 C 14,2 C 75 % 1017,9 hPa 0,0 mm 9,0 km/h (2 Bft) W-NW 293 0 min 0,000 mm 2,2 UV-I 274 W/m 9,8 C 17,7 km/h (3 Bft)
05.09.2016 11:03 14,2 C 14,2 C 74 % 1017,9 hPa 0,0 mm 13,4 km/h (3 Bft) W-SW 252 0 min 0,000 mm 2,3 UV-I 281 W/m 9,6 C 19,3 km/h (3 Bft)
05.09.2016 11:04 14,2 C 14,2 C 75 % 1017,9 hPa 0,0 mm 8,6 km/h (2 Bft) W-SW 250 0 min 0,000 mm 2,3 UV-I 281 W/m 9,8 C 14,5 km/h (3 Bft)
05.09.2016 11:05 14,2 C 14,2 C 77 % 1017,9 hPa 0,0 mm 10,3 km/h (2 Bft) W 267 0 min 0,000 mm 2,3 UV-I 279 W/m 10,2 C 16,1 km/h (3 Bft)
05.09.2016 11:06 14,3 C 14,3 C 77 % 1017,9 hPa 0,0 mm 6,8 km/h (2 Bft) W 272 0 min 0,000 mm 2,1 UV-I 265 W/m 10,3 C 11,3 km/h (2 Bft)
05.09.2016 11:07 14,3 C 14,3 C 76 % 1017,9 hPa 0,0 mm 10,0 km/h (2 Bft) W 260 0 min 0,000 mm 2,0 UV-I 248 W/m 10,1 C 16,1 km/h (3 Bft)
05.09.2016 11:08 14,3 C 14,3 C 76 % 1017,9 hPa 0,0 mm 6,0 km/h (2 Bft) W-NW 290 0 min 0,000 mm 1,9 UV-I 229 W/m 10,1 C 14,5 km/h (3 Bft)
05.09.2016 11:09 14,3 C 14,4 C 76 % 1017,9 hPa 0,0 mm 6,6 km/h (2 Bft) W-SW 244 0 min 0,000 mm 1,9 UV-I 234 W/m 10,1 C 11,3 km/h (2 Bft)
05.09.2016 11:10 14,4 C 14,4 C 78 % 1017,9 hPa 0,0 mm 4,1 km/h (1 Bft) W-SW 257 0 min 0,000 mm 2,0 UV-I 243 W/m 10,6 C 6,4 km/h (2 Bft)
05.09.2016 11:11 14,4 C 14,4 C 78 % 1017,9 hPa 0,0 mm 4,7 km/h (1 Bft) W 260 0 min 0,000 mm 2,0 UV-I 246 W/m 10,6 C 6,4 km/h (2 Bft)
05.09.2016 11:12 14,5 C 14,5 C 77 % 1017,9 hPa 0,0 mm 6,2 km/h (2 Bft) W-SW 248 0 min 0,000 mm 2,2 UV-I 255 W/m 10,5 C 11,3 km/h (2 Bft)
05.09.2016 11:13 14,5 C 14,6 C 76 % 1017,9 hPa 0,0 mm 8,1 km/h (2 Bft) W 265 0 min 0,000 mm 2,3 UV-I 278 W/m 10,3 C 12,9 km/h (3 Bft)
05.09.2016 11:14 14,6 C 14,6 C 77 % 1017,9 hPa 0,0 mm 10,8 km/h (2 Bft) W-SW 248 0 min 0,000 mm 2,3 UV-I 294 W/m 10,6 C 14,5 km/h (3 Bft)
05.09.2016 11:15 14,6 C 14,6 C 75 % 1017,9 hPa 0,0 mm 9,9 km/h (2 Bft) W 261 0 min 0,000 mm 2,3 UV-I 281 W/m 10,2 C 14,5 km/h (3 Bft)
05.09.2016 11:16 14,6 C 14,6 C 76 % 1017,9 hPa 0,0 mm 5,3 km/h (1 Bft) W 272 0 min 0,000 mm 2,4 UV-I 279 W/m 10,4 C 9,7 km/h (2 Bft)
05.09.2016 11:17 14,6 C 14,6 C 79 % 1017,9 hPa 0,0 mm 6,0 km/h (2 Bft) W-SW 250 0 min 0,000 mm 2,6 UV-I 306 W/m 11,0 C 11,3 km/h (2 Bft)
05.09.2016 11:18 14,7 C 14,7 C 76 % 1018,0 hPa 0,0 mm 3,4 km/h (1 Bft) W 278 0 min 0,000 mm 2,8 UV-I 343 W/m 10,5 C 4,8 km/h (1 Bft)
05.09.2016 11:19 14,7 C 14,7 C 78 % 1018,0 hPa 0,0 mm 3,4 km/h (1 Bft) W 275 1 min 0,000 mm 3,0 UV-I 454 W/m 10,9 C 6,4 km/h (2 Bft)
05.09.2016 11:20 14,8 C 14,8 C 80 % 1018,0 hPa 0,0 mm 10,3 km/h (2 Bft) W-SW 254 1 min 0,000 mm 3,4 UV-I 520 W/m 11,4 C 17,7 km/h (3 Bft)
05.09.2016 11:21 14,9 C 14,9 C 76 % 1018,0 hPa 0,0 mm 8,1 km/h (2 Bft) W 260 1 min 0,000 mm 3,4 UV-I 473 W/m 10,7 C 14,5 km/h (3 Bft)
05.09.2016 11:22 15,1 C 15,1 C 77 % 1018,0 hPa 0,0 mm 11,6 km/h (2 Bft) W 260 1 min 0,000 mm 3,5 UV-I 473 W/m 11,1 C 17,7 km/h (3 Bft)
05.09.2016 11:23 15,2 C 15,2 C 77 % 1018,0 hPa 0,0 mm 9,0 km/h (2 Bft) W 281 1 min 0,000 mm 3,2 UV-I 473 W/m 11,2 C 12,9 km/h (3 Bft)
05.09.2016 11:24 15,3 C 15,3 C 75 % 1018,0 hPa 0,0 mm 4,7 km/h (1 Bft) W 269 1 min 0,000 mm 2,9 UV-I 394 W/m 10,9 C 12,9 km/h (3 Bft)
05.09.2016 11:25 15,4 C 15,4 C 77 % 1018,0 hPa 0,0 mm 8,8 km/h (2 Bft) W-NW 292 1 min 0,000 mm 2,6 UV-I 381 W/m 11,4 C 22,5 km/h (4 Bft)
05.09.2016 11:26 15,4 C 15,4 C 74 % 1018,0 hPa 0,0 mm 16,0 km/h (3 Bft) W-NW 284 0 min 0,000 mm 2,5 UV-I 290 W/m 10,8 C 20,9 km/h (4 Bft)
05.09.2016 11:27 15,4 C 15,4 C 72 % 1018,2 hPa 0,0 mm 11,6 km/h (2 Bft) W-NW 286 0 min 0,000 mm 2,1 UV-I 265 W/m 10,4 C 14,5 km/h (3 Bft)
05.09.2016 11:28 15,3 C 15,4 C 73 % 1018,1 hPa 0,0 mm 8,1 km/h (2 Bft) NW 317 0 min 0,000 mm 2,1 UV-I 260 W/m 10,5 C 11,3 km/h (2 Bft)
05.09.2016 11:29 15,3 C 15,3 C 72 % 1018,1 hPa 0,0 mm 11,3 km/h (2 Bft) W-NW 290 0 min 0,000 mm 2,2 UV-I 258 W/m 10,3 C 19,3 km/h (3 Bft)
05.09.2016 11:30 15,2 C 15,3 C 74 % 1018,1 hPa 0,0 mm 10,8 km/h (2 Bft) W-NW 283 0 min 0,000 mm 2,2 UV-I 250 W/m 10,6 C 16,1 km/h (3 Bft)
05.09.2016 11:31 15,2 C 15,2 C 74 % 1018,1 hPa 0,0 mm 13,7 km/h (3 Bft) NW 319 0 min 0,000 mm 2,2 UV-I 269 W/m 10,6 C 17,7 km/h (3 Bft)
05.09.2016 11:32 15,2 C 15,2 C 73 % 1018,2 hPa 0,0 mm 9,3 km/h (2 Bft) W 261 0 min 0,000 mm 2,5 UV-I 283 W/m 10,4 C 17,7 km/h (3 Bft)
05.09.2016 11:33 15,2 C 15,2 C 76 % 1018,1 hPa 0,0 mm 12,1 km/h (2 Bft) W-NW 282 0 min 0,000 mm 2,7 UV-I 322 W/m 11,0 C 17,7 km/h (3 Bft)
05.09.2016 11:34 15,2 C 15,2 C 76 % 1018,2 hPa 0,0 mm 13,8 km/h (3 Bft) W 259 0 min 0,000 mm 2,7 UV-I 315 W/m 11,0 C 19,3 km/h (3 Bft)
05.09.2016 11:35 15,1 C 15,2 C 72 % 1018,2 hPa 0,0 mm 9,0 km/h (2 Bft) W 279 0 min 0,000 mm 2,7 UV-I 336 W/m 10,1 C 16,1 km/h (3 Bft)
05.09.2016 11:36 15,2 C 15,2 C 74 % 1018,2 hPa 0,0 mm 8,0 km/h (2 Bft) W-NW 294 0 min 0,000 mm 2,5 UV-I 327 W/m 10,6 C 17,7 km/h (3 Bft)
05.09.2016 11:37 15,2 C 15,2 C 71 % 1018,3 hPa 0,0 mm 11,3 km/h (2 Bft) W 267 0 min 0,000 mm 2,3 UV-I 288 W/m 10,0 C 16,1 km/h (3 Bft)
05.09.2016 11:38 15,2 C 15,2 C 73 % 1018,3 hPa 0,0 mm 13,2 km/h (3 Bft) W 270 0 min 0,000 mm 2,4 UV-I 290 W/m 10,4 C 20,9 km/h (4 Bft)
05.09.2016 11:39 15,1 C 15,2 C 74 % 1018,4 hPa 0,0 mm 4,8 km/h (1 Bft) W-SW 257 0 min 0,000 mm 1,8 UV-I 234 W/m 10,5 C 11,3 km/h (2 Bft)
05.09.2016 11:40 15,1 C 15,2 C 73 % 1018,4 hPa 0,0 mm 11,1 km/h (2 Bft) W 264 0 min 0,000 mm 1,7 UV-I 216 W/m 10,3 C 14,5 km/h (3 Bft)
05.09.2016 11:41 15,1 C 15,1 C 74 % 1018,3 hPa 0,0 mm 9,0 km/h (2 Bft) W-SW 253 0 min 0,000 mm 1,7 UV-I 209 W/m 10,5 C 14,5 km/h (3 Bft)
05.09.2016 11:42 15,1 C 15,1 C 76 % 1018,3 hPa 0,0 mm 14,0 km/h (3 Bft) W-SW 242 0 min 0,000 mm 1,8 UV-I 218 W/m 10,9 C 17,7 km/h (3 Bft)
05.09.2016 11:43 15,0 C 15,1 C 72 % 1018,3 hPa 0,0 mm 13,3 km/h (3 Bft) W-NW 294 0 min 0,000 mm 1,8 UV-I 218 W/m 10,0 C 20,9 km/h (4 Bft)
05.09.2016 11:44 14,9 C 15,0 C 72 % 1018,4 hPa 0,0 mm 12,1 km/h (2 Bft) SW 236 0 min 0,000 mm 1,8 UV-I 213 W/m 9,9 C 14,5 km/h (3 Bft)
05.09.2016 11:45 14,9 C 14,9 C 72 % 1018,4 hPa 0,0 mm 15,0 km/h (3 Bft) W 275 0 min 0,000 mm 1,8 UV-I 207 W/m 9,9 C 22,5 km/h (4 Bft)
05.09.2016 11:46 14,9 C 14,9 C 71 % 1018,4 hPa 0,0 mm 15,5 km/h (3 Bft) W-SW 250 0 min 0,000 mm 1,8 UV-I 195 W/m 9,7 C 22,5 km/h (4 Bft)
05.09.2016 11:47 14,8 C 14,9 C 74 % 1018,4 hPa 0,0 mm 14,0 km/h (3 Bft) W-SW 245 0 min 0,000 mm 1,8 UV-I 190 W/m 10,2 C 20,9 km/h (4 Bft)
05.09.2016 11:48 14,8 C 14,8 C 73 % 1018,4 hPa 0,0 mm 9,7 km/h (2 Bft) W-SW 244 0 min 0,000 mm 1,7 UV-I 179 W/m 10,0 C 12,9 km/h (3 Bft)
05.09.2016 11:49 14,7 C 14,8 C 73 % 1018,4 hPa 0,0 mm 9,4 km/h (2 Bft) W 279 0 min 0,000 mm 1,6 UV-I 183 W/m 9,9 C 12,9 km/h (3 Bft)
05.09.2016 11:50 14,7 C 14,8 C 74 % 1018,4 hPa 0,0 mm 11,8 km/h (2 Bft) W-NW 296 0 min 0,000 mm 1,8 UV-I 211 W/m 10,1 C 17,7 km/h (3 Bft)
05.09.2016 11:51 14,7 C 14,8 C 73 % 1018,4 hPa 0,0 mm 10,2 km/h (2 Bft) W-SW 247 0 min 0,000 mm 2,0 UV-I 258 W/m 9,9 C 19,3 km/h (3 Bft)
05.09.2016 11:52 14,7 C 14,8 C 75 % 1018,4 hPa 0,0 mm 10,0 km/h (2 Bft) W-NW 291 0 min 0,000 mm 2,1 UV-I 279 W/m 10,3 C 17,7 km/h (3 Bft)
05.09.2016 11:53 14,8 C 14,8 C 74 % 1018,4 hPa 0,0 mm 8,9 km/h (2 Bft) W-SW 241 0 min 0,000 mm 2,2 UV-I 288 W/m 10,2 C 16,1 km/h (3 Bft)
05.09.2016 11:54 14,8 C 14,8 C 74 % 1018,4 hPa 0,0 mm 12,3 km/h (3 Bft) W 267 0 min 0,000 mm 1,9 UV-I 260 W/m 10,2 C 17,7 km/h (3 Bft)
05.09.2016 11:55 14,8 C 14,8 C 74 % 1018,4 hPa 0,0 mm 6,5 km/h (2 Bft) W 276 0 min 0,000 mm 1,9 UV-I 269 W/m 10,2 C 9,7 km/h (2 Bft)
05.09.2016 11:56 14,9 C 14,9 C 75 % 1018,4 hPa 0,0 mm 5,6 km/h (1 Bft) W 271 0 min 0,000 mm 2,2 UV-I 281 W/m 10,5 C 11,3 km/h (2 Bft)
05.09.2016 11:57 14,9 C 14,9 C 76 % 1018,4 hPa 0,0 mm 8,0 km/h (2 Bft) SW 234 0 min 0,000 mm 2,5 UV-I 294 W/m 10,7 C 11,3 km/h (2 Bft)
05.09.2016 11:58 14,9 C 14,9 C 74 % 1018,4 hPa 0,0 mm 8,7 km/h (2 Bft) W-NW 292 0 min 0,000 mm 2,7 UV-I 315 W/m 10,3 C 14,5 km/h (3 Bft)
05.09.2016 11:59 14,9 C 14,9 C 74 % 1018,4 hPa 0,0 mm 5,3 km/h (1 Bft) W 263 0 min 0,000 mm 2,9 UV-I 348 W/m 10,3 C 9,7 km/h (2 Bft)
05.09.2016 12:00 14,9 C 14,9 C 75 % 1018,4 hPa 0,0 mm 15,0 km/h (3 Bft) W-NW 282 0 min 0,000 mm 3,5 UV-I 348 W/m 10,5 C 22,5 km/h (4 Bft)
05.09.2016 12:01 14,9 C 15,0 C 75 % 1018,4 hPa 0,0 mm 13,1 km/h (3 Bft) W-NW 284 0 min 0,177 mm 3,0 UV-I 348 W/m 10,5 C 20,9 km/h (4 Bft)
05.09.2016 12:02 15,0 C 15,0 C 75 % 1018,4 hPa 0,0 mm 11,1 km/h (2 Bft) W 267 1 min 0,000 mm 4,9 UV-I 429 W/m 10,6 C 17,7 km/h (3 Bft)
05.09.2016 12:03 15,1 C 15,1 C 76 % 1018,5 hPa 0,0 mm 10,1 km/h (2 Bft) W-NW 290 1 min 0,000 mm 3,7 UV-I 439 W/m 10,9 C 16,1 km/h (3 Bft)
05.09.2016 12:04 15,1 C 15,1 C 77 % 1018,5 hPa 0,0 mm 10,8 km/h (2 Bft) N-NW 328 1 min 0,000 mm 3,4 UV-I 434 W/m 11,1 C 14,5 km/h (3 Bft)
05.09.2016 12:05 15,2 C 15,2 C 75 % 1018,5 hPa 0,0 mm 7,4 km/h (2 Bft) W-NW 295 1 min 0,000 mm 3,5 UV-I 434 W/m 10,8 C 12,9 km/h (3 Bft)
05.09.2016 12:06 15,2 C 15,2 C 77 % 1018,4 hPa 0,0 mm 7,6 km/h (2 Bft) NW 306 1 min 0,000 mm 3,2 UV-I 434 W/m 11,2 C 11,3 km/h (2 Bft)
05.09.2016 12:07 15,3 C 15,3 C 76 % 1018,4 hPa 0,0 mm 7,6 km/h (2 Bft) W-NW 302 1 min 0,000 mm 3,4 UV-I 489 W/m 11,1 C 12,9 km/h (3 Bft)
05.09.2016 12:08 15,3 C 15,3 C 76 % 1018,5 hPa 0,0 mm 9,0 km/h (2 Bft) W 280 1 min 0,000 mm 3,8 UV-I 468 W/m 11,1 C 12,9 km/h (3 Bft)
05.09.2016 12:09 15,4 C 15,4 C 76 % 1018,4 hPa 0,0 mm 6,0 km/h (2 Bft) W-NW 288 0 min 0,000 mm 3,1 UV-I 383 W/m 11,2 C 11,3 km/h (2 Bft)
05.09.2016 12:10 15,4 C 15,4 C 74 % 1018,5 hPa 0,0 mm 12,6 km/h (3 Bft) W-NW 293 0 min 0,000 mm 2,8 UV-I 330 W/m 10,8 C 16,1 km/h (3 Bft)
05.09.2016 12:11 15,4 C 15,4 C 74 % 1018,4 hPa 0,0 mm 13,9 km/h (3 Bft) W 259 0 min 0,000 mm 2,6 UV-I 290 W/m 10,8 C 17,7 km/h (3 Bft)
05.09.2016 12:12 15,4 C 15,4 C 76 % 1018,5 hPa 0,0 mm 6,2 km/h (2 Bft) W-SW 249 0 min 0,000 mm 2,7 UV-I 278 W/m 11,2 C 11,3 km/h (2 Bft)
05.09.2016 12:13 15,4 C 15,4 C 77 % 1018,6 hPa 0,0 mm 13,7 km/h (3 Bft) W-SW 242 0 min 0,000 mm 3,1 UV-I 330 W/m 11,4 C 24,1 km/h (4 Bft)
05.09.2016 12:14 15,3 C 15,4 C 74 % 1018,5 hPa 0,0 mm 19,1 km/h (3 Bft) W 264 0 min 0,000 mm 3,4 UV-I 381 W/m 10,7 C 24,1 km/h (4 Bft)
05.09.2016 12:15 15,2 C 15,3 C 72 % 1018,5 hPa 0,0 mm 13,1 km/h (3 Bft) W-SW 253 1 min 0,000 mm 3,5 UV-I 404 W/m 10,2 C 19,3 km/h (3 Bft)
05.09.2016 12:16 15,2 C 15,2 C 74 % 1018,5 hPa 0,0 mm 10,4 km/h (2 Bft) W-SW 246 0 min 0,000 mm 3,4 UV-I 380 W/m 10,6 C 16,1 km/h (3 Bft)
05.09.2016 12:17 15,2 C 15,2 C 73 % 1018,5 hPa 0,0 mm 14,3 km/h (3 Bft) W 279 0 min 0,000 mm 3,5 UV-I 360 W/m 10,4 C 17,7 km/h (3 Bft)
05.09.2016 12:18 15,2 C 15,2 C 75 % 1018,5 hPa 0,0 mm 12,3 km/h (3 Bft) W-SW 258 0 min 0,000 mm 3,5 UV-I 385 W/m 10,8 C 16,1 km/h (3 Bft)
05.09.2016 12:19 15,2 C 15,2 C 74 % 1018,3 hPa 0,0 mm 11,6 km/h (2 Bft) W 280 1 min 0,000 mm 4,4 UV-I 471 W/m 10,6 C 16,1 km/h (3 Bft)
05.09.2016 12:20 15,2 C 15,2 C 76 % 1018,4 hPa 0,0 mm 7,9 km/h (2 Bft) S 183 1 min 0,000 mm 3,7 UV-I 427 W/m 11,0 C 12,9 km/h (3 Bft)
05.09.2016 12:21 15,3 C 15,3 C 74 % 1018,4 hPa 0,0 mm 11,9 km/h (2 Bft) W-SW 246 1 min 0,000 mm 3,6 UV-I 478 W/m 10,7 C 17,7 km/h (3 Bft)
05.09.2016 12:22 15,5 C 15,5 C 75 % 1018,4 hPa 0,0 mm 6,2 km/h (2 Bft) W-SW 246 1 min 0,000 mm 5,6 UV-I 478 W/m 11,1 C 9,7 km/h (2 Bft)
05.09.2016 12:23 15,7 C 15,7 C 75 % 1018,4 hPa 0,0 mm 7,7 km/h (2 Bft) NW 309 1 min 0,000 mm 4,1 UV-I 979 W/m 11,3 C 12,9 km/h (3 Bft)
05.09.2016 12:24 15,9 C 15,9 C 74 % 1018,4 hPa 0,0 mm 9,0 km/h (2 Bft) NW 313 1 min 0,000 mm 4,3 UV-I 464 W/m 11,3 C 14,5 km/h (3 Bft)
05.09.2016 12:25 16,0 C 16,0 C 74 % 1018,4 hPa 0,0 mm 9,9 km/h (2 Bft) W-SW 242 1 min 0,000 mm 3,6 UV-I 469 W/m 11,4 C 16,1 km/h (3 Bft)
05.09.2016 12:26 16,1 C 16,1 C 75 % 1018,4 hPa 0,0 mm 14,3 km/h (3 Bft) W 276 1 min 0,000 mm 2,9 UV-I 469 W/m 11,7 C 20,9 km/h (4 Bft)
05.09.2016 12:27 16,1 C 16,1 C 72 % 1018,4 hPa 0,0 mm 15,6 km/h (3 Bft) W 279 0 min 0,000 mm 2,8 UV-I 283 W/m 11,0 C 25,7 km/h (4 Bft)
05.09.2016 12:28 16,0 C 16,1 C 71 % 1018,4 hPa 0,0 mm 11,9 km/h (2 Bft) W 281 0 min 0,000 mm 3,1 UV-I 316 W/m 10,7 C 17,7 km/h (3 Bft)
05.09.2016 12:29 15,9 C 16,0 C 72 % 1018,4 hPa 0,0 mm 15,6 km/h (3 Bft) W-NW 293 0 min 0,000 mm 3,6 UV-I 366 W/m 10,9 C 24,1 km/h (4 Bft)
05.09.2016 12:30 15,8 C 15,9 C 73 % 1018,4 hPa 0,0 mm 14,2 km/h (3 Bft) W-SW 250 0 min 0,000 mm 5,5 UV-I 366 W/m 11,0 C 20,9 km/h (4 Bft)
05.09.2016 12:31 15,8 C 15,8 C 72 % 1018,4 hPa 0,0 mm 18,5 km/h (3 Bft) W-NW 292 0 min 0,000 mm 5,2 UV-I 366 W/m 10,8 C 32,2 km/h (5 Bft)
05.09.2016 12:32 15,8 C 15,8 C 70 % 1018,4 hPa 0,0 mm 16,2 km/h (3 Bft) W-NW 294 0 min 0,000 mm 3,0 UV-I 366 W/m 10,3 C 22,5 km/h (4 Bft)
05.09.2016 12:33 15,7 C 15,8 C 73 % 1018,4 hPa 0,0 mm 12,1 km/h (2 Bft) W 263 0 min 0,000 mm 2,9 UV-I 283 W/m 10,9 C 22,5 km/h (4 Bft)
05.09.2016 12:34 15,7 C 15,7 C 70 % 1018,4 hPa 0,0 mm 17,4 km/h (3 Bft) SW 216 0 min 0,000 mm 2,8 UV-I 272 W/m 10,2 C 25,7 km/h (4 Bft)
05.09.2016 12:35 15,6 C 15,7 C 70 % 1018,5 hPa 0,0 mm 18,4 km/h (3 Bft) W 259 0 min 0,000 mm 3,1 UV-I 309 W/m 10,1 C 27,4 km/h (4 Bft)
05.09.2016 12:36 15,5 C 15,6 C 71 % 1018,5 hPa 0,0 mm 23,8 km/h (4 Bft) W 259 0 min 0,000 mm 3,3 UV-I 404 W/m 10,3 C 32,2 km/h (5 Bft)
05.09.2016 12:37 15,4 C 15,5 C 73 % 1018,6 hPa 0,0 mm 18,8 km/h (3 Bft) W-SW 250 0 min 0,000 mm 6,1 UV-I 404 W/m 10,6 C 24,1 km/h (4 Bft)
05.09.2016 12:38 15,4 C 15,4 C 72 % 1018,5 hPa 0,0 mm 16,3 km/h (3 Bft) W-NW 294 0 min 0,000 mm 3,7 UV-I 404 W/m 10,4 C 25,7 km/h (4 Bft)
05.09.2016 12:39 15,5 C 15,5 C 73 % 1018,4 hPa 0,0 mm 17,4 km/h (3 Bft) W 270 1 min 0,000 mm 6,1 UV-I 413 W/m 10,7 C 25,7 km/h (4 Bft)
05.09.2016 12:40 15,6 C 15,6 C 74 % 1018,5 hPa 0,0 mm 16,4 km/h (3 Bft) SW 234 1 min 0,000 mm 6,1 UV-I 413 W/m 11,0 C 22,5 km/h (4 Bft)
05.09.2016 12:41 15,8 C 15,8 C 73 % 1018,5 hPa 0,0 mm 20,2 km/h (4 Bft) W-SW 254 1 min 0,000 mm 4,2 UV-I 413 W/m 11,0 C 35,4 km/h (5 Bft)
05.09.2016 12:42 15,9 C 15,9 C 72 % 1018,5 hPa 0,0 mm 21,7 km/h (4 Bft) W-NW 284 1 min 0,000 mm 6,3 UV-I 413 W/m 10,9 C 29,0 km/h (5 Bft)
05.09.2016 12:43 16,1 C 16,1 C 72 % 1018,5 hPa 0,0 mm 16,4 km/h (3 Bft) W-SW 257 1 min 0,000 mm 6,1 UV-I 413 W/m 11,0 C 24,1 km/h (4 Bft)
05.09.2016 12:44 16,1 C 16,2 C 73 % 1018,6 hPa 0,0 mm 12,6 km/h (3 Bft) SW 231 1 min 0,000 mm 5,6 UV-I 413 W/m 11,3 C 22,5 km/h (4 Bft)
05.09.2016 12:45 16,2 C 16,3 C 73 % 1018,5 hPa 0,0 mm 13,5 km/h (3 Bft) W-SW 243 1 min 0,000 mm 3,8 UV-I 413 W/m 11,4 C 19,3 km/h (3 Bft)
05.09.2016 12:46 16,3 C 16,3 C 71 % 1018,6 hPa 0,0 mm 16,2 km/h (3 Bft) W-SW 257 1 min 0,000 mm 2,7 UV-I 413 W/m 11,0 C 24,1 km/h (4 Bft)
05.09.2016 12:47 16,1 C 16,3 C 71 % 1018,5 hPa 0,0 mm 17,2 km/h (3 Bft) W 278 0 min 0,000 mm 2,9 UV-I 179 W/m 10,8 C 22,5 km/h (4 Bft)
05.09.2016 12:48 16,0 C 16,1 C 71 % 1018,6 hPa 0,0 mm 10,9 km/h (2 Bft) W-SW 255 0 min 0,000 mm 5,4 UV-I 179 W/m 10,7 C 20,9 km/h (4 Bft)
05.09.2016 12:49 15,9 C 16,0 C 74 % 1018,5 hPa 0,0 mm 14,0 km/h (3 Bft) W-SW 248 0 min 0,000 mm 3,1 UV-I 179 W/m 11,3 C 20,9 km/h (4 Bft)
05.09.2016 12:50 15,8 C 15,9 C 74 % 1018,5 hPa 0,0 mm 15,2 km/h (3 Bft) W-NW 288 0 min 0,000 mm 2,8 UV-I 179 W/m 11,2 C 22,5 km/h (4 Bft)
05.09.2016 12:51 15,7 C 15,8 C 74 % 1018,5 hPa 0,0 mm 12,9 km/h (3 Bft) W 269 0 min 0,000 mm 5,9 UV-I 179 W/m 11,1 C 19,3 km/h (3 Bft)
05.09.2016 12:52 15,7 C 15,7 C 71 % 1018,5 hPa 0,0 mm 14,6 km/h (3 Bft) W 281 1 min 0,000 mm 5,6 UV-I 788 W/m 10,5 C 24,1 km/h (4 Bft)
05.09.2016 12:53 15,8 C 15,8 C 71 % 1018,6 hPa 0,0 mm 15,6 km/h (3 Bft) SW 232 1 min 0,000 mm 5,5 UV-I 722 W/m 10,6 C 22,5 km/h (4 Bft)
05.09.2016 12:54 15,8 C 15,8 C 73 % 1018,5 hPa 0,0 mm 17,5 km/h (3 Bft) W 281 1 min 0,000 mm 4,7 UV-I 722 W/m 11,0 C 24,1 km/h (4 Bft)
05.09.2016 12:55 15,9 C 15,9 C 72 % 1018,5 hPa 0,0 mm 5,6 km/h (1 Bft) W 277 1 min 0,000 mm 5,2 UV-I 722 W/m 10,9 C 8,0 km/h (2 Bft)
05.09.2016 12:56 16,1 C 16,1 C 74 % 1018,5 hPa 0,0 mm 6,7 km/h (2 Bft) W-SW 247 1 min 0,000 mm 5,3 UV-I 722 W/m 11,5 C 14,5 km/h (3 Bft)
05.09.2016 12:57 16,1 C 16,2 C 71 % 1018,6 hPa 0,0 mm 14,8 km/h (3 Bft) W 259 1 min 0,000 mm 5,6 UV-I 821 W/m 10,8 C 24,1 km/h (4 Bft)
05.09.2016 12:58 16,2 C 16,2 C 71 % 1018,6 hPa 0,0 mm 15,8 km/h (3 Bft) SW 234 1 min 0,000 mm 5,6 UV-I 821 W/m 10,9 C 24,1 km/h (4 Bft)
05.09.2016 12:59 16,2 C 16,2 C 71 % 1018,5 hPa 0,0 mm 11,4 km/h (2 Bft) W 277 1 min 0,000 mm 4,9 UV-I 445 W/m 10,9 C 22,5 km/h (4 Bft)
05.09.2016 13:00 16,2 C 16,2 C 71 % 1018,5 hPa 0,0 mm 14,5 km/h (3 Bft) W-SW 255 1 min 0,000 mm 5,2 UV-I 631 W/m 10,9 C 22,5 km/h (4 Bft)
05.09.2016 13:01 16,2 C 16,2 C 69 % 1018,4 hPa 0,0 mm 12,9 km/h (3 Bft) W-SW 248 1 min 0,305 mm 4,9 UV-I 726 W/m 10,5 C 20,9 km/h (4 Bft)
05.09.2016 13:02 16,2 C 16,2 C 72 % 1018,5 hPa 0,0 mm 12,5 km/h (3 Bft) W 270 1 min 0,000 mm 4,2 UV-I 670 W/m 11,1 C 20,9 km/h (4 Bft)
05.09.2016 13:03 16,3 C 16,3 C 71 % 1018,5 hPa 0,0 mm 13,1 km/h (3 Bft) W-NW 287 1 min 0,000 mm 5,2 UV-I 745 W/m 11,0 C 20,9 km/h (4 Bft)
05.09.2016 13:04 16,2 C 16,3 C 70 % 1018,6 hPa 0,0 mm 17,0 km/h (3 Bft) NW 304 1 min 0,000 mm 4,9 UV-I 745 W/m 10,7 C 25,7 km/h (4 Bft)
05.09.2016 13:05 16,2 C 16,2 C 69 % 1018,5 hPa 0,0 mm 13,5 km/h (3 Bft) W 263 1 min 0,000 mm 6,1 UV-I 821 W/m 10,5 C 20,9 km/h (4 Bft)
05.09.2016 13:06 16,2 C 16,3 C 73 % 1018,6 hPa 0,0 mm 14,3 km/h (3 Bft) SW 217 1 min 0,000 mm 5,4 UV-I 821 W/m 11,4 C 25,7 km/h (4 Bft)
05.09.2016 13:07 16,3 C 16,3 C 71 % 1018,5 hPa 0,0 mm 13,1 km/h (3 Bft) W-NW 285 1 min 0,000 mm 5,6 UV-I 821 W/m 11,0 C 22,5 km/h (4 Bft)
05.09.2016 13:08 16,3 C 16,3 C 70 % 1018,4 hPa 0,0 mm 17,7 km/h (3 Bft) W 264 1 min 0,000 mm 5,4 UV-I 821 W/m 10,8 C 29,0 km/h (5 Bft)
05.09.2016 13:09 16,3 C 16,3 C 69 % 1018,4 hPa 0,0 mm 23,2 km/h (4 Bft) W 271 1 min 0,000 mm 5,9 UV-I 821 W/m 10,6 C 35,4 km/h (5 Bft)
05.09.2016 13:10 16,3 C 16,3 C 70 % 1018,4 hPa 0,0 mm 19,0 km/h (3 Bft) W 270 1 min 0,000 mm 5,3 UV-I 751 W/m 10,8 C 27,4 km/h (4 Bft)
05.09.2016 13:11 16,3 C 16,3 C 69 % 1018,4 hPa 0,0 mm 14,6 km/h (3 Bft) W-SW 257 1 min 0,000 mm 5,4 UV-I 914 W/m 10,6 C 25,7 km/h (4 Bft)
05.09.2016 13:12 16,4 C 16,4 C 72 % 1018,4 hPa 0,0 mm 15,6 km/h (3 Bft) W-SW 257 1 min 0,000 mm 5,9 UV-I 911 W/m 11,3 C 19,3 km/h (3 Bft)
05.09.2016 13:13 16,6 C 16,6 C 71 % 1018,3 hPa 0,0 mm 14,8 km/h (3 Bft) N 355 1 min 0,000 mm 5,7 UV-I 835 W/m 11,3 C 25,7 km/h (4 Bft)
05.09.2016 13:14 16,6 C 16,6 C 70 % 1018,3 hPa 0,0 mm 17,6 km/h (3 Bft) W 261 1 min 0,000 mm 4,9 UV-I 835 W/m 11,1 C 24,1 km/h (4 Bft)
05.09.2016 13:15 16,6 C 16,7 C 70 % 1018,3 hPa 0,0 mm 17,8 km/h (3 Bft) W-SW 246 1 min 0,000 mm 5,9 UV-I 835 W/m 11,1 C 25,7 km/h (4 Bft)
05.09.2016 13:16 16,7 C 16,7 C 74 % 1018,3 hPa 0,0 mm 12,8 km/h (3 Bft) W-SW 247 1 min 0,000 mm 6,2 UV-I 877 W/m 12,0 C 17,7 km/h (3 Bft)
05.09.2016 13:17 16,7 C 16,7 C 69 % 1018,4 hPa 0,0 mm 14,0 km/h (3 Bft) W 260 1 min 0,000 mm 5,8 UV-I 758 W/m 11,0 C 20,9 km/h (4 Bft)
05.09.2016 13:18 16,7 C 16,7 C 70 % 1018,3 hPa 0,0 mm 16,4 km/h (3 Bft) W-SW 249 1 min 0,000 mm 6,1 UV-I 830 W/m 11,2 C 27,4 km/h (4 Bft)
05.09.2016 13:19 16,7 C 16,7 C 70 % 1018,3 hPa 0,0 mm 16,4 km/h (3 Bft) S-SW 202 1 min 0,000 mm 6,1 UV-I 788 W/m 11,2 C 22,5 km/h (4 Bft)
05.09.2016 13:20 16,7 C 16,7 C 70 % 1018,4 hPa 0,0 mm 18,1 km/h (3 Bft) W-SW 249 1 min 0,000 mm 5,7 UV-I 759 W/m 11,2 C 25,7 km/h (4 Bft)
05.09.2016 13:21 16,7 C 16,7 C 69 % 1018,4 hPa 0,0 mm 16,1 km/h (3 Bft) W-SW 258 1 min 0,000 mm 5,1 UV-I 707 W/m 11,0 C 25,7 km/h (4 Bft)
05.09.2016 13:22 16,7 C 16,7 C 69 % 1018,4 hPa 0,0 mm 17,6 km/h (3 Bft) NW 306 1 min 0,000 mm 5,9 UV-I 707 W/m 11,0 C 27,4 km/h (4 Bft)
05.09.2016 13:23 16,7 C 16,7 C 69 % 1018,5 hPa 0,0 mm 16,6 km/h (3 Bft) W 275 1 min 0,000 mm 6,1 UV-I 846 W/m 11,0 C 24,1 km/h (4 Bft)
05.09.2016 13:24 16,7 C 16,7 C 70 % 1018,4 hPa 0,0 mm 15,0 km/h (3 Bft) W-SW 247 1 min 0,000 mm 6,1 UV-I 861 W/m 11,2 C 27,4 km/h (4 Bft)
05.09.2016 13:25 16,8 C 16,8 C 70 % 1018,5 hPa 0,0 mm 15,3 km/h (3 Bft) W 263 1 min 0,000 mm 6,1 UV-I 840 W/m 11,3 C 19,3 km/h (3 Bft)
05.09.2016 13:26 16,8 C 16,8 C 69 % 1018,4 hPa 0,0 mm 13,6 km/h (3 Bft) W-NW 299 1 min 0,000 mm 5,9 UV-I 796 W/m 11,1 C 25,7 km/h (4 Bft)
05.09.2016 13:27 16,9 C 16,9 C 69 % 1018,4 hPa 0,0 mm 11,8 km/h (2 Bft) W 274 1 min 0,000 mm 5,1 UV-I 796 W/m 11,2 C 19,3 km/h (3 Bft)
05.09.2016 13:28 17,0 C 17,0 C 72 % 1018,5 hPa 0,0 mm 14,9 km/h (3 Bft) W-NW 284 1 min 0,000 mm 6,1 UV-I 796 W/m 11,9 C 20,9 km/h (4 Bft)
05.09.2016 13:29 17,1 C 17,1 C 70 % 1018,4 hPa 0,0 mm 13,5 km/h (3 Bft) W 281 1 min 0,000 mm 6,2 UV-I 907 W/m 11,6 C 19,3 km/h (3 Bft)
05.09.2016 13:30 17,3 C 17,3 C 72 % 1018,5 hPa 0,0 mm 11,8 km/h (2 Bft) S-SW 209 1 min 0,000 mm 6,4 UV-I 928 W/m 12,2 C 25,7 km/h (4 Bft)
05.09.2016 13:31 17,4 C 17,4 C 67 % 1018,6 hPa 0,0 mm 14,2 km/h (3 Bft) SW 229 1 min 0,000 mm 6,4 UV-I 942 W/m 11,2 C 20,9 km/h (4 Bft)
05.09.2016 13:32 17,5 C 17,5 C 68 % 1018,5 hPa 0,0 mm 15,1 km/h (3 Bft) W-SW 252 1 min 0,000 mm 6,3 UV-I 935 W/m 11,5 C 19,3 km/h (3 Bft)
05.09.2016 13:33 17,6 C 17,6 C 72 % 1018,6 hPa 0,0 mm 13,9 km/h (3 Bft) W 279 1 min 0,000 mm 6,3 UV-I 940 W/m 12,5 C 24,1 km/h (4 Bft)
05.09.2016 13:34 17,7 C 17,7 C 66 % 1018,5 hPa 0,0 mm 14,6 km/h (3 Bft) W 269 1 min 0,000 mm 6,4 UV-I 960 W/m 11,3 C 19,3 km/h (3 Bft)
05.09.2016 13:35 17,7 C 17,7 C 68 % 1018,6 hPa 0,0 mm 12,2 km/h (2 Bft) W 277 1 min 0,000 mm 6,5 UV-I 965 W/m 11,7 C 24,1 km/h (4 Bft)
05.09.2016 13:36 17,8 C 17,8 C 67 % 1018,6 hPa 0,0 mm 15,1 km/h (3 Bft) W-SW 253 1 min 0,000 mm 6,4 UV-I 953 W/m 11,6 C 25,7 km/h (4 Bft)
05.09.2016 13:37 17,8 C 17,8 C 67 % 1018,6 hPa 0,0 mm 23,2 km/h (4 Bft) W 263 1 min 0,000 mm 6,4 UV-I 937 W/m 11,6 C 33,8 km/h (5 Bft)
05.09.2016 13:38 17,7 C 17,8 C 66 % 1018,7 hPa 0,0 mm 17,5 km/h (3 Bft) W-SW 254 1 min 0,000 mm 6,3 UV-I 921 W/m 11,3 C 24,1 km/h (4 Bft)
05.09.2016 13:39 17,7 C 17,7 C 67 % 1018,7 hPa 0,0 mm 13,0 km/h (3 Bft) W-SW 254 1 min 0,000 mm 6,3 UV-I 904 W/m 11,5 C 22,5 km/h (4 Bft)
05.09.2016 13:40 17,7 C 17,7 C 64 % 1018,8 hPa 0,0 mm 21,8 km/h (4 Bft) W-SW 258 1 min 0,000 mm 6,2 UV-I 875 W/m 10,8 C 33,8 km/h (5 Bft)
05.09.2016 13:41 17,7 C 17,7 C 65 % 1018,7 hPa 0,0 mm 17,4 km/h (3 Bft) W 268 1 min 0,000 mm 6,1 UV-I 858 W/m 11,0 C 27,4 km/h (4 Bft)
05.09.2016 13:42 17,6 C 17,7 C 65 % 1018,7 hPa 0,0 mm 16,2 km/h (3 Bft) S-SW 209 1 min 0,000 mm 6,0 UV-I 853 W/m 10,9 C 22,5 km/h (4 Bft)
05.09.2016 13:43 17,6 C 17,6 C 67 % 1018,8 hPa 0,0 mm 19,7 km/h (3 Bft) W-SW 252 1 min 0,000 mm 6,0 UV-I 846 W/m 11,4 C 29,0 km/h (5 Bft)
05.09.2016 13:44 17,5 C 17,6 C 65 % 1018,8 hPa 0,0 mm 18,5 km/h (3 Bft) W-SW 251 1 min 0,000 mm 6,1 UV-I 844 W/m 10,8 C 25,7 km/h (4 Bft)
05.09.2016 13:45 17,3 C 17,5 C 68 % 1018,8 hPa 0,0 mm 11,2 km/h (2 Bft) W-SW 254 1 min 0,000 mm 6,1 UV-I 842 W/m 11,3 C 19,3 km/h (3 Bft)
05.09.2016 13:46 17,3 C 17,4 C 65 % 1018,9 hPa 0,0 mm 18,8 km/h (3 Bft) W 264 1 min 0,000 mm 6,1 UV-I 835 W/m 10,7 C 27,4 km/h (4 Bft)
05.09.2016 13:47 17,3 C 17,3 C 66 % 1018,8 hPa 0,0 mm 15,9 km/h (3 Bft) W 260 1 min 0,000 mm 6,0 UV-I 828 W/m 10,9 C 25,7 km/h (4 Bft)
05.09.2016 13:48 17,2 C 17,3 C 66 % 1018,8 hPa 0,0 mm 20,3 km/h (4 Bft) W-SW 258 1 min 0,000 mm 6,0 UV-I 814 W/m 10,8 C 27,4 km/h (4 Bft)
05.09.2016 13:49 17,2 C 17,2 C 66 % 1018,8 hPa 0,0 mm 9,2 km/h (2 Bft) W-SW 258 1 min 0,000 mm 5,9 UV-I 805 W/m 10,8 C 20,9 km/h (4 Bft)
05.09.2016 13:50 17,2 C 17,2 C 65 % 1018,8 hPa 0,0 mm 15,0 km/h (3 Bft) W 276 1 min 0,000 mm 5,9 UV-I 805 W/m 10,6 C 19,3 km/h (3 Bft)
05.09.2016 13:51 17,3 C 17,3 C 69 % 1018,8 hPa 0,0 mm 13,0 km/h (3 Bft) W 270 1 min 0,000 mm 5,9 UV-I 805 W/m 11,6 C 16,1 km/h (3 Bft)
05.09.2016 13:52 17,3 C 17,3 C 67 % 1018,8 hPa 0,0 mm 11,6 km/h (2 Bft) W-NW 287 1 min 0,000 mm 5,9 UV-I 810 W/m 11,1 C 16,1 km/h (3 Bft)
05.09.2016 13:53 17,3 C 17,3 C 67 % 1018,8 hPa 0,0 mm 19,1 km/h (3 Bft) W-NW 301 1 min 0,000 mm 5,9 UV-I 798 W/m 11,1 C 32,2 km/h (5 Bft)
05.09.2016 13:54 17,3 C 17,3 C 65 % 1018,8 hPa 0,0 mm 22,2 km/h (4 Bft) W 273 1 min 0,000 mm 5,8 UV-I 784 W/m 10,7 C 30,6 km/h (5 Bft)
05.09.2016 13:55 17,2 C 17,3 C 65 % 1018,8 hPa 0,0 mm 20,4 km/h (4 Bft) W-NW 282 1 min 0,000 mm 5,8 UV-I 773 W/m 10,6 C 30,6 km/h (5 Bft)
05.09.2016 13:56 17,1 C 17,2 C 64 % 1018,8 hPa 0,0 mm 20,0 km/h (4 Bft) SW 234 1 min 0,000 mm 5,8 UV-I 768 W/m 10,2 C 25,7 km/h (4 Bft)
05.09.2016 13:57 16,9 C 17,1 C 66 % 1018,8 hPa 0,0 mm 16,9 km/h (3 Bft) W 270 1 min 0,000 mm 5,8 UV-I 768 W/m 10,5 C 25,7 km/h (4 Bft)
05.09.2016 13:58 16,9 C 16,9 C 66 % 1018,7 hPa 0,0 mm 10,6 km/h (2 Bft) W 259 1 min 0,000 mm 5,8 UV-I 763 W/m 10,5 C 16,1 km/h (3 Bft)
05.09.2016 13:59 16,9 C 16,9 C 69 % 1018,8 hPa 0,0 mm 16,2 km/h (3 Bft) W 261 1 min 0,000 mm 5,7 UV-I 759 W/m 11,2 C 25,7 km/h (4 Bft)
05.09.2016 14:00 16,9 C 16,9 C 65 % 1018,8 hPa 0,0 mm 20,0 km/h (4 Bft) W-SW 250 1 min 0,000 mm 5,7 UV-I 765 W/m 10,3 C 27,4 km/h (4 Bft)
05.09.2016 14:01 16,8 C 16,9 C 67 % 1018,8 hPa 0,0 mm 15,5 km/h (3 Bft) SW 232 1 min 0,508 mm 5,8 UV-I 772 W/m 10,6 C 24,1 km/h (4 Bft)
05.09.2016 14:02 16,8 C 16,8 C 67 % 1018,8 hPa 0,0 mm 13,2 km/h (3 Bft) NW 306 1 min 0,000 mm 5,8 UV-I 780 W/m 10,6 C 17,7 km/h (3 Bft)
05.09.2016 14:03 16,8 C 16,8 C 70 % 1018,8 hPa 0,0 mm 11,4 km/h (2 Bft) W-SW 252 1 min 0,000 mm 5,8 UV-I 791 W/m 11,3 C 25,7 km/h (4 Bft)
05.09.2016 14:04 16,9 C 16,9 C 66 % 1018,8 hPa 0,0 mm 17,0 km/h (3 Bft) W 265 1 min 0,000 mm 5,9 UV-I 803 W/m 10,5 C 25,7 km/h (4 Bft)
05.09.2016 14:05 16,9 C 16,9 C 67 % 1018,9 hPa 0,0 mm 18,0 km/h (3 Bft) S-SW 194 1 min 0,000 mm 5,6 UV-I 780 W/m 10,7 C 29,0 km/h (5 Bft)
05.09.2016 14:06 16,9 C 16,9 C 67 % 1018,9 hPa 0,0 mm 14,6 km/h (3 Bft) W-SW 257 1 min 0,000 mm 3,8 UV-I 780 W/m 10,7 C 24,1 km/h (4 Bft)
05.09.2016 14:07 16,9 C 16,9 C 69 % 1018,9 hPa 0,0 mm 16,5 km/h (3 Bft) W 271 1 min 0,000 mm 5,9 UV-I 780 W/m 11,2 C 24,1 km/h (4 Bft)
05.09.2016 14:08 16,8 C 16,9 C 69 % 1018,8 hPa 0,0 mm 11,1 km/h (2 Bft) W-SW 238 1 min 0,000 mm 6,0 UV-I 856 W/m 11,1 C 16,1 km/h (3 Bft)
05.09.2016 14:09 16,9 C 16,9 C 69 % 1018,8 hPa 0,0 mm 9,8 km/h (2 Bft) W-SW 243 0 min 0,000 mm 3,1 UV-I 264 W/m 11,2 C 16,1 km/h (3 Bft)
05.09.2016 14:10 16,9 C 16,9 C 68 % 1018,8 hPa 0,0 mm 13,1 km/h (3 Bft) W-SW 241 0 min 0,000 mm 3,1 UV-I 264 W/m 11,0 C 19,3 km/h (3 Bft)
05.09.2016 14:11 16,8 C 16,9 C 69 % 1018,9 hPa 0,0 mm 17,1 km/h (3 Bft) W-SW 242 1 min 0,000 mm 6,0 UV-I 860 W/m 11,1 C 30,6 km/h (5 Bft)
05.09.2016 14:12 16,8 C 16,8 C 67 % 1018,9 hPa 0,0 mm 15,1 km/h (3 Bft) S-SW 199 1 min 0,000 mm 6,1 UV-I 886 W/m 10,6 C 27,4 km/h (4 Bft)
05.09.2016 14:13 16,9 C 16,9 C 67 % 1018,9 hPa 0,0 mm 14,6 km/h (3 Bft) W 265 1 min 0,000 mm 3,5 UV-I 886 W/m 10,7 C 25,7 km/h (4 Bft)
05.09.2016 14:14 16,8 C 16,9 C 69 % 1018,9 hPa 0,0 mm 15,3 km/h (3 Bft) W-SW 240 0 min 0,000 mm 5,9 UV-I 366 W/m 11,1 C 17,7 km/h (3 Bft)
05.09.2016 14:15 16,8 C 16,8 C 69 % 1018,9 hPa 0,0 mm 11,3 km/h (2 Bft) W 269 0 min 0,000 mm 3,1 UV-I 255 W/m 11,1 C 16,1 km/h (3 Bft)
05.09.2016 14:16 16,7 C 16,8 C 69 % 1019,0 hPa 0,0 mm 11,7 km/h (2 Bft) SW 214 0 min 0,000 mm 3,3 UV-I 290 W/m 11,0 C 19,3 km/h (3 Bft)
05.09.2016 14:17 16,6 C 16,7 C 66 % 1018,9 hPa 0,0 mm 11,6 km/h (2 Bft) W 271 0 min 0,000 mm 3,3 UV-I 253 W/m 10,2 C 19,3 km/h (3 Bft)
05.09.2016 14:18 16,5 C 16,6 C 69 % 1018,9 hPa 0,0 mm 15,8 km/h (3 Bft) W 260 0 min 0,000 mm 3,3 UV-I 206 W/m 10,8 C 29,0 km/h (5 Bft)
05.09.2016 14:19 16,4 C 16,5 C 68 % 1019,0 hPa 0,0 mm 18,4 km/h (3 Bft) W-SW 238 0 min 0,000 mm 6,0 UV-I 206 W/m 10,5 C 22,5 km/h (4 Bft)
05.09.2016 14:20 16,4 C 16,4 C 69 % 1019,0 hPa 0,0 mm 15,4 km/h (3 Bft) W 259 1 min 0,000 mm 5,8 UV-I 840 W/m 10,7 C 20,9 km/h (4 Bft)
05.09.2016 14:21 16,5 C 16,5 C 69 % 1018,9 hPa 0,0 mm 21,6 km/h (4 Bft) W 277 1 min 0,000 mm 4,9 UV-I 840 W/m 10,8 C 37,0 km/h (5 Bft)
05.09.2016 14:22 16,6 C 16,6 C 68 % 1019,0 hPa 0,0 mm 14,8 km/h (3 Bft) W-SW 246 1 min 0,000 mm 5,6 UV-I 763 W/m 10,7 C 29,0 km/h (5 Bft)
05.09.2016 14:23 16,7 C 16,7 C 67 % 1019,0 hPa 0,0 mm 20,7 km/h (4 Bft) W-SW 252 1 min 0,000 mm 5,5 UV-I 754 W/m 10,5 C 33,8 km/h (5 Bft)
05.09.2016 14:24 16,9 C 16,9 C 67 % 1019,0 hPa 0,0 mm 11,4 km/h (2 Bft) W 281 1 min 0,000 mm 5,5 UV-I 754 W/m 10,7 C 17,7 km/h (3 Bft)
05.09.2016 14:25 16,9 C 16,9 C 65 % 1019,0 hPa 0,0 mm 10,7 km/h (2 Bft) W-SW 252 1 min 0,000 mm 5,5 UV-I 754 W/m 10,3 C 17,7 km/h (3 Bft)
05.09.2016 14:26 16,9 C 16,9 C 66 % 1018,9 hPa 0,0 mm 10,8 km/h (2 Bft) NW 323 1 min 0,000 mm 5,4 UV-I 735 W/m 10,5 C 17,7 km/h (3 Bft)
05.09.2016 14:27 17,0 C 17,0 C 66 % 1018,9 hPa 0,0 mm 15,1 km/h (3 Bft) W-SW 241 1 min 0,000 mm 5,4 UV-I 751 W/m 10,6 C 25,7 km/h (4 Bft)
05.09.2016 14:28 17,1 C 17,1 C 66 % 1019,0 hPa 0,0 mm 16,9 km/h (3 Bft) SW 234 1 min 0,000 mm 5,4 UV-I 738 W/m 10,7 C 27,4 km/h (4 Bft)
05.09.2016 14:29 17,1 C 17,1 C 67 % 1019,0 hPa 0,0 mm 15,5 km/h (3 Bft) S-SW 195 1 min 0,000 mm 5,5 UV-I 752 W/m 10,9 C 24,1 km/h (4 Bft)
05.09.2016 14:30 17,2 C 17,2 C 67 % 1019,1 hPa 0,0 mm 9,9 km/h (2 Bft) W-SW 253 1 min 0,000 mm 5,5 UV-I 777 W/m 11,0 C 12,9 km/h (3 Bft)
05.09.2016 14:31 17,2 C 17,2 C 67 % 1019,1 hPa 0,0 mm 13,3 km/h (3 Bft) W-SW 254 1 min 0,000 mm 5,6 UV-I 777 W/m 11,0 C 24,1 km/h (4 Bft)
05.09.2016 14:32 17,2 C 17,2 C 66 % 1019,1 hPa 0,0 mm 19,4 km/h (3 Bft) W 269 1 min 0,000 mm 5,5 UV-I 777 W/m 10,8 C 27,4 km/h (4 Bft)
05.09.2016 14:33 17,1 C 17,2 C 64 % 1019,2 hPa 0,0 mm 14,8 km/h (3 Bft) W-NW 296 1 min 0,000 mm 3,8 UV-I 777 W/m 10,2 C 29,0 km/h (5 Bft)
05.09.2016 14:34 16,9 C 17,1 C 65 % 1019,1 hPa 0,0 mm 16,1 km/h (3 Bft) W 280 1 min 0,000 mm 2,5 UV-I 777 W/m 10,3 C 24,1 km/h (4 Bft)
05.09.2016 14:35 16,7 C 16,9 C 65 % 1019,2 hPa 0,0 mm 15,6 km/h (3 Bft) W-NW 290 0 min 0,000 mm 2,6 UV-I 139 W/m 10,1 C 19,3 km/h (3 Bft)
05.09.2016 14:36 16,6 C 16,7 C 66 % 1019,2 hPa 0,0 mm 10,7 km/h (2 Bft) W-SW 251 0 min 0,000 mm 2,4 UV-I 146 W/m 10,2 C 14,5 km/h (3 Bft)
05.09.2016 14:37 16,4 C 16,6 C 67 % 1019,2 hPa 0,0 mm 17,2 km/h (3 Bft) W 262 0 min 0,000 mm 2,5 UV-I 181 W/m 10,3 C 30,6 km/h (5 Bft)
05.09.2016 14:38 16,3 C 16,4 C 67 % 1019,4 hPa 0,0 mm 20,4 km/h (4 Bft) W 275 0 min 0,000 mm 2,5 UV-I 167 W/m 10,2 C 33,8 km/h (5 Bft)
05.09.2016 14:39 16,2 C 16,3 C 67 % 1019,3 hPa 0,0 mm 8,5 km/h (2 Bft) W-SW 246 0 min 0,000 mm 2,6 UV-I 167 W/m 10,1 C 19,3 km/h (3 Bft)
05.09.2016 14:40 16,1 C 16,2 C 69 % 1019,3 hPa 0,0 mm 10,3 km/h (2 Bft) W-SW 248 0 min 0,000 mm 2,6 UV-I 167 W/m 10,4 C 17,7 km/h (3 Bft)
05.09.2016 14:41 15,9 C 16,1 C 69 % 1019,2 hPa 0,0 mm 8,6 km/h (2 Bft) SW 223 0 min 0,000 mm 2,4 UV-I 167 W/m 10,2 C 14,5 km/h (3 Bft)
05.09.2016 14:42 15,9 C 16,0 C 70 % 1019,2 hPa 0,0 mm 8,0 km/h (2 Bft) SW 219 0 min 0,000 mm 2,4 UV-I 148 W/m 10,4 C 12,9 km/h (3 Bft)
05.09.2016 14:43 15,9 C 15,9 C 70 % 1019,2 hPa 0,0 mm 10,1 km/h (2 Bft) W-NW 289 0 min 0,000 mm 2,6 UV-I 169 W/m 10,4 C 14,5 km/h (3 Bft)
05.09.2016 14:44 15,8 C 15,9 C 70 % 1019,2 hPa 0,0 mm 13,6 km/h (3 Bft) W 271 0 min 0,000 mm 5,4 UV-I 234 W/m 10,3 C 20,9 km/h (4 Bft)
05.09.2016 14:45 15,9 C 15,9 C 70 % 1019,2 hPa 0,0 mm 11,3 km/h (2 Bft) W-NW 292 1 min 0,000 mm 5,4 UV-I 824 W/m 10,4 C 19,3 km/h (3 Bft)
05.09.2016 14:46 16,1 C 16,1 C 70 % 1019,2 hPa 0,0 mm 15,5 km/h (3 Bft) W-SW 257 1 min 0,000 mm 5,4 UV-I 817 W/m 10,6 C 19,3 km/h (3 Bft)
05.09.2016 14:47 16,3 C 16,3 C 71 % 1019,2 hPa 0,0 mm 16,0 km/h (3 Bft) W-NW 286 1 min 0,000 mm 5,5 UV-I 824 W/m 11,0 C 24,1 km/h (4 Bft)
05.09.2016 14:48 16,4 C 16,4 C 70 % 1019,1 hPa 0,0 mm 8,2 km/h (2 Bft) SW 236 1 min 0,000 mm 5,5 UV-I 837 W/m 10,9 C 14,5 km/h (3 Bft)
05.09.2016 14:49 16,6 C 16,6 C 69 % 1019,2 hPa 0,0 mm 15,4 km/h (3 Bft) W 274 1 min 0,000 mm 5,5 UV-I 846 W/m 10,9 C 20,9 km/h (4 Bft)
05.09.2016 14:50 16,7 C 16,7 C 71 % 1019,2 hPa 0,0 mm 13,2 km/h (3 Bft) W-NW 286 1 min 0,000 mm 5,5 UV-I 854 W/m 11,4 C 17,7 km/h (3 Bft)
05.09.2016 14:51 16,9 C 16,9 C 70 % 1019,1 hPa 0,0 mm 17,2 km/h (3 Bft) W-NW 296 1 min 0,000 mm 5,6 UV-I 851 W/m 11,4 C 24,1 km/h (4 Bft)
05.09.2016 14:52 17,1 C 17,1 C 69 % 1019,1 hPa 0,0 mm 13,5 km/h (3 Bft) W-NW 294 1 min 0,000 mm 5,5 UV-I 844 W/m 11,4 C 17,7 km/h (3 Bft)
05.09.2016 14:53 17,2 C 17,2 C 69 % 1019,1 hPa 0,0 mm 16,6 km/h (3 Bft) W-SW 242 1 min 0,000 mm 5,5 UV-I 842 W/m 11,5 C 24,1 km/h (4 Bft)
05.09.2016 14:54 17,2 C 17,2 C 68 % 1019,1 hPa 0,0 mm 15,2 km/h (3 Bft) W-SW 256 1 min 0,000 mm 5,5 UV-I 851 W/m 11,2 C 24,1 km/h (4 Bft)
05.09.2016 14:55 17,1 C 17,2 C 67 % 1019,1 hPa 0,0 mm 16,9 km/h (3 Bft) W-NW 290 1 min 0,000 mm 5,5 UV-I 863 W/m 10,9 C 27,4 km/h (4 Bft)
05.09.2016 14:56 17,2 C 17,2 C 67 % 1019,1 hPa 0,0 mm 15,5 km/h (3 Bft) W 259 1 min 0,000 mm 5,5 UV-I 874 W/m 11,0 C 20,9 km/h (4 Bft)
05.09.2016 14:57 17,2 C 17,2 C 67 % 1019,1 hPa 0,0 mm 17,2 km/h (3 Bft) W 259 1 min 0,000 mm 5,5 UV-I 912 W/m 11,0 C 25,7 km/h (4 Bft)
05.09.2016 14:58 17,2 C 17,2 C 67 % 1019,1 hPa 0,0 mm 19,4 km/h (3 Bft) W 259 1 min 0,000 mm 5,5 UV-I 921 W/m 11,0 C 30,6 km/h (5 Bft)
05.09.2016 14:59 17,2 C 17,2 C 68 % 1019,1 hPa 0,0 mm 11,5 km/h (2 Bft) W 261 1 min 0,000 mm 5,4 UV-I 951 W/m 11,2 C 19,3 km/h (3 Bft)
05.09.2016 15:00 17,3 C 17,3 C 68 % 1019,1 hPa 0,0 mm 15,2 km/h (3 Bft) W 273 1 min 0,000 mm 5,5 UV-I 951 W/m 11,3 C 22,5 km/h (4 Bft)
05.09.2016 15:01 17,3 C 17,3 C 68 % 1019,0 hPa 0,0 mm 11,1 km/h (2 Bft) W-SW 255 1 min 0,381 mm 5,1 UV-I 951 W/m 11,3 C 17,7 km/h (3 Bft)
05.09.2016 15:02 17,4 C 17,4 C 69 % 1019,1 hPa 0,0 mm 15,6 km/h (3 Bft) W-NW 288 1 min 0,000 mm 5,4 UV-I 951 W/m 11,7 C 19,3 km/h (3 Bft)
05.09.2016 15:03 17,5 C 17,5 C 66 % 1019,0 hPa 0,0 mm 11,6 km/h (2 Bft) W 275 1 min 0,000 mm 5,3 UV-I 951 W/m 11,1 C 17,7 km/h (3 Bft)
05.09.2016 15:04 17,6 C 17,6 C 69 % 1019,2 hPa 0,0 mm 15,9 km/h (3 Bft) W 263 1 min 0,000 mm 5,2 UV-I 997 W/m 11,8 C 22,5 km/h (4 Bft)
05.09.2016 15:05 17,6 C 17,6 C 67 % 1019,1 hPa 0,0 mm 11,5 km/h (2 Bft) W-SW 244 1 min 0,000 mm 4,2 UV-I 997 W/m 11,4 C 24,1 km/h (4 Bft)
05.09.2016 15:06 17,7 C 17,7 C 69 % 1019,2 hPa 0,0 mm 10,6 km/h (2 Bft) NW 306 1 min 0,000 mm 4,9 UV-I 997 W/m 11,9 C 16,1 km/h (3 Bft)
05.09.2016 15:07 17,8 C 17,8 C 70 % 1019,1 hPa 0,0 mm 13,9 km/h (3 Bft) W 259 1 min 0,000 mm 4,8 UV-I 944 W/m 12,3 C 19,3 km/h (3 Bft)
05.09.2016 15:08 17,9 C 17,9 C 68 % 1019,1 hPa 0,0 mm 9,7 km/h (2 Bft) W 269 1 min 0,000 mm 4,8 UV-I 930 W/m 11,9 C 16,1 km/h (3 Bft)
05.09.2016 15:09 17,9 C 17,9 C 67 % 1019,1 hPa 0,0 mm 9,4 km/h (2 Bft) W 275 1 min 0,000 mm 4,6 UV-I 926 W/m 11,7 C 14,5 km/h (3 Bft)
05.09.2016 15:10 17,9 C 17,9 C 69 % 1019,1 hPa 0,0 mm 9,9 km/h (2 Bft) W 267 1 min 0,000 mm 4,6 UV-I 930 W/m 12,1 C 14,5 km/h (3 Bft)
05.09.2016 15:11 18,1 C 18,1 C 70 % 1019,2 hPa 0,0 mm 12,4 km/h (3 Bft) W 273 1 min 0,000 mm 4,5 UV-I 935 W/m 12,5 C 20,9 km/h (4 Bft)
05.09.2016 15:12 18,1 C 18,1 C 68 % 1019,2 hPa 0,0 mm 10,7 km/h (2 Bft) W 269 1 min 0,000 mm 2,9 UV-I 935 W/m 12,1 C 20,9 km/h (4 Bft)
05.09.2016 15:13 17,9 C 18,1 C 68 % 1019,2 hPa 0,0 mm 14,2 km/h (3 Bft) S 177 1 min 0,000 mm 2,9 UV-I 385 W/m 11,9 C 19,3 km/h (3 Bft)
05.09.2016 15:14 17,8 C 17,9 C 65 % 1019,2 hPa 0,0 mm 14,6 km/h (3 Bft) W-SW 251 1 min 0,000 mm 3,8 UV-I 809 W/m 11,1 C 25,7 km/h (4 Bft)
05.09.2016 15:15 17,7 C 17,8 C 65 % 1019,2 hPa 0,0 mm 16,9 km/h (3 Bft) W-NW 284 1 min 0,000 mm 4,1 UV-I 902 W/m 11,0 C 25,7 km/h (4 Bft)
05.09.2016 15:16 17,7 C 17,8 C 67 % 1019,2 hPa 0,0 mm 16,4 km/h (3 Bft) W-SW 252 1 min 0,000 mm 2,4 UV-I 902 W/m 11,5 C 25,7 km/h (4 Bft)
05.09.2016 15:17 17,7 C 17,8 C 65 % 1019,2 hPa 0,0 mm 13,1 km/h (3 Bft) W 269 1 min 0,000 mm 2,5 UV-I 902 W/m 11,0 C 22,5 km/h (4 Bft)
05.09.2016 15:18 17,6 C 17,7 C 66 % 1019,2 hPa 0,0 mm 10,2 km/h (2 Bft) W-NW 288 1 min 0,000 mm 1,8 UV-I 902 W/m 11,2 C 14,5 km/h (3 Bft)
05.09.2016 15:19 17,5 C 17,6 C 68 % 1019,3 hPa 0,0 mm 12,4 km/h (3 Bft) W 270 0 min 0,000 mm 1,6 UV-I 207 W/m 11,5 C 17,7 km/h (3 Bft)
05.09.2016 15:20 17,5 C 17,6 C 66 % 1019,2 hPa 0,0 mm 12,5 km/h (3 Bft) W-NW 298 0 min 0,000 mm 1,5 UV-I 169 W/m 11,1 C 17,7 km/h (3 Bft)
05.09.2016 15:21 17,4 C 17,5 C 66 % 1019,3 hPa 0,0 mm 12,9 km/h (3 Bft) W 281 0 min 0,000 mm 1,3 UV-I 153 W/m 11,0 C 24,1 km/h (4 Bft)
05.09.2016 15:22 17,2 C 17,4 C 64 % 1019,3 hPa 0,0 mm 15,0 km/h (3 Bft) W 271 0 min 0,000 mm 1,2 UV-I 142 W/m 10,3 C 24,1 km/h (4 Bft)
05.09.2016 15:23 17,1 C 17,2 C 63 % 1019,4 hPa 0,0 mm 11,3 km/h (2 Bft) W-SW 254 0 min 0,000 mm 1,1 UV-I 132 W/m 10,0 C 17,7 km/h (3 Bft)
05.09.2016 15:24 16,9 C 17,1 C 63 % 1019,3 hPa 0,0 mm 10,8 km/h (2 Bft) W 259 0 min 0,000 mm 1,1 UV-I 125 W/m 9,8 C 17,7 km/h (3 Bft)
05.09.2016 15:25 16,8 C 16,9 C 67 % 1019,4 hPa 0,0 mm 9,1 km/h (2 Bft) NW 310 0 min 0,000 mm 1,0 UV-I 118 W/m 10,6 C 14,5 km/h (3 Bft)
05.09.2016 15:26 16,6 C 16,8 C 65 % 1019,3 hPa 0,0 mm 10,7 km/h (2 Bft) W 267 0 min 0,000 mm 0,9 UV-I 104 W/m 10,0 C 17,7 km/h (3 Bft)
05.09.2016 15:27 16,4 C 16,6 C 66 % 1019,4 hPa 0,0 mm 13,5 km/h (3 Bft) W-NW 284 0 min 0,000 mm 0,8 UV-I 98 W/m 10,0 C 20,9 km/h (4 Bft)
05.09.2016 15:28 16,3 C 16,4 C 66 % 1019,5 hPa 0,0 mm 15,9 km/h (3 Bft) W-NW 294 0 min 0,000 mm 0,8 UV-I 95 W/m 9,9 C 24,1 km/h (4 Bft)
05.09.2016 15:29 16,2 C 16,3 C 66 % 1019,4 hPa 0,0 mm 10,9 km/h (2 Bft) NW 306 0 min 0,000 mm 0,7 UV-I 93 W/m 9,8 C 12,9 km/h (3 Bft)
05.09.2016 15:30 16,1 C 16,2 C 67 % 1019,4 hPa 0,0 mm 15,2 km/h (3 Bft) W 262 0 min 0,000 mm 0,7 UV-I 90 W/m 10,0 C 19,3 km/h (3 Bft)
05.09.2016 15:31 16,1 C 16,1 C 67 % 1019,4 hPa 0,0 mm 13,0 km/h (3 Bft) W 259 0 min 0,000 mm 0,7 UV-I 90 W/m 10,0 C 19,3 km/h (3 Bft)
05.09.2016 15:32 16,0 C 16,1 C 67 % 1019,4 hPa 0,0 mm 19,5 km/h (3 Bft) W 270 0 min 0,000 mm 0,7 UV-I 88 W/m 9,9 C 24,1 km/h (4 Bft)
05.09.2016 15:33 15,9 C 16,0 C 67 % 1019,4 hPa 0,0 mm 9,2 km/h (2 Bft) W-SW 244 0 min 0,000 mm 0,7 UV-I 88 W/m 9,8 C 14,5 km/h (3 Bft)
05.09.2016 15:34 15,8 C 15,9 C 69 % 1019,5 hPa 0,0 mm 11,2 km/h (2 Bft) W-SW 250 0 min 0,000 mm 0,7 UV-I 86 W/m 10,1 C 22,5 km/h (4 Bft)
05.09.2016 15:35 15,8 C 15,9 C 68 % 1019,5 hPa 0,0 mm 14,8 km/h (3 Bft) W 264 0 min 0,000 mm 0,7 UV-I 86 W/m 9,9 C 22,5 km/h (4 Bft)
05.09.2016 15:36 15,8 C 15,8 C 69 % 1019,5 hPa 0,0 mm 8,9 km/h (2 Bft) W-SW 250 0 min 0,000 mm 0,7 UV-I 88 W/m 10,1 C 16,1 km/h (3 Bft)
05.09.2016 15:37 15,8 C 15,8 C 69 % 1019,5 hPa 0,0 mm 12,4 km/h (3 Bft) W-SW 251 0 min 0,000 mm 0,8 UV-I 90 W/m 10,1 C 17,7 km/h (3 Bft)
05.09.2016 15:38 15,8 C 15,8 C 68 % 1019,5 hPa 0,0 mm 9,3 km/h (2 Bft) W 262 0 min 0,000 mm 0,8 UV-I 91 W/m 9,9 C 11,3 km/h (2 Bft)
05.09.2016 15:39 15,8 C 15,8 C 70 % 1019,5 hPa 0,0 mm 16,6 km/h (3 Bft) W 279 0 min 0,000 mm 0,8 UV-I 91 W/m 10,3 C 25,7 km/h (4 Bft)
05.09.2016 15:40 15,8 C 15,8 C 68 % 1019,5 hPa 0,0 mm 9,3 km/h (2 Bft) W-NW 290 0 min 0,000 mm 0,8 UV-I 93 W/m 9,9 C 14,5 km/h (3 Bft)
05.09.2016 15:41 15,7 C 15,8 C 70 % 1019,5 hPa 0,0 mm 7,2 km/h (2 Bft) W-NW 291 0 min 0,000 mm 0,8 UV-I 95 W/m 10,2 C 12,9 km/h (3 Bft)
05.09.2016 15:42 15,7 C 15,7 C 69 % 1019,5 hPa 0,0 mm 7,0 km/h (2 Bft) W 279 0 min 0,000 mm 0,8 UV-I 97 W/m 10,0 C 11,3 km/h (2 Bft)
05.09.2016 15:43 15,7 C 15,7 C 69 % 1019,5 hPa 0,0 mm 13,5 km/h (3 Bft) W-NW 295 0 min 0,000 mm 0,8 UV-I 93 W/m 10,0 C 22,5 km/h (4 Bft)
05.09.2016 15:44 15,7 C 15,7 C 69 % 1019,5 hPa 0,0 mm 11,2 km/h (2 Bft) W 280 0 min 0,000 mm 0,8 UV-I 95 W/m 10,0 C 17,7 km/h (3 Bft)
05.09.2016 15:45 15,7 C 15,7 C 70 % 1019,5 hPa 0,0 mm 14,3 km/h (3 Bft) W 261 0 min 0,000 mm 0,8 UV-I 97 W/m 10,2 C 17,7 km/h (3 Bft)
05.09.2016 15:46 15,7 C 15,7 C 68 % 1019,5 hPa 0,0 mm 11,7 km/h (2 Bft) W-SW 240 0 min 0,000 mm 0,8 UV-I 100 W/m 9,8 C 17,7 km/h (3 Bft)
05.09.2016 15:47 15,7 C 15,7 C 68 % 1019,5 hPa 0,0 mm 9,2 km/h (2 Bft) W 263 0 min 0,000 mm 0,9 UV-I 105 W/m 9,8 C 16,1 km/h (3 Bft)
05.09.2016 15:48 15,7 C 15,7 C 69 % 1019,6 hPa 0,0 mm 4,4 km/h (1 Bft) W 275 0 min 0,000 mm 0,9 UV-I 113 W/m 10,0 C 9,7 km/h (2 Bft)
05.09.2016 15:49 15,7 C 15,7 C 68 % 1019,6 hPa 0,0 mm 12,8 km/h (3 Bft) W 269 0 min 0,000 mm 1,0 UV-I 127 W/m 9,8 C 20,9 km/h (4 Bft)
05.09.2016 15:50 15,7 C 15,7 C 68 % 1019,5 hPa 0,0 mm 11,8 km/h (2 Bft) W 277 0 min 0,000 mm 1,1 UV-I 134 W/m 9,8 C 19,3 km/h (3 Bft)
05.09.2016 15:51 15,7 C 15,7 C 69 % 1019,5 hPa 0,0 mm 11,7 km/h (2 Bft) W 266 0 min 0,000 mm 1,2 UV-I 139 W/m 10,0 C 17,7 km/h (3 Bft)
05.09.2016 15:52 15,7 C 15,7 C 69 % 1019,5 hPa 0,0 mm 16,6 km/h (3 Bft) W-SW 258 0 min 0,000 mm 1,1 UV-I 135 W/m 10,0 C 22,5 km/h (4 Bft)
05.09.2016 15:53 15,7 C 15,7 C 69 % 1019,5 hPa 0,0 mm 6,6 km/h (2 Bft) W-SW 247 0 min 0,000 mm 1,0 UV-I 116 W/m 10,0 C 12,9 km/h (3 Bft)
05.09.2016 15:54 15,7 C 15,7 C 68 % 1019,5 hPa 0,0 mm 9,0 km/h (2 Bft) W-SW 253 0 min 0,000 mm 1,0 UV-I 109 W/m 9,8 C 14,5 km/h (3 Bft)
05.09.2016 15:55 15,7 C 15,7 C 69 % 1019,5 hPa 0,0 mm 7,0 km/h (2 Bft) W-NW 297 0 min 0,000 mm 1,2 UV-I 149 W/m 10,0 C 9,7 km/h (2 Bft)
05.09.2016 15:56 15,7 C 15,7 C 69 % 1019,5 hPa 0,0 mm 6,0 km/h (2 Bft) W-NW 292 0 min 0,000 mm 1,2 UV-I 146 W/m 10,0 C 11,3 km/h (2 Bft)
05.09.2016 15:57 15,7 C 15,7 C 70 % 1019,5 hPa 0,0 mm 9,8 km/h (2 Bft) W-SW 244 0 min 0,000 mm 1,2 UV-I 144 W/m 10,2 C 16,1 km/h (3 Bft)
05.09.2016 15:58 15,6 C 15,7 C 70 % 1019,5 hPa 0,0 mm 7,9 km/h (2 Bft) W 278 0 min 0,000 mm 1,2 UV-I 142 W/m 10,1 C 12,9 km/h (3 Bft)
05.09.2016 15:59 15,7 C 15,7 C 69 % 1019,6 hPa 0,0 mm 10,8 km/h (2 Bft) SW 236 0 min 0,000 mm 1,2 UV-I 146 W/m 10,0 C 17,7 km/h (3 Bft)
05.09.2016 16:00 15,7 C 15,7 C 69 % 1019,6 hPa 0,0 mm 7,4 km/h (2 Bft) W-NW 286 0 min 0,000 mm 1,3 UV-I 146 W/m 10,0 C 12,9 km/h (3 Bft)
05.09.2016 16:01 15,7 C 15,7 C 70 % 1019,5 hPa 0,0 mm 9,1 km/h (2 Bft) W 265 0 min 0,229 mm 1,3 UV-I 151 W/m 10,2 C 14,5 km/h (3 Bft)
05.09.2016 16:02 15,7 C 15,7 C 69 % 1019,5 hPa 0,0 mm 6,3 km/h (2 Bft) W 273 0 min 0,000 mm 1,3 UV-I 153 W/m 10,0 C 11,3 km/h (2 Bft)
05.09.2016 16:03 15,6 C 15,7 C 70 % 1019,6 hPa 0,0 mm 5,2 km/h (1 Bft) W-NW 291 0 min 0,000 mm 1,3 UV-I 158 W/m 10,1 C 11,3 km/h (2 Bft)
05.09.2016 16:04 15,6 C 15,7 C 70 % 1019,6 hPa 0,0 mm 5,6 km/h (1 Bft) NW 310 0 min 0,000 mm 1,2 UV-I 151 W/m 10,1 C 9,7 km/h (2 Bft)
05.09.2016 16:05 15,6 C 15,7 C 71 % 1019,6 hPa 0,0 mm 6,0 km/h (2 Bft) W-NW 291 0 min 0,000 mm 1,2 UV-I 141 W/m 10,4 C 8,0 km/h (2 Bft)
05.09.2016 16:06 15,7 C 15,7 C 71 % 1019,6 hPa 0,0 mm 7,7 km/h (2 Bft) W 281 0 min 0,000 mm 1,1 UV-I 137 W/m 10,5 C 12,9 km/h (3 Bft)
05.09.2016 16:07 15,7 C 15,7 C 72 % 1019,5 hPa 0,0 mm 8,9 km/h (2 Bft) W 279 0 min 0,000 mm 1,1 UV-I 130 W/m 10,7 C 12,9 km/h (3 Bft)
05.09.2016 16:08 15,7 C 15,7 C 72 % 1019,6 hPa 0,0 mm 9,3 km/h (2 Bft) W 269 0 min 0,000 mm 1,0 UV-I 127 W/m 10,7 C 12,9 km/h (3 Bft)
05.09.2016 16:09 15,6 C 15,7 C 72 % 1019,5 hPa 0,0 mm 5,7 km/h (1 Bft) W-NW 285 0 min 0,000 mm 0,9 UV-I 120 W/m 10,6 C 9,7 km/h (2 Bft)
05.09.2016 16:10 15,6 C 15,6 C 74 % 1019,6 hPa 0,0 mm 8,1 km/h (2 Bft) W 265 0 min 0,000 mm 0,9 UV-I 113 W/m 11,0 C 14,5 km/h (3 Bft)
05.09.2016 16:11 15,6 C 15,6 C 72 % 1019,7 hPa 0,0 mm 11,3 km/h (2 Bft) W-NW 289 0 min 0,000 mm 0,8 UV-I 109 W/m 10,6 C 17,7 km/h (3 Bft)
05.09.2016 16:12 15,6 C 15,6 C 71 % 1019,6 hPa 0,0 mm 9,4 km/h (2 Bft) W 265 0 min 0,000 mm 0,8 UV-I 104 W/m 10,4 C 14,5 km/h (3 Bft)
05.09.2016 16:13 15,6 C 15,6 C 73 % 1019,6 hPa 0,0 mm 7,3 km/h (2 Bft) W-NW 296 0 min 0,000 mm 0,8 UV-I 100 W/m 10,8 C 12,9 km/h (3 Bft)
05.09.2016 16:14 15,6 C 15,6 C 72 % 1019,7 hPa 0,0 mm 7,0 km/h (2 Bft) NW 318 0 min 0,000 mm 0,7 UV-I 93 W/m 10,6 C 11,3 km/h (2 Bft)
05.09.2016 16:15 15,5 C 15,6 C 74 % 1019,7 hPa 0,0 mm 6,4 km/h (2 Bft) W 275 0 min 0,000 mm 0,7 UV-I 90 W/m 10,9 C 12,9 km/h (3 Bft)
05.09.2016 16:16 15,5 C 15,5 C 73 % 1019,7 hPa 0,0 mm 6,9 km/h (2 Bft) NW 304 0 min 0,000 mm 0,7 UV-I 88 W/m 10,7 C 12,9 km/h (3 Bft)
05.09.2016 16:17 15,4 C 15,5 C 74 % 1019,7 hPa 0,0 mm 5,0 km/h (1 Bft) W-NW 282 0 min 0,000 mm 0,7 UV-I 84 W/m 10,8 C 9,7 km/h (2 Bft)
05.09.2016 16:18 15,4 C 15,4 C 73 % 1019,7 hPa 0,0 mm 8,2 km/h (2 Bft) SW 234 0 min 0,000 mm 0,6 UV-I 83 W/m 10,6 C 12,9 km/h (3 Bft)
05.09.2016 16:19 15,4 C 15,4 C 72 % 1019,6 hPa 0,0 mm 11,7 km/h (2 Bft) W-SW 244 0 min 0,000 mm 0,6 UV-I 76 W/m 10,4 C 16,1 km/h (3 Bft)
05.09.2016 16:20 15,3 C 15,4 C 72 % 1019,7 hPa 0,0 mm 8,4 km/h (2 Bft) NW 304 0 min 0,000 mm 0,6 UV-I 72 W/m 10,3 C 14,5 km/h (3 Bft)
05.09.2016 16:21 15,3 C 15,3 C 73 % 1019,7 hPa 0,0 mm 5,3 km/h (1 Bft) W-NW 284 0 min 0,000 mm 0,5 UV-I 69 W/m 10,5 C 6,4 km/h (2 Bft)
05.09.2016 16:22 15,3 C 15,3 C 74 % 1019,6 hPa 0,0 mm 4,2 km/h (1 Bft) W-NW 283 0 min 0,000 mm 0,5 UV-I 65 W/m 10,7 C 4,8 km/h (1 Bft)
05.09.2016 16:23 15,2 C 15,3 C 74 % 1019,7 hPa 0,0 mm 4,8 km/h (1 Bft) W 276 0 min 0,000 mm 0,5 UV-I 62 W/m 10,6 C 9,7 km/h (2 Bft)
05.09.2016 16:24 15,2 C 15,2 C 74 % 1019,7 hPa 0,0 mm 5,0 km/h (1 Bft) W 263 0 min 0,000 mm 0,5 UV-I 58 W/m 10,6 C 6,4 km/h (2 Bft)
05.09.2016 16:25 15,2 C 15,2 C 75 % 1019,8 hPa 0,0 mm 4,6 km/h (1 Bft) NW 306 0 min 0,000 mm 0,0 UV-I 56 W/m 10,8 C 6,4 km/h (2 Bft)
05.09.2016 16:26 15,1 C 15,2 C 75 % 1019,7 hPa 0,0 mm 3,6 km/h (1 Bft) W 261 0 min 0,000 mm 0,0 UV-I 54 W/m 10,7 C 4,8 km/h (1 Bft)
05.09.2016 16:27 15,1 C 15,1 C 74 % 1019,8 hPa 0,0 mm 7,0 km/h (2 Bft) W 269 0 min 0,000 mm 0,0 UV-I 54 W/m 10,5 C 11,3 km/h (2 Bft)
05.09.2016 16:28 15,1 C 15,1 C 75 % 1019,8 hPa 0,0 mm 9,4 km/h (2 Bft) W-NW 298 0 min 0,000 mm 0,0 UV-I 54 W/m 10,7 C 14,5 km/h (3 Bft)
05.09.2016 16:29 15,1 C 15,1 C 74 % 1019,8 hPa 0,0 mm 5,8 km/h (2 Bft) W-NW 302 0 min 0,000 mm 0,0 UV-I 54 W/m 10,5 C 11,3 km/h (2 Bft)
05.09.2016 16:30 15,1 C 15,1 C 75 % 1019,8 hPa 0,0 mm 5,1 km/h (1 Bft) W 263 0 min 0,000 mm 0,0 UV-I 56 W/m 10,7 C 9,7 km/h (2 Bft)
05.09.2016 16:31 15,0 C 15,1 C 76 % 1019,8 hPa 0,0 mm 7,6 km/h (2 Bft) W-SW 258 0 min 0,000 mm 0,5 UV-I 58 W/m 10,8 C 9,7 km/h (2 Bft)
05.09.2016 16:32 15,0 C 15,0 C 75 % 1019,8 hPa 0,0 mm 6,5 km/h (2 Bft) W 267 0 min 0,000 mm 0,5 UV-I 60 W/m 10,6 C 11,3 km/h (2 Bft)
05.09.2016 16:33 14,9 C 15,0 C 75 % 1019,8 hPa 0,0 mm 10,2 km/h (2 Bft) W-SW 258 0 min 0,000 mm 0,5 UV-I 62 W/m 10,5 C 14,5 km/h (3 Bft)
05.09.2016 16:34 14,9 C 14,9 C 76 % 1019,8 hPa 0,0 mm 10,2 km/h (2 Bft) NW 317 0 min 0,000 mm 0,5 UV-I 63 W/m 10,7 C 16,1 km/h (3 Bft)
05.09.2016 16:35 14,9 C 14,9 C 75 % 1019,8 hPa 0,0 mm 3,7 km/h (1 Bft) W-SW 248 0 min 0,000 mm 0,5 UV-I 65 W/m 10,5 C 6,4 km/h (2 Bft)
05.09.2016 16:36 14,9 C 14,9 C 75 % 1019,8 hPa 0,0 mm 4,2 km/h (1 Bft) W-NW 282 0 min 0,000 mm 0,5 UV-I 72 W/m 10,5 C 6,4 km/h (2 Bft)
05.09.2016 16:37 14,9 C 14,9 C 76 % 1019,8 hPa 0,0 mm 6,0 km/h (2 Bft) W-SW 257 0 min 0,000 mm 0,6 UV-I 77 W/m 10,7 C 12,9 km/h (3 Bft)
05.09.2016 16:38 14,9 C 14,9 C 76 % 1019,8 hPa 0,0 mm 9,7 km/h (2 Bft) W-NW 290 0 min 0,000 mm 0,6 UV-I 81 W/m 10,7 C 14,5 km/h (3 Bft)
05.09.2016 16:39 14,9 C 14,9 C 77 % 1019,8 hPa 0,0 mm 5,4 km/h (1 Bft) W-NW 296 0 min 0,000 mm 0,6 UV-I 83 W/m 10,9 C 6,4 km/h (2 Bft)
05.09.2016 16:40 14,9 C 14,9 C 76 % 1019,8 hPa 0,0 mm 7,8 km/h (2 Bft) W-SW 246 0 min 0,000 mm 0,6 UV-I 81 W/m 10,7 C 12,9 km/h (3 Bft)
05.09.2016 16:41 14,9 C 14,9 C 76 % 1019,7 hPa 0,0 mm 6,1 km/h (2 Bft) W 261 0 min 0,000 mm 0,6 UV-I 81 W/m 10,7 C 11,3 km/h (2 Bft)
05.09.2016 16:42 14,9 C 14,9 C 76 % 1019,8 hPa 0,0 mm 6,7 km/h (2 Bft) W-NW 288 0 min 0,000 mm 0,6 UV-I 76 W/m 10,7 C 11,3 km/h (2 Bft)
05.09.2016 16:43 14,9 C 14,9 C 77 % 1019,8 hPa 0,0 mm 4,3 km/h (1 Bft) NW 304 0 min 0,000 mm 0,6 UV-I 77 W/m 10,9 C 6,4 km/h (2 Bft)
05.09.2016 16:44 14,9 C 14,9 C 76 % 1019,9 hPa 0,0 mm 4,8 km/h (1 Bft) NW 310 0 min 0,000 mm 0,6 UV-I 81 W/m 10,7 C 9,7 km/h (2 Bft)
05.09.2016 16:45 14,9 C 14,9 C 77 % 1019,8 hPa 0,0 mm 3,8 km/h (1 Bft) NW 317 0 min 0,000 mm 0,6 UV-I 86 W/m 10,9 C 6,4 km/h (2 Bft)
05.09.2016 16:46 14,9 C 14,9 C 78 % 1019,8 hPa 0,0 mm 4,1 km/h (1 Bft) W-NW 284 0 min 0,000 mm 0,7 UV-I 91 W/m 11,1 C 6,4 km/h (2 Bft)
05.09.2016 16:47 14,9 C 14,9 C 77 % 1019,8 hPa 0,0 mm 6,8 km/h (2 Bft) W 272 0 min 0,000 mm 0,7 UV-I 98 W/m 10,9 C 11,3 km/h (2 Bft)
05.09.2016 16:48 14,9 C 14,9 C 77 % 1019,9 hPa 0,0 mm 8,1 km/h (2 Bft) W-SW 251 0 min 0,000 mm 0,8 UV-I 114 W/m 10,9 C 17,7 km/h (3 Bft)
05.09.2016 16:49 14,9 C 14,9 C 77 % 1019,8 hPa 0,0 mm 12,4 km/h (3 Bft) W 259 0 min 0,000 mm 0,8 UV-I 118 W/m 10,9 C 17,7 km/h (3 Bft)
05.09.2016 16:50 14,9 C 14,9 C 77 % 1019,8 hPa 0,0 mm 6,0 km/h (2 Bft) W 267 0 min 0,000 mm 0,8 UV-I 114 W/m 10,9 C 11,3 km/h (2 Bft)
05.09.2016 16:51 14,9 C 14,9 C 78 % 1019,8 hPa 0,0 mm 8,8 km/h (2 Bft) W 269 0 min 0,000 mm 0,8 UV-I 113 W/m 11,1 C 12,9 km/h (3 Bft)
05.09.2016 16:52 14,9 C 14,9 C 77 % 1019,8 hPa 0,0 mm 8,6 km/h (2 Bft) W 262 0 min 0,000 mm 0,8 UV-I 116 W/m 10,9 C 12,9 km/h (3 Bft)
05.09.2016 16:53 15,0 C 15,0 C 77 % 1019,9 hPa 0,0 mm 6,2 km/h (2 Bft) W 276 0 min 0,000 mm 0,8 UV-I 113 W/m 11,0 C 9,7 km/h (2 Bft)
05.09.2016 16:54 14,9 C 15,0 C 77 % 1019,9 hPa 0,0 mm 5,7 km/h (1 Bft) W-NW 288 0 min 0,000 mm 0,8 UV-I 107 W/m 10,9 C 9,7 km/h (2 Bft)
05.09.2016 16:55 15,0 C 15,0 C 78 % 1019,9 hPa 0,0 mm 3,6 km/h (1 Bft) W-SW 248 0 min 0,000 mm 0,7 UV-I 102 W/m 11,2 C 6,4 km/h (2 Bft)
05.09.2016 16:56 15,0 C 15,0 C 77 % 1019,9 hPa 0,0 mm 8,0 km/h (2 Bft) W-NW 288 0 min 0,000 mm 0,7 UV-I 98 W/m 11,0 C 12,9 km/h (3 Bft)
05.09.2016 16:57 15,0 C 15,0 C 77 % 1019,9 hPa 0,0 mm 9,3 km/h (2 Bft) W-NW 286 0 min 0,000 mm 0,7 UV-I 97 W/m 11,0 C 14,5 km/h (3 Bft)
05.09.2016 16:58 15,0 C 15,0 C 77 % 1019,9 hPa 0,0 mm 6,8 km/h (2 Bft) W 281 0 min 0,000 mm 0,7 UV-I 97 W/m 11,0 C 9,7 km/h (2 Bft)
05.09.2016 16:59 15,0 C 15,1 C 78 % 1019,9 hPa 0,0 mm 4,0 km/h (1 Bft) W 273 0 min 0,000 mm 0,6 UV-I 90 W/m 11,2 C 9,7 km/h (2 Bft)
05.09.2016 17:00 15,0 C 15,1 C 77 % 1019,9 hPa 0,0 mm 6,6 km/h (2 Bft) W 264 0 min 0,000 mm 0,6 UV-I 86 W/m 11,0 C 12,9 km/h (3 Bft)
05.09.2016 17:01 15,0 C 15,0 C 77 % 1019,9 hPa 0,0 mm 9,4 km/h (2 Bft) W-SW 246 0 min 0,076 mm 0,6 UV-I 84 W/m 11,0 C 14,5 km/h (3 Bft)
05.09.2016 17:02 15,0 C 15,0 C 77 % 1019,9 hPa 0,0 mm 9,3 km/h (2 Bft) W-SW 242 0 min 0,000 mm 0,6 UV-I 84 W/m 11,0 C 14,5 km/h (3 Bft)
05.09.2016 17:03 15,0 C 15,0 C 77 % 1019,9 hPa 0,0 mm 6,4 km/h (2 Bft) W-NW 289 0 min 0,000 mm 0,6 UV-I 86 W/m 11,0 C 11,3 km/h (2 Bft)
05.09.2016 17:04 15,0 C 15,0 C 77 % 1019,9 hPa 0,0 mm 3,2 km/h (1 Bft) W-SW 244 0 min 0,000 mm 0,7 UV-I 93 W/m 11,0 C 4,8 km/h (1 Bft)
05.09.2016 17:05 15,0 C 15,0 C 79 % 1020,0 hPa 0,0 mm 3,5 km/h (1 Bft) W-NW 282 0 min 0,000 mm 0,7 UV-I 113 W/m 11,4 C 4,8 km/h (1 Bft)
05.09.2016 17:06 15,0 C 15,1 C 78 % 1020,0 hPa 0,0 mm 3,8 km/h (1 Bft) W-NW 286 0 min 0,000 mm 0,9 UV-I 121 W/m 11,2 C 4,8 km/h (1 Bft)
05.09.2016 17:07 15,1 C 15,1 C 79 % 1020,0 hPa 0,0 mm 3,8 km/h (1 Bft) W-SW 242 0 min 0,000 mm 0,9 UV-I 128 W/m 11,5 C 6,4 km/h (2 Bft)
05.09.2016 17:08 15,1 C 15,1 C 79 % 1020,0 hPa 0,0 mm 9,9 km/h (2 Bft) W 260 0 min 0,000 mm 0,9 UV-I 137 W/m 11,5 C 17,7 km/h (3 Bft)
05.09.2016 17:09 15,1 C 15,1 C 78 % 1020,0 hPa 0,0 mm 7,8 km/h (2 Bft) W 268 0 min 0,000 mm 1,0 UV-I 142 W/m 11,3 C 11,3 km/h (2 Bft)
05.09.2016 17:10 15,1 C 15,1 C 78 % 1020,0 hPa 0,0 mm 10,7 km/h (2 Bft) SW 228 0 min 0,000 mm 1,0 UV-I 148 W/m 11,3 C 16,1 km/h (3 Bft)
05.09.2016 17:11 15,2 C 15,2 C 77 % 1020,0 hPa 0,0 mm 10,5 km/h (2 Bft) W 276 0 min 0,000 mm 1,0 UV-I 151 W/m 11,2 C 16,1 km/h (3 Bft)
05.09.2016 17:12 15,2 C 15,2 C 78 % 1020,0 hPa 0,0 mm 8,3 km/h (2 Bft) W-SW 239 0 min 0,000 mm 1,0 UV-I 151 W/m 11,4 C 16,1 km/h (3 Bft)
05.09.2016 17:13 15,2 C 15,2 C 78 % 1020,0 hPa 0,0 mm 9,7 km/h (2 Bft) W-NW 290 0 min 0,000 mm 1,0 UV-I 151 W/m 11,4 C 16,1 km/h (3 Bft)
05.09.2016 17:14 15,2 C 15,2 C 76 % 1020,1 hPa 0,0 mm 6,1 km/h (2 Bft) W-NW 290 0 min 0,000 mm 1,0 UV-I 153 W/m 11,0 C 11,3 km/h (2 Bft)
05.09.2016 17:15 15,2 C 15,2 C 77 % 1020,1 hPa 0,0 mm 3,9 km/h (1 Bft) W 261 0 min 0,000 mm 1,1 UV-I 156 W/m 11,2 C 6,4 km/h (2 Bft)
05.09.2016 17:16 15,3 C 15,3 C 79 % 1020,1 hPa 0,0 mm 9,7 km/h (2 Bft) W-SW 238 0 min 0,000 mm 1,1 UV-I 162 W/m 11,7 C 17,7 km/h (3 Bft)
05.09.2016 17:17 15,3 C 15,3 C 76 % 1020,1 hPa 0,0 mm 6,2 km/h (2 Bft) W-NW 301 0 min 0,000 mm 1,1 UV-I 158 W/m 11,1 C 9,7 km/h (2 Bft)
05.09.2016 17:18 15,3 C 15,3 C 78 % 1020,1 hPa 0,0 mm 4,1 km/h (1 Bft) W 265 0 min 0,000 mm 1,1 UV-I 155 W/m 11,5 C 8,0 km/h (2 Bft)
05.09.2016 17:19 15,3 C 15,3 C 77 % 1020,2 hPa 0,0 mm 6,2 km/h (2 Bft) NW 321 0 min 0,000 mm 1,1 UV-I 153 W/m 11,3 C 11,3 km/h (2 Bft)
05.09.2016 17:20 15,4 C 15,4 C 78 % 1020,1 hPa 0,0 mm 4,1 km/h (1 Bft) NW 304 0 min 0,000 mm 1,1 UV-I 153 W/m 11,6 C 11,3 km/h (2 Bft)
05.09.2016 17:21 15,4 C 15,4 C 78 % 1020,1 hPa 0,0 mm 5,5 km/h (1 Bft) W 277 0 min 0,000 mm 1,0 UV-I 148 W/m 11,6 C 11,3 km/h (2 Bft)
05.09.2016 17:22 15,4 C 15,4 C 77 % 1020,1 hPa 0,0 mm 7,6 km/h (2 Bft) W-SW 254 0 min 0,000 mm 1,0 UV-I 142 W/m 11,4 C 16,1 km/h (3 Bft)
05.09.2016 17:23 15,4 C 15,5 C 77 % 1020,2 hPa 0,0 mm 13,7 km/h (3 Bft) W 267 0 min 0,000 mm 1,0 UV-I 132 W/m 11,4 C 19,3 km/h (3 Bft)
05.09.2016 17:24 15,4 C 15,4 C 76 % 1020,2 hPa 0,0 mm 10,7 km/h (2 Bft) W-SW 254 0 min 0,000 mm 0,9 UV-I 123 W/m 11,2 C 17,7 km/h (3 Bft)
05.09.2016 17:25 15,4 C 15,4 C 75 % 1020,3 hPa 0,0 mm 8,1 km/h (2 Bft) W 265 0 min 0,000 mm 0,9 UV-I 116 W/m 11,0 C 14,5 km/h (3 Bft)
05.09.2016 17:26 15,4 C 15,4 C 77 % 1020,2 hPa 0,0 mm 12,1 km/h (2 Bft) W-SW 258 0 min 0,000 mm 0,9 UV-I 113 W/m 11,4 C 19,3 km/h (3 Bft)
05.09.2016 17:27 15,4 C 15,4 C 76 % 1020,3 hPa 0,0 mm 11,8 km/h (2 Bft) W-SW 252 0 min 0,000 mm 0,8 UV-I 109 W/m 11,2 C 17,7 km/h (3 Bft)
05.09.2016 17:28 15,3 C 15,4 C 75 % 1020,3 hPa 0,0 mm 11,3 km/h (2 Bft) W-SW 256 0 min 0,000 mm 0,8 UV-I 104 W/m 10,9 C 17,7 km/h (3 Bft)
05.09.2016 17:29 15,3 C 15,3 C 76 % 1020,3 hPa 0,0 mm 15,7 km/h (3 Bft) SW 235 0 min 0,000 mm 0,8 UV-I 100 W/m 11,1 C 20,9 km/h (4 Bft)
05.09.2016 17:30 15,3 C 15,3 C 76 % 1020,3 hPa 0,0 mm 12,8 km/h (3 Bft) W-SW 258 0 min 0,000 mm 0,7 UV-I 98 W/m 11,1 C 17,7 km/h (3 Bft)
05.09.2016 17:31 15,3 C 15,3 C 76 % 1020,3 hPa 0,0 mm 10,5 km/h (2 Bft) W-NW 285 0 min 0,000 mm 0,7 UV-I 97 W/m 11,1 C 14,5 km/h (3 Bft)
05.09.2016 17:32 15,3 C 15,3 C 76 % 1020,3 hPa 0,0 mm 11,1 km/h (2 Bft) W-SW 247 0 min 0,000 mm 0,7 UV-I 93 W/m 11,1 C 14,5 km/h (3 Bft)
05.09.2016 17:33 15,3 C 15,3 C 77 % 1020,3 hPa 0,0 mm 6,8 km/h (2 Bft) W-SW 255 0 min 0,000 mm 0,7 UV-I 91 W/m 11,3 C 12,9 km/h (3 Bft)
05.09.2016 17:34 15,2 C 15,3 C 77 % 1020,3 hPa 0,0 mm 8,7 km/h (2 Bft) W-NW 297 0 min 0,000 mm 0,6 UV-I 88 W/m 11,2 C 14,5 km/h (3 Bft)
05.09.2016 17:35 15,2 C 15,2 C 77 % 1020,4 hPa 0,0 mm 7,3 km/h (2 Bft) W-NW 298 0 min 0,000 mm 0,6 UV-I 88 W/m 11,2 C 11,3 km/h (2 Bft)
05.09.2016 17:36 15,2 C 15,2 C 77 % 1020,3 hPa 0,0 mm 7,6 km/h (2 Bft) W-SW 258 0 min 0,000 mm 0,6 UV-I 83 W/m 11,2 C 12,9 km/h (3 Bft)
05.09.2016 17:37 15,2 C 15,2 C 76 % 1020,4 hPa 0,0 mm 6,2 km/h (2 Bft) W 280 0 min 0,000 mm 0,5 UV-I 77 W/m 11,0 C 9,7 km/h (2 Bft)
05.09.2016 17:38 15,2 C 15,2 C 76 % 1020,3 hPa 0,0 mm 5,4 km/h (1 Bft) W 265 0 min 0,000 mm 0,5 UV-I 76 W/m 11,0 C 9,7 km/h (2 Bft)
05.09.2016 17:39 15,2 C 15,2 C 77 % 1020,3 hPa 0,0 mm 4,9 km/h (1 Bft) SW 223 0 min 0,000 mm 0,5 UV-I 74 W/m 11,2 C 6,4 km/h (2 Bft)
05.09.2016 17:40 15,2 C 15,2 C 78 % 1020,3 hPa 0,0 mm 6,0 km/h (2 Bft) W-SW 254 0 min 0,000 mm 0,5 UV-I 72 W/m 11,4 C 12,9 km/h (3 Bft)
05.09.2016 17:41 15,2 C 15,2 C 77 % 1020,4 hPa 0,0 mm 10,9 km/h (2 Bft) W 277 0 min 0,000 mm 0,5 UV-I 74 W/m 11,2 C 16,1 km/h (3 Bft)
05.09.2016 17:42 15,1 C 15,2 C 76 % 1020,4 hPa 0,0 mm 9,5 km/h (2 Bft) W-NW 291 0 min 0,000 mm 0,5 UV-I 74 W/m 10,9 C 14,5 km/h (3 Bft)
05.09.2016 17:43 15,1 C 15,2 C 76 % 1020,3 hPa 0,0 mm 7,3 km/h (2 Bft) W-SW 248 0 min 0,000 mm 0,5 UV-I 76 W/m 10,9 C 14,5 km/h (3 Bft)
05.09.2016 17:44 15,1 C 15,1 C 76 % 1020,3 hPa 0,0 mm 15,2 km/h (3 Bft) W-NW 293 0 min 0,000 mm 0,5 UV-I 79 W/m 10,9 C 20,9 km/h (4 Bft)
05.09.2016 17:45 15,1 C 15,1 C 77 % 1020,3 hPa 0,0 mm 9,1 km/h (2 Bft) W 274 0 min 0,000 mm 0,5 UV-I 79 W/m 11,1 C 14,5 km/h (3 Bft)
05.09.2016 17:46 15,1 C 15,1 C 77 % 1020,4 hPa 0,0 mm 5,5 km/h (1 Bft) W-NW 287 0 min 0,000 mm 0,5 UV-I 72 W/m 11,1 C 11,3 km/h (2 Bft)
05.09.2016 17:47 15,1 C 15,1 C 78 % 1020,5 hPa 0,0 mm 10,2 km/h (2 Bft) W-NW 296 0 min 0,000 mm 0,5 UV-I 70 W/m 11,3 C 14,5 km/h (3 Bft)
05.09.2016 17:48 15,1 C 15,1 C 77 % 1020,4 hPa 0,0 mm 4,7 km/h (1 Bft) W-NW 302 0 min 0,000 mm 0,5 UV-I 67 W/m 11,1 C 6,4 km/h (2 Bft)
05.09.2016 17:49 15,1 C 15,1 C 78 % 1020,4 hPa 0,0 mm 2,7 km/h (1 Bft) W 261 0 min 0,000 mm 0,0 UV-I 63 W/m 11,3 C 4,8 km/h (1 Bft)
05.09.2016 17:50 15,0 C 15,1 C 78 % 1020,5 hPa 0,0 mm 7,8 km/h (2 Bft) W 260 0 min 0,000 mm 0,0 UV-I 62 W/m 11,2 C 11,3 km/h (2 Bft)
05.09.2016 17:51 15,0 C 15,1 C 78 % 1020,5 hPa 0,0 mm 6,2 km/h (2 Bft) W-NW 290 0 min 0,000 mm 0,0 UV-I 60 W/m 11,2 C 11,3 km/h (2 Bft)
05.09.2016 17:52 15,0 C 15,0 C 79 % 1020,4 hPa 0,0 mm 6,0 km/h (2 Bft) W-SW 252 0 min 0,000 mm 0,0 UV-I 54 W/m 11,4 C 11,3 km/h (2 Bft)
05.09.2016 17:53 15,0 C 15,0 C 79 % 1020,4 hPa 0,0 mm 9,1 km/h (2 Bft) W 265 0 min 0,000 mm 0,0 UV-I 53 W/m 11,4 C 14,5 km/h (3 Bft)
05.09.2016 17:54 15,0 C 15,0 C 78 % 1020,4 hPa 0,0 mm 8,4 km/h (2 Bft) W-SW 243 0 min 0,000 mm 0,0 UV-I 53 W/m 11,2 C 12,9 km/h (3 Bft)
05.09.2016 17:55 14,9 C 15,0 C 77 % 1020,5 hPa 0,0 mm 11,1 km/h (2 Bft) W 281 0 min 0,000 mm 0,0 UV-I 54 W/m 10,9 C 14,5 km/h (3 Bft)
05.09.2016 17:56 14,9 C 14,9 C 77 % 1020,5 hPa 0,0 mm 10,3 km/h (2 Bft) W-SW 239 0 min 0,000 mm 0,0 UV-I 58 W/m 10,9 C 14,5 km/h (3 Bft)
05.09.2016 17:57 14,9 C 14,9 C 78 % 1020,4 hPa 0,0 mm 9,7 km/h (2 Bft) W-SW 250 0 min 0,000 mm 0,0 UV-I 65 W/m 11,1 C 17,7 km/h (3 Bft)
05.09.2016 17:58 14,9 C 14,9 C 77 % 1020,5 hPa 0,0 mm 7,5 km/h (2 Bft) W-NW 298 0 min 0,000 mm 0,0 UV-I 76 W/m 10,9 C 12,9 km/h (3 Bft)
05.09.2016 17:59 14,9 C 14,9 C 78 % 1020,5 hPa 0,0 mm 8,1 km/h (2 Bft) W 267 0 min 0,000 mm 0,5 UV-I 81 W/m 11,1 C 14,5 km/h (3 Bft)
05.09.2016 18:00 14,9 C 14,9 C 77 % 1020,5 hPa 0,0 mm 6,1 km/h (2 Bft) W-NW 288 0 min 0,000 mm 0,5 UV-I 88 W/m 10,9 C 9,7 km/h (2 Bft)
05.09.2016 18:01 14,9 C 14,9 C 78 % 1020,5 hPa 0,0 mm 6,5 km/h (2 Bft) W 278 0 min 0,076 mm 0,5 UV-I 93 W/m 11,1 C 11,3 km/h (2 Bft)
05.09.2016 18:02 14,9 C 14,9 C 78 % 1020,6 hPa 0,0 mm 9,7 km/h (2 Bft) W 277 0 min 0,000 mm 0,6 UV-I 95 W/m 11,1 C 16,1 km/h (3 Bft)
05.09.2016 18:03 14,9 C 14,9 C 78 % 1020,6 hPa 0,0 mm 7,4 km/h (2 Bft) W-SW 240 0 min 0,000 mm 0,6 UV-I 95 W/m 11,1 C 11,3 km/h (2 Bft)
05.09.2016 18:04 14,9 C 14,9 C 78 % 1020,6 hPa 0,0 mm 10,7 km/h (2 Bft) W-NW 298 0 min 0,000 mm 0,6 UV-I 86 W/m 11,1 C 16,1 km/h (3 Bft)
05.09.2016 18:05 14,9 C 15,0 C 78 % 1020,6 hPa 0,0 mm 7,3 km/h (2 Bft) W-NW 296 0 min 0,000 mm 0,5 UV-I 81 W/m 11,1 C 11,3 km/h (2 Bft)
05.09.2016 18:06 14,9 C 15,0 C 78 % 1020,6 hPa 0,0 mm 4,4 km/h (1 Bft) W 280 0 min 0,000 mm 0,5 UV-I 76 W/m 11,1 C 9,7 km/h (2 Bft)
05.09.2016 18:07 14,9 C 15,0 C 77 % 1020,6 hPa 0,0 mm 8,4 km/h (2 Bft) W-NW 291 0 min 0,000 mm 0,0 UV-I 70 W/m 10,9 C 14,5 km/h (3 Bft)
05.09.2016 18:08 14,9 C 14,9 C 78 % 1020,6 hPa 0,0 mm 6,8 km/h (2 Bft) W 276 0 min 0,000 mm 0,0 UV-I 67 W/m 11,1 C 11,3 km/h (2 Bft)
05.09.2016 18:09 14,9 C 14,9 C 78 % 1020,7 hPa 0,0 mm 6,4 km/h (2 Bft) W 263 0 min 0,000 mm 0,0 UV-I 62 W/m 11,1 C 11,3 km/h (2 Bft)
05.09.2016 18:10 14,9 C 14,9 C 78 % 1020,6 hPa 0,0 mm 5,1 km/h (1 Bft) W-NW 290 0 min 0,000 mm 0,0 UV-I 53 W/m 11,1 C 8,0 km/h (2 Bft)
05.09.2016 18:11 14,9 C 14,9 C 78 % 1020,6 hPa 0,0 mm 6,5 km/h (2 Bft) W-SW 252 0 min 0,000 mm 0,0 UV-I 49 W/m 11,1 C 9,7 km/h (2 Bft)
05.09.2016 18:12 14,9 C 14,9 C 78 % 1020,6 hPa 0,0 mm 5,2 km/h (1 Bft) W-SW 252 0 min 0,000 mm 0,0 UV-I 44 W/m 11,1 C 6,4 km/h (2 Bft)
05.09.2016 18:13 14,9 C 14,9 C 78 % 1020,6 hPa 0,0 mm 5,4 km/h (1 Bft) W-NW 284 0 min 0,000 mm 0,0 UV-I 42 W/m 11,1 C 9,7 km/h (2 Bft)
05.09.2016 18:14 14,8 C 14,9 C 78 % 1020,7 hPa 0,0 mm 4,0 km/h (1 Bft) W 261 0 min 0,000 mm 0,0 UV-I 40 W/m 11,0 C 4,8 km/h (1 Bft)
05.09.2016 18:15 14,8 C 14,9 C 79 % 1020,6 hPa 0,0 mm 3,4 km/h (1 Bft) W 273 0 min 0,000 mm 0,0 UV-I 40 W/m 11,2 C 6,4 km/h (2 Bft)
05.09.2016 18:16 14,8 C 14,8 C 79 % 1020,6 hPa 0,0 mm 3,9 km/h (1 Bft) W 279 0 min 0,000 mm 0,0 UV-I 39 W/m 11,2 C 9,7 km/h (2 Bft)
05.09.2016 18:17 14,8 C 14,8 C 79 % 1020,7 hPa 0,0 mm 5,0 km/h (1 Bft) W 266 0 min 0,000 mm 0,0 UV-I 39 W/m 11,2 C 8,0 km/h (2 Bft)
05.09.2016 18:18 14,8 C 14,8 C 80 % 1020,6 hPa 0,0 mm 7,2 km/h (2 Bft) W 275 0 min 0,000 mm 0,0 UV-I 39 W/m 11,4 C 11,3 km/h (2 Bft)
05.09.2016 18:19 14,8 C 14,8 C 80 % 1020,7 hPa 0,0 mm 4,0 km/h (1 Bft) W-SW 245 0 min 0,000 mm 0,0 UV-I 39 W/m 11,4 C 4,8 km/h (1 Bft)
05.09.2016 18:20 14,7 C 14,8 C 79 % 1020,7 hPa 0,0 mm 4,0 km/h (1 Bft) W-NW 289 0 min 0,000 mm 0,0 UV-I 40 W/m 11,1 C 6,4 km/h (2 Bft)
05.09.2016 18:21 14,7 C 14,7 C 79 % 1020,7 hPa 0,0 mm 3,8 km/h (1 Bft) W 273 0 min 0,000 mm 0,0 UV-I 39 W/m 11,1 C 8,0 km/h (2 Bft)
05.09.2016 18:22 14,7 C 14,7 C 79 % 1020,7 hPa 0,0 mm 2,3 km/h (1 Bft) W-NW 287 0 min 0,000 mm 0,0 UV-I 39 W/m 11,1 C 4,8 km/h (1 Bft)
05.09.2016 18:23 14,7 C 14,7 C 79 % 1020,7 hPa 0,0 mm 6,2 km/h (2 Bft) W 275 0 min 0,000 mm 0,0 UV-I 37 W/m 11,1 C 9,7 km/h (2 Bft)
05.09.2016 18:24 14,7 C 14,7 C 79 % 1020,8 hPa 0,0 mm 4,4 km/h (1 Bft) W-NW 286 0 min 0,000 mm 0,0 UV-I 37 W/m 11,1 C 6,4 km/h (2 Bft)
05.09.2016 18:25 14,7 C 14,7 C 79 % 1020,8 hPa 0,0 mm 2,1 km/h (1 Bft) NW 306 0 min 0,000 mm 0,0 UV-I 35 W/m 11,1 C 4,8 km/h (1 Bft)
05.09.2016 18:26 14,7 C 14,7 C 80 % 1020,7 hPa 0,0 mm 2,6 km/h (1 Bft) W-SW 254 0 min 0,000 mm 0,0 UV-I 35 W/m 11,3 C 6,4 km/h (2 Bft)
05.09.2016 18:27 14,7 C 14,7 C 80 % 1020,8 hPa 0,0 mm 4,2 km/h (1 Bft) W 279 0 min 0,000 mm 0,0 UV-I 32 W/m 11,3 C 9,7 km/h (2 Bft)
05.09.2016 18:28 14,6 C 14,7 C 79 % 1020,8 hPa 0,0 mm 13,0 km/h (3 Bft) W 271 0 min 0,000 mm 0,0 UV-I 30 W/m 11,0 C 20,9 km/h (4 Bft)
05.09.2016 18:29 14,7 C 14,7 C 78 % 1020,8 hPa 0,0 mm 9,6 km/h (2 Bft) W 275 0 min 0,000 mm 0,0 UV-I 28 W/m 10,9 C 12,9 km/h (3 Bft)
05.09.2016 18:30 14,7 C 14,7 C 79 % 1020,7 hPa 0,0 mm 7,0 km/h (2 Bft) W 277 0 min 0,000 mm 0,0 UV-I 30 W/m 11,1 C 11,3 km/h (2 Bft)
05.09.2016 18:31 14,7 C 14,7 C 79 % 1020,7 hPa 0,0 mm 9,0 km/h (2 Bft) W-NW 285 0 min 0,000 mm 0,0 UV-I 30 W/m 11,1 C 11,3 km/h (2 Bft)
05.09.2016 18:32 14,6 C 14,7 C 78 % 1020,8 hPa 0,0 mm 7,6 km/h (2 Bft) W-SW 252 0 min 0,000 mm 0,0 UV-I 32 W/m 10,8 C 11,3 km/h (2 Bft)
05.09.2016 18:33 14,6 C 14,7 C 79 % 1020,8 hPa 0,0 mm 11,3 km/h (2 Bft) W 265 0 min 0,000 mm 0,0 UV-I 35 W/m 11,0 C 16,1 km/h (3 Bft)
05.09.2016 18:34 14,6 C 14,7 C 77 % 1020,7 hPa 0,0 mm 9,0 km/h (2 Bft) W-SW 245 0 min 0,000 mm 0,0 UV-I 35 W/m 10,6 C 12,9 km/h (3 Bft)
05.09.2016 18:35 14,6 C 14,6 C 78 % 1020,8 hPa 0,0 mm 8,6 km/h (2 Bft) W-NW 302 0 min 0,000 mm 0,0 UV-I 37 W/m 10,8 C 12,9 km/h (3 Bft)
05.09.2016 18:36 14,6 C 14,6 C 78 % 1020,8 hPa 0,0 mm 3,2 km/h (1 Bft) W-SW 255 0 min 0,000 mm 0,0 UV-I 37 W/m 10,8 C 4,8 km/h (1 Bft)
05.09.2016 18:37 14,6 C 14,6 C 79 % 1020,7 hPa 0,0 mm 8,5 km/h (2 Bft) SW 218 0 min 0,000 mm 0,0 UV-I 39 W/m 11,0 C 14,5 km/h (3 Bft)
05.09.2016 18:38 14,6 C 14,6 C 78 % 1020,7 hPa 0,0 mm 3,5 km/h (1 Bft) W-SW 257 0 min 0,000 mm 0,0 UV-I 39 W/m 10,8 C 6,4 km/h (2 Bft)
05.09.2016 18:39 14,6 C 14,6 C 78 % 1020,8 hPa 0,0 mm 5,4 km/h (1 Bft) W 278 0 min 0,000 mm 0,0 UV-I 42 W/m 10,8 C 11,3 km/h (2 Bft)
05.09.2016 18:40 14,6 C 14,6 C 78 % 1020,8 hPa 0,0 mm 4,6 km/h (1 Bft) W-SW 254 0 min 0,000 mm 0,0 UV-I 44 W/m 10,8 C 6,4 km/h (2 Bft)
05.09.2016 18:41 14,6 C 14,6 C 79 % 1020,8 hPa 0,0 mm 3,0 km/h (1 Bft) W 266 0 min 0,000 mm 0,0 UV-I 46 W/m 11,0 C 4,8 km/h (1 Bft)
05.09.2016 18:42 14,6 C 14,6 C 79 % 1020,8 hPa 0,0 mm 5,7 km/h (1 Bft) W-SW 256 0 min 0,000 mm 0,0 UV-I 46 W/m 11,0 C 9,7 km/h (2 Bft)
05.09.2016 18:43 14,6 C 14,6 C 80 % 1020,8 hPa 0,0 mm 5,2 km/h (1 Bft) W-NW 287 0 min 0,000 mm 0,0 UV-I 46 W/m 11,2 C 9,7 km/h (2 Bft)
05.09.2016 18:44 14,6 C 14,6 C 80 % 1020,8 hPa 0,0 mm 4,4 km/h (1 Bft) W 273 0 min 0,000 mm 0,0 UV-I 46 W/m 11,2 C 9,7 km/h (2 Bft)
05.09.2016 18:45 14,5 C 14,6 C 79 % 1020,8 hPa 0,0 mm 5,5 km/h (1 Bft) W 275 0 min 0,000 mm 0,0 UV-I 44 W/m 10,9 C 8,0 km/h (2 Bft)
05.09.2016 18:46 14,5 C 14,6 C 79 % 1020,8 hPa 0,0 mm 4,5 km/h (1 Bft) SW 223 0 min 0,000 mm 0,0 UV-I 42 W/m 10,9 C 9,7 km/h (2 Bft)
05.09.2016 18:47 14,5 C 14,6 C 80 % 1020,8 hPa 0,0 mm 7,4 km/h (2 Bft) W-SW 238 0 min 0,000 mm 0,0 UV-I 40 W/m 11,1 C 11,3 km/h (2 Bft)
05.09.2016 18:48 14,5 C 14,5 C 80 % 1020,8 hPa 0,0 mm 9,7 km/h (2 Bft) W 277 0 min 0,000 mm 0,0 UV-I 39 W/m 11,1 C 12,9 km/h (3 Bft)
05.09.2016 18:49 14,5 C 14,5 C 79 % 1020,8 hPa 0,0 mm 7,5 km/h (2 Bft) W-SW 240 0 min 0,000 mm 0,0 UV-I 40 W/m 10,9 C 12,9 km/h (3 Bft)
05.09.2016 18:50 14,5 C 14,5 C 79 % 1020,8 hPa 0,0 mm 2,5 km/h (1 Bft) W 261 0 min 0,000 mm 0,0 UV-I 46 W/m 10,9 C 6,4 km/h (2 Bft)
05.09.2016 18:51 14,4 C 14,5 C 80 % 1020,8 hPa 0,0 mm 6,1 km/h (2 Bft) W 270 0 min 0,000 mm 0,0 UV-I 42 W/m 11,0 C 11,3 km/h (2 Bft)
05.09.2016 18:52 14,5 C 14,5 C 79 % 1020,9 hPa 0,0 mm 7,7 km/h (2 Bft) W-SW 247 0 min 0,000 mm 0,0 UV-I 42 W/m 10,9 C 12,9 km/h (3 Bft)
05.09.2016 18:53 14,5 C 14,5 C 79 % 1020,9 hPa 0,0 mm 7,4 km/h (2 Bft) W-SW 248 0 min 0,000 mm 0,0 UV-I 44 W/m 10,9 C 11,3 km/h (2 Bft)
05.09.2016 18:54 14,5 C 14,5 C 80 % 1020,9 hPa 0,0 mm 3,2 km/h (1 Bft) W-SW 256 0 min 0,000 mm 0,0 UV-I 44 W/m 11,1 C 11,3 km/h (2 Bft)
05.09.2016 18:55 14,5 C 14,5 C 80 % 1020,9 hPa 0,0 mm 6,4 km/h (2 Bft) W-SW 254 0 min 0,000 mm 0,0 UV-I 44 W/m 11,1 C 12,9 km/h (3 Bft)
05.09.2016 18:56 14,5 C 14,5 C 80 % 1020,9 hPa 0,0 mm 5,1 km/h (1 Bft) W 265 0 min 0,000 mm 0,0 UV-I 42 W/m 11,1 C 9,7 km/h (2 Bft)
05.09.2016 18:57 14,5 C 14,5 C 80 % 1021,0 hPa 0,0 mm 6,8 km/h (2 Bft) W-SW 256 0 min 0,000 mm 0,0 UV-I 42 W/m 11,1 C 12,9 km/h (3 Bft)
05.09.2016 18:58 14,5 C 14,5 C 80 % 1021,0 hPa 0,0 mm 10,8 km/h (2 Bft) W-SW 250 0 min 0,000 mm 0,0 UV-I 42 W/m 11,1 C 16,1 km/h (3 Bft)
05.09.2016 18:59 14,4 C 14,5 C 79 % 1021,0 hPa 0,0 mm 8,6 km/h (2 Bft) W 261 0 min 0,000 mm 0,0 UV-I 44 W/m 10,8 C 14,5 km/h (3 Bft)
05.09.2016 19:00 14,4 C 14,5 C 79 % 1021,0 hPa 0,0 mm 10,3 km/h (2 Bft) W-NW 284 0 min 0,000 mm 0,0 UV-I 44 W/m 10,8 C 16,1 km/h (3 Bft)
05.09.2016 19:01 14,4 C 14,5 C 80 % 1020,9 hPa 0,0 mm 5,3 km/h (1 Bft) W-NW 294 0 min 0,051 mm 0,0 UV-I 44 W/m 11,0 C 9,7 km/h (2 Bft)
05.09.2016 19:02 14,4 C 14,5 C 80 % 1021,0 hPa 0,0 mm 6,6 km/h (2 Bft) W-SW 257 0 min 0,000 mm 0,0 UV-I 46 W/m 11,0 C 11,3 km/h (2 Bft)
05.09.2016 19:03 14,4 C 14,5 C 80 % 1021,0 hPa 0,0 mm 7,8 km/h (2 Bft) W 260 0 min 0,000 mm 0,0 UV-I 44 W/m 11,0 C 11,3 km/h (2 Bft)
05.09.2016 19:04 14,4 C 14,4 C 80 % 1020,9 hPa 0,0 mm 4,0 km/h (1 Bft) W-NW 289 0 min 0,000 mm 0,0 UV-I 46 W/m 11,0 C 9,7 km/h (2 Bft)
05.09.2016 19:05 14,4 C 14,4 C 80 % 1021,0 hPa 0,0 mm 3,8 km/h (1 Bft) W 269 0 min 0,000 mm 0,0 UV-I 40 W/m 11,0 C 6,4 km/h (2 Bft)
05.09.2016 19:06 14,4 C 14,4 C 81 % 1021,0 hPa 0,0 mm 4,4 km/h (1 Bft) W-SW 247 0 min 0,000 mm 0,0 UV-I 39 W/m 11,2 C 6,4 km/h (2 Bft)
05.09.2016 19:07 14,3 C 14,4 C 82 % 1021,0 hPa 0,0 mm 4,8 km/h (1 Bft) W-SW 242 0 min 0,000 mm 0,0 UV-I 37 W/m 11,3 C 11,3 km/h (2 Bft)
05.09.2016 19:08 14,3 C 14,3 C 81 % 1021,0 hPa 0,0 mm 5,6 km/h (1 Bft) W-NW 285 0 min 0,000 mm 0,0 UV-I 33 W/m 11,1 C 9,7 km/h (2 Bft)
05.09.2016 19:09 14,3 C 14,3 C 80 % 1021,0 hPa 0,0 mm 5,2 km/h (1 Bft) W 279 0 min 0,000 mm 0,0 UV-I 32 W/m 10,9 C 6,4 km/h (2 Bft)
05.09.2016 19:10 14,3 C 14,3 C 80 % 1021,1 hPa 0,0 mm 4,0 km/h (1 Bft) W-SW 253 0 min 0,000 mm 0,0 UV-I 30 W/m 10,9 C 6,4 km/h (2 Bft)
05.09.2016 19:11 14,3 C 14,3 C 80 % 1021,1 hPa 0,0 mm 4,6 km/h (1 Bft) W-SW 251 0 min 0,000 mm 0,0 UV-I 28 W/m 10,9 C 6,4 km/h (2 Bft)
05.09.2016 19:12 14,3 C 14,3 C 80 % 1021,1 hPa 0,0 mm 4,7 km/h (1 Bft) W 259 0 min 0,000 mm 0,0 UV-I 25 W/m 10,9 C 6,4 km/h (2 Bft)
05.09.2016 19:13 14,3 C 14,3 C 80 % 1021,1 hPa 0,0 mm 6,4 km/h (2 Bft) W 267 0 min 0,000 mm 0,0 UV-I 23 W/m 10,9 C 9,7 km/h (2 Bft)
05.09.2016 19:14 14,3 C 14,3 C 81 % 1021,1 hPa 0,0 mm 5,6 km/h (1 Bft) W-SW 252 0 min 0,000 mm 0,0 UV-I 21 W/m 11,1 C 6,4 km/h (2 Bft)
05.09.2016 19:15 14,2 C 14,3 C 80 % 1021,1 hPa 0,0 mm 5,5 km/h (1 Bft) W-SW 256 0 min 0,000 mm 0,0 UV-I 18 W/m 10,8 C 11,3 km/h (2 Bft)
05.09.2016 19:16 14,2 C 14,2 C 81 % 1021,1 hPa 0,0 mm 4,9 km/h (1 Bft) W-SW 257 0 min 0,000 mm 0,0 UV-I 18 W/m 11,0 C 8,0 km/h (2 Bft)
05.09.2016 19:17 14,2 C 14,2 C 81 % 1021,1 hPa 0,0 mm 2,1 km/h (1 Bft) W-SW 257 0 min 0,000 mm 0,0 UV-I 19 W/m 11,0 C 4,8 km/h (1 Bft)
05.09.2016 19:18 14,1 C 14,2 C 82 % 1021,1 hPa 0,0 mm 1,6 km/h (1 Bft) W-SW 255 0 min 0,000 mm 0,0 UV-I 16 W/m 11,1 C 4,8 km/h (1 Bft)
05.09.2016 19:19 14,1 C 14,1 C 81 % 1021,0 hPa 0,0 mm 2,8 km/h (1 Bft) W 261 0 min 0,000 mm 0,0 UV-I 14 W/m 10,9 C 4,8 km/h (1 Bft)
05.09.2016 19:20 14,1 C 14,1 C 82 % 1021,1 hPa 0,0 mm 2,7 km/h (1 Bft) W 260 0 min 0,000 mm 0,0 UV-I 14 W/m 11,1 C 6,4 km/h (2 Bft)
05.09.2016 19:21 14,0 C 14,1 C 82 % 1021,2 hPa 0,0 mm 2,1 km/h (1 Bft) W 260 0 min 0,000 mm 0,0 UV-I 12 W/m 11,0 C 3,2 km/h (1 Bft)
05.09.2016 19:22 13,9 C 14,0 C 82 % 1021,1 hPa 0,0 mm 1,0 km/h (0 Bft) W 260 0 min 0,000 mm 0,0 UV-I 12 W/m 10,9 C 1,6 km/h (1 Bft)
05.09.2016 19:23 13,9 C 13,9 C 82 % 1021,2 hPa 0,0 mm 2,5 km/h (1 Bft) W 260 0 min 0,000 mm 0,0 UV-I 12 W/m 10,9 C 3,2 km/h (1 Bft)
05.09.2016 19:24 13,9 C 13,9 C 82 % 1021,1 hPa 0,0 mm 2,9 km/h (1 Bft) W-SW 243 0 min 0,000 mm 0,0 UV-I 11 W/m 10,9 C 4,8 km/h (1 Bft)
05.09.2016 19:25 13,9 C 13,9 C 82 % 1021,2 hPa 0,0 mm 4,2 km/h (1 Bft) W-SW 249 0 min 0,000 mm 0,0 UV-I 11 W/m 10,9 C 8,0 km/h (2 Bft)
05.09.2016 19:26 13,9 C 13,9 C 82 % 1021,2 hPa 0,0 mm 8,0 km/h (2 Bft) W-SW 254 0 min 0,000 mm 0,0 UV-I 9 W/m 10,9 C 11,3 km/h (2 Bft)
05.09.2016 19:27 13,9 C 13,9 C 82 % 1021,2 hPa 0,0 mm 4,8 km/h (1 Bft) SW 225 0 min 0,000 mm 0,0 UV-I 9 W/m 10,9 C 8,0 km/h (2 Bft)
05.09.2016 19:28 13,9 C 13,9 C 82 % 1021,2 hPa 0,0 mm 1,4 km/h (1 Bft) SW 224 0 min 0,000 mm 0,0 UV-I 9 W/m 10,9 C 3,2 km/h (1 Bft)
05.09.2016 19:29 13,9 C 13,9 C 82 % 1021,2 hPa 0,0 mm 2,1 km/h (1 Bft) SW 224 0 min 0,000 mm 0,0 UV-I 7 W/m 10,9 C 3,2 km/h (1 Bft)
05.09.2016 19:30 13,9 C 13,9 C 83 % 1021,2 hPa 0,0 mm 4,5 km/h (1 Bft) W 259 0 min 0,000 mm 0,0 UV-I 7 W/m 11,1 C 6,4 km/h (2 Bft)
05.09.2016 19:31 13,9 C 13,9 C 82 % 1021,2 hPa 0,0 mm 3,0 km/h (1 Bft) W-SW 249 0 min 0,000 mm 0,0 UV-I 5 W/m 10,9 C 4,8 km/h (1 Bft)
05.09.2016 19:32 13,9 C 13,9 C 82 % 1021,2 hPa 0,0 mm 2,1 km/h (1 Bft) W-SW 252 0 min 0,000 mm 0,0 UV-I 5 W/m 10,9 C 3,2 km/h (1 Bft)
05.09.2016 19:33 13,9 C 13,9 C 83 % 1021,3 hPa 0,0 mm 0,2 km/h (0 Bft) W-SW 252 0 min 0,000 mm 0,0 UV-I 5 W/m 11,1 C 1,6 km/h (1 Bft)
05.09.2016 19:34 13,9 C 13,9 C 82 % 1021,3 hPa 0,0 mm 0,6 km/h (0 Bft) W 268 0 min 0,000 mm 0,0 UV-I 5 W/m 10,9 C 4,8 km/h (1 Bft)
05.09.2016 19:35 13,9 C 13,9 C 82 % 1021,3 hPa 0,0 mm 2,0 km/h (1 Bft) W 259 0 min 0,000 mm 0,0 UV-I 5 W/m 10,9 C 4,8 km/h (1 Bft)
05.09.2016 19:36 13,8 C 13,9 C 83 % 1021,3 hPa 0,0 mm 3,7 km/h (1 Bft) W-SW 251 0 min 0,000 mm 0,0 UV-I 5 W/m 11,0 C 4,8 km/h (1 Bft)
05.09.2016 19:37 13,8 C 13,8 C 83 % 1021,3 hPa 0,0 mm 2,2 km/h (1 Bft) W-SW 252 0 min 0,000 mm 0,0 UV-I 5 W/m 11,0 C 3,2 km/h (1 Bft)
05.09.2016 19:38 13,8 C 13,8 C 82 % 1021,3 hPa 0,0 mm 0,4 km/h (0 Bft) W-SW 252 0 min 0,000 mm 0,0 UV-I 5 W/m 10,8 C 1,6 km/h (1 Bft)
05.09.2016 19:39 13,8 C 13,8 C 83 % 1021,3 hPa 0,0 mm 0,3 km/h (0 Bft) W-SW 252 0 min 0,000 mm 0,0 UV-I 5 W/m 11,0 C 1,6 km/h (1 Bft)
05.09.2016 19:40 13,8 C 13,8 C 83 % 1021,3 hPa 0,0 mm 1,7 km/h (1 Bft) W-SW 252 0 min 0,000 mm 0,0 UV-I 0 W/m 11,0 C 3,2 km/h (1 Bft)
05.09.2016 19:41 13,8 C 13,8 C 83 % 1021,4 hPa 0,0 mm 1,9 km/h (1 Bft) W 279 0 min 0,000 mm 0,0 UV-I 0 W/m 11,0 C 4,8 km/h (1 Bft)
05.09.2016 19:42 13,8 C 13,8 C 83 % 1021,3 hPa 0,0 mm 4,7 km/h (1 Bft) W 264 0 min 0,000 mm 0,0 UV-I 0 W/m 11,0 C 6,4 km/h (2 Bft)
05.09.2016 19:43 13,8 C 13,8 C 83 % 1021,3 hPa 0,0 mm 1,5 km/h (1 Bft) W 263 0 min 0,000 mm 0,0 UV-I 0 W/m 11,0 C 3,2 km/h (1 Bft)
05.09.2016 19:44 13,8 C 13,8 C 83 % 1021,3 hPa 0,0 mm 1,9 km/h (1 Bft) W 260 0 min 0,000 mm 0,0 UV-I 0 W/m 11,0 C 3,2 km/h (1 Bft)
05.09.2016 19:45 13,8 C 13,8 C 83 % 1021,4 hPa 0,0 mm 1,3 km/h (1 Bft) W 260 0 min 0,000 mm 0,0 UV-I 0 W/m 11,0 C 1,6 km/h (1 Bft)
05.09.2016 19:46 13,8 C 13,8 C 83 % 1021,3 hPa 0,0 mm 2,1 km/h (1 Bft) S-SW 213 0 min 0,000 mm 0,0 UV-I 0 W/m 11,0 C 3,2 km/h (1 Bft)
05.09.2016 19:47 13,7 C 13,8 C 84 % 1021,3 hPa 0,0 mm 2,0 km/h (1 Bft) SW 221 0 min 0,000 mm 0,0 UV-I 0 W/m 11,0 C 3,2 km/h (1 Bft)
05.09.2016 19:48 13,7 C 13,7 C 83 % 1021,4 hPa 0,0 mm 2,5 km/h (1 Bft) W 261 0 min 0,000 mm 0,0 UV-I 0 W/m 10,9 C 6,4 km/h (2 Bft)
05.09.2016 19:49 13,7 C 13,7 C 83 % 1021,4 hPa 0,0 mm 2,1 km/h (1 Bft) W 261 0 min 0,000 mm 0,0 UV-I 0 W/m 10,9 C 3,2 km/h (1 Bft)
05.09.2016 19:50 13,7 C 13,7 C 83 % 1021,4 hPa 0,0 mm 2,4 km/h (1 Bft) S 190 0 min 0,000 mm 0,0 UV-I 0 W/m 10,9 C 4,8 km/h (1 Bft)
05.09.2016 19:51 13,7 C 13,7 C 83 % 1021,4 hPa 0,0 mm 2,6 km/h (1 Bft) S 190 0 min 0,000 mm 0,0 UV-I 0 W/m 10,9 C 3,2 km/h (1 Bft)
05.09.2016 19:52 13,8 C 13,8 C 83 % 1021,4 hPa 0,0 mm 3,2 km/h (1 Bft) S 187 0 min 0,000 mm 0,0 UV-I 0 W/m 11,0 C 4,8 km/h (1 Bft)
05.09.2016 19:53 13,7 C 13,8 C 83 % 1021,4 hPa 0,0 mm 2,4 km/h (1 Bft) S 187 0 min 0,000 mm 0,0 UV-I 0 W/m 10,9 C 4,8 km/h (1 Bft)
05.09.2016 19:54 13,7 C 13,8 C 83 % 1021,4 hPa 0,0 mm 2,2 km/h (1 Bft) S 187 0 min 0,000 mm 0,0 UV-I 0 W/m 10,9 C 3,2 km/h (1 Bft)
05.09.2016 19:55 13,8 C 13,8 C 83 % 1021,4 hPa 0,0 mm 2,6 km/h (1 Bft) S 187 0 min 0,000 mm 0,0 UV-I 0 W/m 11,0 C 4,8 km/h (1 Bft)
05.09.2016 19:56 13,8 C 13,8 C 82 % 1021,4 hPa 0,0 mm 2,0 km/h (1 Bft) S 187 0 min 0,000 mm 0,0 UV-I 0 W/m 10,8 C 4,8 km/h (1 Bft)
05.09.2016 19:57 13,8 C 13,8 C 83 % 1021,5 hPa 0,0 mm 3,3 km/h (1 Bft) S-SW 205 0 min 0,000 mm 0,0 UV-I 0 W/m 11,0 C 4,8 km/h (1 Bft)
05.09.2016 19:58 13,8 C 13,8 C 83 % 1021,4 hPa 0,0 mm 3,0 km/h (1 Bft) S-SW 199 0 min 0,000 mm 0,0 UV-I 0 W/m 11,0 C 6,4 km/h (2 Bft)
05.09.2016 19:59 13,8 C 13,8 C 82 % 1021,5 hPa 0,0 mm 4,2 km/h (1 Bft) S 191 0 min 0,000 mm 0,0 UV-I 0 W/m 10,8 C 4,8 km/h (1 Bft)
05.09.2016 20:00 13,8 C 13,8 C 82 % 1021,5 hPa 0,0 mm 3,9 km/h (1 Bft) SW 227 0 min 0,000 mm 0,0 UV-I 0 W/m 10,8 C 4,8 km/h (1 Bft)
05.09.2016 20:01 13,8 C 13,9 C 83 % 1021,5 hPa 0,0 mm 4,4 km/h (1 Bft) W-SW 245 0 min 0,025 mm 0,0 UV-I 0 W/m 11,0 C 11,3 km/h (2 Bft)
05.09.2016 20:02 13,8 C 13,8 C 83 % 1021,5 hPa 0,0 mm 3,7 km/h (1 Bft) S-SW 213 0 min 0,000 mm 0,0 UV-I 0 W/m 11,0 C 8,0 km/h (2 Bft)
05.09.2016 20:03 13,8 C 13,8 C 82 % 1021,5 hPa 0,0 mm 2,5 km/h (1 Bft) S-SW 209 0 min 0,000 mm 0,0 UV-I 0 W/m 10,8 C 4,8 km/h (1 Bft)
05.09.2016 20:04 13,8 C 13,8 C 83 % 1021,5 hPa 0,0 mm 3,1 km/h (1 Bft) SW 221 0 min 0,000 mm 0,0 UV-I 0 W/m 11,0 C 4,8 km/h (1 Bft)
05.09.2016 20:05 13,8 C 13,8 C 82 % 1021,6 hPa 0,0 mm 2,0 km/h (1 Bft) SW 221 0 min 0,000 mm 0,0 UV-I 0 W/m 10,8 C 3,2 km/h (1 Bft)
05.09.2016 20:06 13,8 C 13,8 C 83 % 1021,6 hPa 0,0 mm 1,8 km/h (1 Bft) SW 227 0 min 0,000 mm 0,0 UV-I 0 W/m 11,0 C 3,2 km/h (1 Bft)
05.09.2016 20:07 13,8 C 13,8 C 83 % 1021,6 hPa 0,0 mm 1,9 km/h (1 Bft) S-SW 196 0 min 0,000 mm 0,0 UV-I 0 W/m 11,0 C 4,8 km/h (1 Bft)
05.09.2016 20:08 13,8 C 13,8 C 83 % 1021,7 hPa 0,0 mm 2,6 km/h (1 Bft) W-SW 237 0 min 0,000 mm 0,0 UV-I 0 W/m 11,0 C 4,8 km/h (1 Bft)
05.09.2016 20:09 13,8 C 13,8 C 83 % 1021,6 hPa 0,0 mm 2,7 km/h (1 Bft) S-SW 211 0 min 0,000 mm 0,0 UV-I 0 W/m 11,0 C 4,8 km/h (1 Bft)
05.09.2016 20:10 13,8 C 13,8 C 83 % 1021,6 hPa 0,0 mm 3,2 km/h (1 Bft) W-SW 257 0 min 0,000 mm 0,0 UV-I 0 W/m 11,0 C 4,8 km/h (1 Bft)
05.09.2016 20:11 13,8 C 13,8 C 83 % 1021,7 hPa 0,0 mm 2,5 km/h (1 Bft) W-SW 249 0 min 0,000 mm 0,0 UV-I 0 W/m 11,0 C 4,8 km/h (1 Bft)
05.09.2016 20:12 13,8 C 13,8 C 83 % 1021,6 hPa 0,0 mm 2,0 km/h (1 Bft) SW 223 0 min 0,000 mm 0,0 UV-I 0 W/m 11,0 C 3,2 km/h (1 Bft)
05.09.2016 20:13 13,8 C 13,8 C 83 % 1021,7 hPa 0,0 mm 2,6 km/h (1 Bft) SW 214 0 min 0,000 mm 0,0 UV-I 0 W/m 11,0 C 6,4 km/h (2 Bft)
05.09.2016 20:14 13,8 C 13,8 C 83 % 1021,7 hPa 0,0 mm 1,8 km/h (1 Bft) W-SW 238 0 min 0,000 mm 0,0 UV-I 0 W/m 11,0 C 6,4 km/h (2 Bft)
05.09.2016 20:15 13,8 C 13,8 C 83 % 1021,7 hPa 0,0 mm 5,4 km/h (1 Bft) W-SW 252 0 min 0,000 mm 0,0 UV-I 0 W/m 11,0 C 6,4 km/h (2 Bft)
05.09.2016 20:16 13,8 C 13,8 C 83 % 1021,8 hPa 0,0 mm 1,3 km/h (1 Bft) W-SW 252 0 min 0,000 mm 0,0 UV-I 0 W/m 11,0 C 3,2 km/h (1 Bft)
05.09.2016 20:17 13,8 C 13,8 C 83 % 1021,9 hPa 0,0 mm 2,9 km/h (1 Bft) W-SW 246 0 min 0,000 mm 0,0 UV-I 0 W/m 11,0 C 6,4 km/h (2 Bft)
05.09.2016 20:18 13,8 C 13,8 C 83 % 1021,8 hPa 0,0 mm 3,4 km/h (1 Bft) W-SW 252 0 min 0,000 mm 0,0 UV-I 0 W/m 11,0 C 4,8 km/h (1 Bft)
05.09.2016 20:19 13,7 C 13,8 C 83 % 1021,9 hPa 0,0 mm 0,8 km/h (0 Bft) W-SW 244 0 min 0,000 mm 0,0 UV-I 0 W/m 10,9 C 3,2 km/h (1 Bft)
05.09.2016 20:20 13,7 C 13,8 C 83 % 1021,9 hPa 0,0 mm 4,5 km/h (1 Bft) W-SW 254 0 min 0,000 mm 0,0 UV-I 0 W/m 10,9 C 9,7 km/h (2 Bft)
05.09.2016 20:21 13,7 C 13,7 C 83 % 1021,9 hPa 0,0 mm 3,4 km/h (1 Bft) W-SW 256 0 min 0,000 mm 0,0 UV-I 0 W/m 10,9 C 9,7 km/h (2 Bft)
05.09.2016 20:22 13,7 C 13,7 C 83 % 1021,9 hPa 0,0 mm 3,2 km/h (1 Bft) W-SW 246 0 min 0,000 mm 0,0 UV-I 0 W/m 10,9 C 4,8 km/h (1 Bft)
05.09.2016 20:23 13,7 C 13,7 C 84 % 1022,0 hPa 0,0 mm 3,6 km/h (1 Bft) W-SW 247 0 min 0,000 mm 0,0 UV-I 0 W/m 11,0 C 6,4 km/h (2 Bft)
05.09.2016 20:24 13,7 C 13,7 C 83 % 1021,9 hPa 0,0 mm 2,5 km/h (1 Bft) W-SW 248 0 min 0,000 mm 0,0 UV-I 0 W/m 10,9 C 3,2 km/h (1 Bft)
05.09.2016 20:25 13,7 C 13,7 C 84 % 1022,0 hPa 0,0 mm 4,8 km/h (1 Bft) W-SW 257 0 min 0,000 mm 0,0 UV-I 0 W/m 11,0 C 9,7 km/h (2 Bft)
05.09.2016 20:26 13,7 C 13,7 C 84 % 1022,0 hPa 0,0 mm 3,4 km/h (1 Bft) W 275 0 min 0,000 mm 0,0 UV-I 0 W/m 11,0 C 6,4 km/h (2 Bft)
05.09.2016 20:27 13,6 C 13,7 C 84 % 1021,9 hPa 0,0 mm 5,4 km/h (1 Bft) W-NW 288 0 min 0,000 mm 0,0 UV-I 0 W/m 10,9 C 8,0 km/h (2 Bft)
05.09.2016 20:28 13,6 C 13,7 C 84 % 1021,9 hPa 0,0 mm 4,0 km/h (1 Bft) S-SW 213 0 min 0,000 mm 0,0 UV-I 0 W/m 10,9 C 6,4 km/h (2 Bft)
05.09.2016 20:29 13,7 C 13,7 C 84 % 1022,0 hPa 0,0 mm 7,6 km/h (2 Bft) W 270 0 min 0,000 mm 0,0 UV-I 0 W/m 11,0 C 11,3 km/h (2 Bft)
05.09.2016 20:30 13,7 C 13,7 C 84 % 1021,9 hPa 0,0 mm 6,7 km/h (2 Bft) W-SW 238 0 min 0,000 mm 0,0 UV-I 0 W/m 11,0 C 11,3 km/h (2 Bft)
05.09.2016 20:31 13,6 C 13,7 C 84 % 1022,0 hPa 0,0 mm 4,2 km/h (1 Bft) W 259 0 min 0,000 mm 0,0 UV-I 0 W/m 10,9 C 9,7 km/h (2 Bft)
05.09.2016 20:32 13,6 C 13,7 C 84 % 1022,0 hPa 0,0 mm 5,3 km/h (1 Bft) W-SW 239 0 min 0,000 mm 0,0 UV-I 0 W/m 10,9 C 9,7 km/h (2 Bft)
05.09.2016 20:33 13,7 C 13,7 C 83 % 1022,0 hPa 0,0 mm 3,0 km/h (1 Bft) SW 236 0 min 0,000 mm 0,0 UV-I 0 W/m 10,9 C 4,8 km/h (1 Bft)
05.09.2016 20:34 13,7 C 13,7 C 84 % 1022,0 hPa 0,0 mm 3,8 km/h (1 Bft) W-SW 247 0 min 0,000 mm 0,0 UV-I 0 W/m 11,0 C 4,8 km/h (1 Bft)
05.09.2016 20:35 13,7 C 13,7 C 84 % 1022,1 hPa 0,0 mm 5,2 km/h (1 Bft) W-SW 252 0 min 0,000 mm 0,0 UV-I 0 W/m 11,0 C 14,5 km/h (3 Bft)
05.09.2016 20:36 13,6 C 13,7 C 84 % 1022,1 hPa 0,0 mm 10,7 km/h (2 Bft) W-SW 256 0 min 0,000 mm 0,0 UV-I 0 W/m 10,9 C 12,9 km/h (3 Bft)
05.09.2016 20:37 13,6 C 13,6 C 84 % 1022,1 hPa 0,0 mm 4,4 km/h (1 Bft) W-SW 250 0 min 0,000 mm 0,0 UV-I 0 W/m 10,9 C 6,4 km/h (2 Bft)
05.09.2016 20:38 13,6 C 13,6 C 84 % 1022,1 hPa 0,0 mm 3,2 km/h (1 Bft) W-SW 250 0 min 0,000 mm 0,0 UV-I 0 W/m 10,9 C 4,8 km/h (1 Bft)
05.09.2016 20:39 13,6 C 13,6 C 84 % 1022,2 hPa 0,0 mm 4,6 km/h (1 Bft) W-SW 238 0 min 0,000 mm 0,0 UV-I 0 W/m 10,9 C 8,0 km/h (2 Bft)
05.09.2016 20:40 13,6 C 13,6 C 84 % 1022,2 hPa 0,0 mm 4,5 km/h (1 Bft) W-SW 250 0 min 0,000 mm 0,0 UV-I 0 W/m 10,9 C 6,4 km/h (2 Bft)
05.09.2016 20:41 13,6 C 13,6 C 84 % 1022,2 hPa 0,0 mm 4,4 km/h (1 Bft) W-SW 246 0 min 0,000 mm 0,0 UV-I 0 W/m 10,9 C 6,4 km/h (2 Bft)
05.09.2016 20:42 13,6 C 13,6 C 85 % 1022,3 hPa 0,0 mm 9,8 km/h (2 Bft) SW 236 0 min 0,000 mm 0,0 UV-I 0 W/m 11,1 C 12,9 km/h (3 Bft)
05.09.2016 20:43 13,5 C 13,6 C 85 % 1022,2 hPa 0,0 mm 5,5 km/h (1 Bft) SW 232 0 min 0,000 mm 0,0 UV-I 0 W/m 11,0 C 8,0 km/h (2 Bft)
05.09.2016 20:44 13,5 C 13,5 C 84 % 1022,2 hPa 0,0 mm 5,2 km/h (1 Bft) W-SW 239 0 min 0,000 mm 0,0 UV-I 0 W/m 10,8 C 8,0 km/h (2 Bft)
05.09.2016 20:45 13,5 C 13,5 C 85 % 1022,3 hPa 0,0 mm 3,6 km/h (1 Bft) W-SW 257 0 min 0,000 mm 0,0 UV-I 0 W/m 11,0 C 4,8 km/h (1 Bft)
05.09.2016 20:46 13,4 C 13,5 C 84 % 1022,2 hPa 0,0 mm 1,7 km/h (1 Bft) W 259 0 min 0,000 mm 0,0 UV-I 0 W/m 10,8 C 4,8 km/h (1 Bft)
05.09.2016 20:47 13,5 C 13,5 C 85 % 1022,3 hPa 0,0 mm 2,4 km/h (1 Bft) W-SW 257 0 min 0,000 mm 0,0 UV-I 0 W/m 11,0 C 4,8 km/h (1 Bft)
05.09.2016 20:48 13,5 C 13,5 C 84 % 1022,3 hPa 0,0 mm 2,0 km/h (1 Bft) SW 221 0 min 0,000 mm 0,0 UV-I 0 W/m 10,8 C 3,2 km/h (1 Bft)
05.09.2016 20:49 13,5 C 13,5 C 84 % 1022,3 hPa 0,0 mm 3,6 km/h (1 Bft) SW 231 0 min 0,000 mm 0,0 UV-I 0 W/m 10,8 C 4,8 km/h (1 Bft)
05.09.2016 20:50 13,5 C 13,6 C 84 % 1022,4 hPa 0,0 mm 2,3 km/h (1 Bft) W-SW 251 0 min 0,000 mm 0,0 UV-I 0 W/m 10,8 C 3,2 km/h (1 Bft)
05.09.2016 20:51 13,5 C 13,5 C 84 % 1022,4 hPa 0,0 mm 2,7 km/h (1 Bft) W-SW 242 0 min 0,000 mm 0,0 UV-I 0 W/m 10,8 C 4,8 km/h (1 Bft)
05.09.2016 20:52 13,5 C 13,5 C 84 % 1022,4 hPa 0,0 mm 3,8 km/h (1 Bft) W 265 0 min 0,000 mm 0,0 UV-I 0 W/m 10,8 C 6,4 km/h (2 Bft)
05.09.2016 20:53 13,5 C 13,5 C 84 % 1022,4 hPa 0,0 mm 3,9 km/h (1 Bft) W 269 0 min 0,000 mm 0,0 UV-I 0 W/m 10,8 C 6,4 km/h (2 Bft)
05.09.2016 20:54 13,5 C 13,5 C 84 % 1022,4 hPa 0,0 mm 1,6 km/h (1 Bft) SW 225 0 min 0,000 mm 0,0 UV-I 0 W/m 10,8 C 3,2 km/h (1 Bft)
05.09.2016 20:55 13,6 C 13,6 C 84 % 1022,4 hPa 0,0 mm 3,2 km/h (1 Bft) W 270 0 min 0,000 mm 0,0 UV-I 0 W/m 10,9 C 6,4 km/h (2 Bft)
05.09.2016 20:56 13,5 C 13,6 C 84 % 1022,4 hPa 0,0 mm 1,6 km/h (1 Bft) W-SW 247 0 min 0,000 mm 0,0 UV-I 0 W/m 10,8 C 4,8 km/h (1 Bft)
05.09.2016 20:57 13,6 C 13,6 C 84 % 1024,6 hPa 0,0 mm 3,2 km/h (1 Bft) W-SW 247 0 min 0,000 mm 0,0 UV-I 0 W/m 10,9 C 6,4 km/h (2 Bft)
05.09.2016 20:58 13,6 C 13,6 C 84 % 1024,6 hPa 0,0 mm 3,2 km/h (1 Bft) W-SW 247 0 min 0,000 mm 0,0 UV-I 0 W/m 10,9 C 6,4 km/h (2 Bft)
05.09.2016 20:59 13,6 C 13,6 C 84 % 1022,2 hPa 0,0 mm 3,2 km/h (1 Bft) SW 225 0 min 0,000 mm 0,0 UV-I 0 W/m 10,9 C 6,4 km/h (2 Bft)
05.09.2016 21:01 13,6 C 13,6 C 83 % 1022,2 hPa 0,0 mm 3,7 km/h (1 Bft) W-SW 244 0 min 0,000 mm 0,0 UV-I 0 W/m 10,8 C 4,8 km/h (1 Bft)
05.09.2016 21:02 13,6 C 13,6 C 83 % 1022,2 hPa 0,0 mm 1,9 km/h (1 Bft) W-SW 243 0 min 0,000 mm 0,0 UV-I 0 W/m 10,8 C 3,2 km/h (1 Bft)
05.09.2016 21:03 13,6 C 13,6 C 83 % 1022,2 hPa 0,0 mm 1,9 km/h (1 Bft) W-SW 242 0 min 0,000 mm 0,0 UV-I 0 W/m 10,8 C 3,2 km/h (1 Bft)
05.09.2016 21:04 13,6 C 13,6 C 83 % 1022,3 hPa 0,0 mm 2,7 km/h (1 Bft) S-SW 205 0 min 0,000 mm 0,0 UV-I 0 W/m 10,8 C 4,8 km/h (1 Bft)
05.09.2016 21:05 13,6 C 13,6 C 83 % 1022,2 hPa 0,0 mm 3,5 km/h (1 Bft) S-SW 203 0 min 0,000 mm 0,0 UV-I 0 W/m 10,8 C 6,4 km/h (2 Bft)
05.09.2016 21:06 13,6 C 13,6 C 83 % 1022,2 hPa 0,0 mm 3,8 km/h (1 Bft) SW 234 0 min 0,000 mm 0,0 UV-I 0 W/m 10,8 C 4,8 km/h (1 Bft)
05.09.2016 21:07 13,6 C 13,6 C 83 % 1022,2 hPa 0,0 mm 3,0 km/h (1 Bft) S-SW 194 0 min 0,000 mm 0,0 UV-I 0 W/m 10,8 C 4,8 km/h (1 Bft)
05.09.2016 21:08 13,6 C 13,6 C 83 % 1022,2 hPa 0,0 mm 1,2 km/h (1 Bft) S-SW 194 0 min 0,000 mm 0,0 UV-I 0 W/m 10,8 C 3,2 km/h (1 Bft)
05.09.2016 21:09 13,7 C 13,7 C 83 % 1022,2 hPa 0,0 mm 3,5 km/h (1 Bft) S-SW 197 0 min 0,000 mm 0,0 UV-I 0 W/m 10,9 C 4,8 km/h (1 Bft)
05.09.2016 21:10 13,7 C 13,7 C 82 % 1022,2 hPa 0,0 mm 3,0 km/h (1 Bft) S-SW 196 0 min 0,000 mm 0,0 UV-I 0 W/m 10,7 C 4,8 km/h (1 Bft)
05.09.2016 21:11 13,7 C 13,7 C 82 % 1022,2 hPa 0,0 mm 2,4 km/h (1 Bft) S-SW 193 0 min 0,000 mm 0,0 UV-I 0 W/m 10,7 C 3,2 km/h (1 Bft)
05.09.2016 21:12 13,7 C 13,7 C 82 % 1022,3 hPa 0,0 mm 2,1 km/h (1 Bft) S-SW 198 0 min 0,000 mm 0,0 UV-I 0 W/m 10,7 C 4,8 km/h (1 Bft)
05.09.2016 21:13 13,7 C 13,7 C 82 % 1022,2 hPa 0,0 mm 2,4 km/h (1 Bft) S-SW 204 0 min 0,000 mm 0,0 UV-I 0 W/m 10,7 C 4,8 km/h (1 Bft)
05.09.2016 21:14 13,7 C 13,7 C 82 % 1022,3 hPa 0,0 mm 3,2 km/h (1 Bft) SW 236 0 min 0,000 mm 0,0 UV-I 0 W/m 10,7 C 4,8 km/h (1 Bft)
05.09.2016 21:15 13,7 C 13,7 C 82 % 1022,3 hPa 0,0 mm 4,2 km/h (1 Bft) W-SW 258 0 min 0,000 mm 0,0 UV-I 0 W/m 10,7 C 12,9 km/h (3 Bft)
05.09.2016 21:16 13,7 C 13,7 C 82 % 1022,2 hPa 0,0 mm 5,5 km/h (1 Bft) SW 227 0 min 0,000 mm 0,0 UV-I 0 W/m 10,7 C 8,0 km/h (2 Bft)
05.09.2016 21:17 13,7 C 13,7 C 82 % 1022,3 hPa 0,0 mm 3,2 km/h (1 Bft) S-SW 195 0 min 0,000 mm 0,0 UV-I 0 W/m 10,7 C 4,8 km/h (1 Bft)
05.09.2016 21:18 13,7 C 13,7 C 82 % 1022,3 hPa 0,0 mm 1,7 km/h (1 Bft) S-SW 198 0 min 0,000 mm 0,0 UV-I 0 W/m 10,7 C 3,2 km/h (1 Bft)
05.09.2016 21:19 13,7 C 13,7 C 82 % 1022,3 hPa 0,0 mm 3,0 km/h (1 Bft) SW 236 0 min 0,000 mm 0,0 UV-I 0 W/m 10,7 C 4,8 km/h (1 Bft)
05.09.2016 21:20 13,7 C 13,7 C 82 % 1022,3 hPa 0,0 mm 4,4 km/h (1 Bft) W-SW 248 0 min 0,000 mm 0,0 UV-I 0 W/m 10,7 C 6,4 km/h (2 Bft)
05.09.2016 21:21 13,7 C 13,7 C 82 % 1022,3 hPa 0,0 mm 4,7 km/h (1 Bft) S-SW 213 0 min 0,000 mm 0,0 UV-I 0 W/m 10,7 C 9,7 km/h (2 Bft)
05.09.2016 21:22 13,7 C 13,7 C 82 % 1022,3 hPa 0,0 mm 3,5 km/h (1 Bft) SW 235 0 min 0,000 mm 0,0 UV-I 0 W/m 10,7 C 4,8 km/h (1 Bft)
05.09.2016 21:23 13,7 C 13,7 C 82 % 1022,3 hPa 0,0 mm 5,7 km/h (1 Bft) W-SW 238 0 min 0,000 mm 0,0 UV-I 0 W/m 10,7 C 11,3 km/h (2 Bft)
05.09.2016 21:24 13,7 C 13,7 C 82 % 1022,3 hPa 0,0 mm 1,9 km/h (1 Bft) W-SW 238 0 min 0,000 mm 0,0 UV-I 0 W/m 10,7 C 3,2 km/h (1 Bft)
05.09.2016 21:25 13,7 C 13,7 C 82 % 1022,3 hPa 0,0 mm 1,9 km/h (1 Bft) S-SW 200 0 min 0,000 mm 0,0 UV-I 0 W/m 10,7 C 4,8 km/h (1 Bft)
05.09.2016 21:26 13,7 C 13,7 C 82 % 1022,3 hPa 0,0 mm 5,8 km/h (2 Bft) W-SW 248 0 min 0,000 mm 0,0 UV-I 0 W/m 10,7 C 9,7 km/h (2 Bft)
05.09.2016 21:27 13,7 C 13,7 C 82 % 1022,3 hPa 0,0 mm 3,7 km/h (1 Bft) W-SW 252 0 min 0,000 mm 0,0 UV-I 0 W/m 10,7 C 6,4 km/h (2 Bft)
05.09.2016 21:28 13,7 C 13,7 C 82 % 1022,3 hPa 0,0 mm 3,9 km/h (1 Bft) S-SW 201 0 min 0,000 mm 0,0 UV-I 0 W/m 10,7 C 8,0 km/h (2 Bft)
05.09.2016 21:29 13,7 C 13,7 C 82 % 1022,3 hPa 0,0 mm 1,7 km/h (1 Bft) SW 224 0 min 0,000 mm 0,0 UV-I 0 W/m 10,7 C 3,2 km/h (1 Bft)
05.09.2016 21:30 13,7 C 13,7 C 83 % 1022,3 hPa 0,0 mm 2,7 km/h (1 Bft) S 188 0 min 0,000 mm 0,0 UV-I 0 W/m 10,9 C 4,8 km/h (1 Bft)
05.09.2016 21:31 13,6 C 13,7 C 82 % 1022,2 hPa 0,0 mm 1,8 km/h (1 Bft) W-SW 251 0 min 0,000 mm 0,0 UV-I 0 W/m 10,6 C 3,2 km/h (1 Bft)
05.09.2016 21:32 13,7 C 13,7 C 82 % 1022,4 hPa 0,0 mm 4,9 km/h (1 Bft) W-SW 243 0 min 0,000 mm 0,0 UV-I 0 W/m 10,7 C 11,3 km/h (2 Bft)
05.09.2016 21:33 13,7 C 13,7 C 82 % 1022,3 hPa 0,0 mm 3,6 km/h (1 Bft) SW 217 0 min 0,000 mm 0,0 UV-I 0 W/m 10,7 C 4,8 km/h (1 Bft)
05.09.2016 21:34 13,7 C 13,7 C 82 % 1022,3 hPa 0,0 mm 3,9 km/h (1 Bft) S-SW 211 0 min 0,000 mm 0,0 UV-I 0 W/m 10,7 C 6,4 km/h (2 Bft)
05.09.2016 21:35 13,7 C 13,7 C 82 % 1022,2 hPa 0,0 mm 3,2 km/h (1 Bft) S-SW 196 0 min 0,000 mm 0,0 UV-I 0 W/m 10,7 C 6,4 km/h (2 Bft)
05.09.2016 21:36 13,7 C 13,7 C 82 % 1022,2 hPa 0,0 mm 2,9 km/h (1 Bft) W-SW 245 0 min 0,000 mm 0,0 UV-I 0 W/m 10,7 C 4,8 km/h (1 Bft)
05.09.2016 21:37 13,7 C 13,7 C 82 % 1022,3 hPa 0,0 mm 2,6 km/h (1 Bft) W-SW 254 0 min 0,000 mm 0,0 UV-I 0 W/m 10,7 C 4,8 km/h (1 Bft)
05.09.2016 21:38 13,7 C 13,7 C 81 % 1022,3 hPa 0,0 mm 0,7 km/h (0 Bft) W-SW 254 0 min 0,000 mm 0,0 UV-I 0 W/m 10,5 C 1,6 km/h (1 Bft)
05.09.2016 21:39 13,7 C 13,7 C 81 % 1022,3 hPa 0,0 mm 1,7 km/h (1 Bft) W-SW 254 0 min 0,000 mm 0,0 UV-I 0 W/m 10,5 C 3,2 km/h (1 Bft)
05.09.2016 21:40 13,7 C 13,7 C 82 % 1022,3 hPa 0,0 mm 3,5 km/h (1 Bft) W-SW 255 0 min 0,000 mm 0,0 UV-I 0 W/m 10,7 C 4,8 km/h (1 Bft)
05.09.2016 21:41 13,7 C 13,7 C 82 % 1022,3 hPa 0,0 mm 1,7 km/h (1 Bft) W-SW 255 0 min 0,000 mm 0,0 UV-I 0 W/m 10,7 C 4,8 km/h (1 Bft)
05.09.2016 21:42 13,7 C 13,7 C 82 % 1022,4 hPa 0,0 mm 4,4 km/h (1 Bft) W-SW 254 0 min 0,000 mm 0,0 UV-I 0 W/m 10,7 C 6,4 km/h (2 Bft)
05.09.2016 21:43 13,6 C 13,7 C 82 % 1022,4 hPa 0,0 mm 2,8 km/h (1 Bft) W 267 0 min 0,000 mm 0,0 UV-I 0 W/m 10,6 C 4,8 km/h (1 Bft)
05.09.2016 21:44 13,6 C 13,6 C 82 % 1022,4 hPa 0,0 mm 1,8 km/h (1 Bft) W-SW 245 0 min 0,000 mm 0,0 UV-I 0 W/m 10,6 C 3,2 km/h (1 Bft)
05.09.2016 21:45 13,6 C 13,6 C 82 % 1022,4 hPa 0,0 mm 4,0 km/h (1 Bft) W 272 0 min 0,000 mm 0,0 UV-I 0 W/m 10,6 C 6,4 km/h (2 Bft)
05.09.2016 21:46 13,6 C 13,6 C 83 % 1022,4 hPa 0,0 mm 2,3 km/h (1 Bft) W 272 0 min 0,000 mm 0,0 UV-I 0 W/m 10,8 C 3,2 km/h (1 Bft)
05.09.2016 21:47 13,5 C 13,6 C 83 % 1022,4 hPa 0,0 mm 1,9 km/h (1 Bft) W 272 0 min 0,000 mm 0,0 UV-I 0 W/m 10,7 C 3,2 km/h (1 Bft)
05.09.2016 21:48 13,4 C 13,5 C 83 % 1022,4 hPa 0,0 mm 3,1 km/h (1 Bft) S-SW 211 0 min 0,000 mm 0,0 UV-I 0 W/m 10,6 C 4,8 km/h (1 Bft)
05.09.2016 21:49 13,4 C 13,4 C 82 % 1022,5 hPa 0,0 mm 1,0 km/h (0 Bft) S-SW 211 0 min 0,000 mm 0,0 UV-I 0 W/m 10,4 C 3,2 km/h (1 Bft)
05.09.2016 21:50 13,4 C 13,4 C 82 % 1022,5 hPa 0,0 mm 1,3 km/h (1 Bft) S-SW 211 0 min 0,000 mm 0,0 UV-I 0 W/m 10,4 C 3,2 km/h (1 Bft)
05.09.2016 21:51 13,4 C 13,4 C 82 % 1022,4 hPa 0,0 mm 1,3 km/h (1 Bft) S-SW 211 0 min 0,000 mm 0,0 UV-I 0 W/m 10,4 C 3,2 km/h (1 Bft)
05.09.2016 21:52 13,5 C 13,5 C 82 % 1022,4 hPa 0,0 mm 1,4 km/h (1 Bft) S-SW 211 0 min 0,000 mm 0,0 UV-I 0 W/m 10,5 C 3,2 km/h (1 Bft)
05.09.2016 21:53 13,5 C 13,5 C 82 % 1022,4 hPa 0,0 mm 0,6 km/h (0 Bft) S-SW 211 0 min 0,000 mm 0,0 UV-I 0 W/m 10,5 C 1,6 km/h (1 Bft)
05.09.2016 21:54 13,4 C 13,5 C 83 % 1022,4 hPa 0,0 mm 2,2 km/h (1 Bft) SW 232 0 min 0,000 mm 0,0 UV-I 0 W/m 10,6 C 3,2 km/h (1 Bft)
05.09.2016 21:55 13,4 C 13,4 C 82 % 1022,4 hPa 0,0 mm 1,2 km/h (1 Bft) SW 232 0 min 0,000 mm 0,0 UV-I 0 W/m 10,4 C 3,2 km/h (1 Bft)
05.09.2016 21:56 13,4 C 13,4 C 82 % 1022,4 hPa 0,0 mm 1,8 km/h (1 Bft) S 182 0 min 0,000 mm 0,0 UV-I 0 W/m 10,4 C 4,8 km/h (1 Bft)
05.09.2016 21:57 13,4 C 13,4 C 82 % 1022,4 hPa 0,0 mm 2,3 km/h (1 Bft) W-SW 240 0 min 0,000 mm 0,0 UV-I 0 W/m 10,4 C 4,8 km/h (1 Bft)
05.09.2016 21:58 13,5 C 13,5 C 82 % 1022,4 hPa 0,0 mm 1,7 km/h (1 Bft) W-SW 240 0 min 0,000 mm 0,0 UV-I 0 W/m 10,5 C 3,2 km/h (1 Bft)
05.09.2016 21:59 13,5 C 13,5 C 82 % 1022,4 hPa 0,0 mm 1,1 km/h (1 Bft) W-SW 240 0 min 0,000 mm 0,0 UV-I 0 W/m 10,5 C 1,6 km/h (1 Bft)
05.09.2016 22:00 13,5 C 13,5 C 82 % 1022,4 hPa 0,0 mm 1,6 km/h (1 Bft) W-SW 238 0 min 0,000 mm 0,0 UV-I 0 W/m 10,5 C 3,2 km/h (1 Bft)
05.09.2016 22:01 13,5 C 13,6 C 82 % 1022,3 hPa 0,0 mm 0,6 km/h (0 Bft) W-SW 238 0 min 0,025 mm 0,0 UV-I 0 W/m 10,5 C 1,6 km/h (1 Bft)
05.09.2016 22:02 13,5 C 13,5 C 82 % 1022,4 hPa 0,0 mm 1,3 km/h (1 Bft) W-SW 238 0 min 0,001 mm 0,0 UV-I 0 W/m 10,5 C 1,6 km/h (1 Bft)
05.09.2016 22:03 13,5 C 13,5 C 82 % 1022,4 hPa 0,0 mm 2,6 km/h (1 Bft) W-SW 238 0 min 0,000 mm 0,0 UV-I 0 W/m 10,5 C 4,8 km/h (1 Bft)
05.09.2016 22:04 13,5 C 13,6 C 82 % 1022,4 hPa 0,0 mm 1,7 km/h (1 Bft) SW 229 0 min 0,000 mm 0,0 UV-I 0 W/m 10,5 C 4,8 km/h (1 Bft)
05.09.2016 22:05 13,5 C 13,5 C 82 % 1022,4 hPa 0,0 mm 2,4 km/h (1 Bft) SW 232 0 min 0,000 mm 0,0 UV-I 0 W/m 10,5 C 4,8 km/h (1 Bft)
05.09.2016 22:06 13,5 C 13,5 C 82 % 1022,4 hPa 0,0 mm 2,6 km/h (1 Bft) SW 214 0 min 0,000 mm 0,0 UV-I 0 W/m 10,5 C 4,8 km/h (1 Bft)
05.09.2016 22:07 13,6 C 13,6 C 82 % 1022,4 hPa 0,0 mm 3,5 km/h (1 Bft) W-SW 252 0 min 0,000 mm 0,0 UV-I 0 W/m 10,6 C 4,8 km/h (1 Bft)
05.09.2016 22:08 13,6 C 13,6 C 81 % 1022,4 hPa 0,0 mm 2,8 km/h (1 Bft) SW 223 0 min 0,000 mm 0,0 UV-I 0 W/m 10,4 C 6,4 km/h (2 Bft)
05.09.2016 22:09 13,6 C 13,6 C 81 % 1022,4 hPa 0,0 mm 1,9 km/h (1 Bft) SW 223 0 min 0,000 mm 0,0 UV-I 0 W/m 10,4 C 3,2 km/h (1 Bft)
05.09.2016 22:10 13,6 C 13,6 C 81 % 1022,4 hPa 0,0 mm 1,1 km/h (1 Bft) S-SW 200 0 min 0,000 mm 0,0 UV-I 0 W/m 10,4 C 3,2 km/h (1 Bft)
05.09.2016 22:11 13,6 C 13,6 C 81 % 1022,4 hPa 0,0 mm 3,8 km/h (1 Bft) S 190 0 min 0,000 mm 0,0 UV-I 0 W/m 10,4 C 6,4 km/h (2 Bft)
05.09.2016 22:12 13,7 C 13,7 C 81 % 1022,4 hPa 0,0 mm 4,0 km/h (1 Bft) S-SW 207 0 min 0,000 mm 0,0 UV-I 0 W/m 10,5 C 6,4 km/h (2 Bft)
05.09.2016 22:13 13,7 C 13,7 C 81 % 1022,4 hPa 0,0 mm 4,1 km/h (1 Bft) SW 231 0 min 0,000 mm 0,0 UV-I 0 W/m 10,5 C 4,8 km/h (1 Bft)
05.09.2016 22:14 13,7 C 13,7 C 81 % 1022,4 hPa 0,0 mm 2,7 km/h (1 Bft) S-SW 210 0 min 0,000 mm 0,0 UV-I 0 W/m 10,5 C 4,8 km/h (1 Bft)
05.09.2016 22:15 13,7 C 13,7 C 81 % 1022,4 hPa 0,0 mm 5,2 km/h (1 Bft) S-SW 204 0 min 0,000 mm 0,0 UV-I 0 W/m 10,5 C 9,7 km/h (2 Bft)
05.09.2016 22:16 13,7 C 13,7 C 81 % 1022,4 hPa 0,0 mm 4,4 km/h (1 Bft) S-SW 205 0 min 0,000 mm 0,0 UV-I 0 W/m 10,5 C 6,4 km/h (2 Bft)
05.09.2016 22:17 13,7 C 13,7 C 81 % 1022,4 hPa 0,0 mm 5,6 km/h (1 Bft) S-SW 198 0 min 0,000 mm 0,0 UV-I 0 W/m 10,5 C 9,7 km/h (2 Bft)
05.09.2016 22:18 13,7 C 13,7 C 81 % 1022,4 hPa 0,0 mm 3,4 km/h (1 Bft) W-SW 248 0 min 0,000 mm 0,0 UV-I 0 W/m 10,5 C 6,4 km/h (2 Bft)
05.09.2016 22:19 13,7 C 13,7 C 81 % 1022,5 hPa 0,0 mm 2,7 km/h (1 Bft) S 172 0 min 0,000 mm 0,0 UV-I 0 W/m 10,5 C 4,8 km/h (1 Bft)
05.09.2016 22:20 13,7 C 13,7 C 81 % 1022,5 hPa 0,0 mm 3,4 km/h (1 Bft) W 274 0 min 0,000 mm 0,0 UV-I 0 W/m 10,5 C 4,8 km/h (1 Bft)
05.09.2016 22:21 13,7 C 13,7 C 80 % 1022,5 hPa 0,0 mm 4,6 km/h (1 Bft) SW 227 0 min 0,000 mm 0,0 UV-I 0 W/m 10,3 C 11,3 km/h (2 Bft)
05.09.2016 22:22 13,7 C 13,7 C 80 % 1022,5 hPa 0,0 mm 5,2 km/h (1 Bft) W-SW 247 0 min 0,000 mm 0,0 UV-I 0 W/m 10,3 C 9,7 km/h (2 Bft)
05.09.2016 22:23 13,7 C 13,7 C 81 % 1022,5 hPa 0,0 mm 5,5 km/h (1 Bft) S-SW 207 0 min 0,000 mm 0,0 UV-I 0 W/m 10,5 C 8,0 km/h (2 Bft)
05.09.2016 22:24 13,8 C 13,8 C 80 % 1022,5 hPa 0,0 mm 1,3 km/h (1 Bft) S-SW 207 0 min 0,000 mm 0,0 UV-I 0 W/m 10,4 C 4,8 km/h (1 Bft)
05.09.2016 22:25 13,8 C 13,8 C 80 % 1022,5 hPa 0,0 mm 3,6 km/h (1 Bft) W-SW 256 0 min 0,000 mm 0,0 UV-I 0 W/m 10,4 C 6,4 km/h (2 Bft)
05.09.2016 22:26 13,7 C 13,8 C 80 % 1022,5 hPa 0,0 mm 5,5 km/h (1 Bft) W-SW 246 0 min 0,000 mm 0,0 UV-I 0 W/m 10,3 C 9,7 km/h (2 Bft)
05.09.2016 22:27 13,7 C 13,8 C 80 % 1022,5 hPa 0,0 mm 3,5 km/h (1 Bft) W-SW 252 0 min 0,000 mm 0,0 UV-I 0 W/m 10,3 C 4,8 km/h (1 Bft)
05.09.2016 22:28 13,8 C 13,8 C 80 % 1022,6 hPa 0,0 mm 4,3 km/h (1 Bft) W-SW 252 0 min 0,000 mm 0,0 UV-I 0 W/m 10,4 C 4,8 km/h (1 Bft)
05.09.2016 22:29 13,8 C 13,8 C 80 % 1022,6 hPa 0,0 mm 4,0 km/h (1 Bft) W-SW 254 0 min 0,000 mm 0,0 UV-I 0 W/m 10,4 C 6,4 km/h (2 Bft)
05.09.2016 22:30 13,7 C 13,8 C 80 % 1022,6 hPa 0,0 mm 1,4 km/h (1 Bft) W-SW 248 0 min 0,000 mm 0,0 UV-I 0 W/m 10,3 C 3,2 km/h (1 Bft)
05.09.2016 22:31 13,7 C 13,7 C 81 % 1022,5 hPa 0,0 mm 3,7 km/h (1 Bft) W-SW 239 0 min 0,000 mm 0,0 UV-I 0 W/m 10,5 C 9,7 km/h (2 Bft)
05.09.2016 22:32 13,7 C 13,7 C 81 % 1022,5 hPa 0,0 mm 2,5 km/h (1 Bft) SW 225 0 min 0,000 mm 0,0 UV-I 0 W/m 10,5 C 4,8 km/h (1 Bft)
05.09.2016 22:33 13,6 C 13,7 C 80 % 1022,5 hPa 0,0 mm 1,6 km/h (1 Bft) SW 225 0 min 0,000 mm 0,0 UV-I 0 W/m 10,2 C 3,2 km/h (1 Bft)
05.09.2016 22:34 13,6 C 13,6 C 81 % 1022,6 hPa 0,0 mm 4,0 km/h (1 Bft) W-SW 253 0 min 0,000 mm 0,0 UV-I 0 W/m 10,4 C 6,4 km/h (2 Bft)
05.09.2016 22:35 13,5 C 13,6 C 81 % 1022,6 hPa 0,0 mm 3,2 km/h (1 Bft) S-SW 208 0 min 0,000 mm 0,0 UV-I 0 W/m 10,3 C 4,8 km/h (1 Bft)
05.09.2016 22:36 13,4 C 13,5 C 81 % 1022,6 hPa 0,0 mm 1,1 km/h (1 Bft) S-SW 208 0 min 0,000 mm 0,0 UV-I 0 W/m 10,2 C 1,6 km/h (1 Bft)
05.09.2016 22:37 13,4 C 13,5 C 81 % 1022,6 hPa 0,0 mm 1,1 km/h (1 Bft) S-SW 208 0 min 0,000 mm 0,0 UV-I 0 W/m 10,2 C 1,6 km/h (1 Bft)
05.09.2016 22:38 13,4 C 13,4 C 81 % 1022,6 hPa 0,0 mm 0,7 km/h (0 Bft) S 186 0 min 0,000 mm 0,0 UV-I 0 W/m 10,2 C 1,6 km/h (1 Bft)
05.09.2016 22:39 13,4 C 13,4 C 81 % 1022,6 hPa 0,0 mm 0,2 km/h (0 Bft) S 186 0 min 0,000 mm 0,0 UV-I 0 W/m 10,2 C 1,6 km/h (1 Bft)
05.09.2016 22:40 13,3 C 13,4 C 81 % 1022,6 hPa 0,0 mm 2,4 km/h (1 Bft) W-SW 242 0 min 0,000 mm 0,0 UV-I 0 W/m 10,1 C 6,4 km/h (2 Bft)
05.09.2016 22:41 13,3 C 13,3 C 81 % 1022,6 hPa 0,0 mm 7,3 km/h (2 Bft) W-SW 258 0 min 0,000 mm 0,0 UV-I 0 W/m 10,1 C 12,9 km/h (3 Bft)
05.09.2016 22:42 13,3 C 13,3 C 81 % 1022,6 hPa 0,0 mm 6,6 km/h (2 Bft) W-SW 248 0 min 0,000 mm 0,0 UV-I 0 W/m 10,1 C 11,3 km/h (2 Bft)
05.09.2016 22:43 13,2 C 13,3 C 82 % 1022,6 hPa 0,0 mm 2,5 km/h (1 Bft) SW 234 0 min 0,000 mm 0,0 UV-I 0 W/m 10,2 C 4,8 km/h (1 Bft)
05.09.2016 22:44 13,2 C 13,2 C 82 % 1022,6 hPa 0,0 mm 3,6 km/h (1 Bft) W-SW 248 0 min 0,000 mm 0,0 UV-I 0 W/m 10,2 C 6,4 km/h (2 Bft)
05.09.2016 22:45 13,2 C 13,2 C 82 % 1022,6 hPa 0,0 mm 2,2 km/h (1 Bft) W 273 0 min 0,000 mm 0,0 UV-I 0 W/m 10,2 C 4,8 km/h (1 Bft)
05.09.2016 22:46 13,2 C 13,2 C 82 % 1022,7 hPa 0,0 mm 3,4 km/h (1 Bft) W-SW 244 0 min 0,000 mm 0,0 UV-I 0 W/m 10,2 C 4,8 km/h (1 Bft)
05.09.2016 22:47 13,2 C 13,2 C 82 % 1022,7 hPa 0,0 mm 1,9 km/h (1 Bft) W-SW 242 0 min 0,000 mm 0,0 UV-I 0 W/m 10,2 C 3,2 km/h (1 Bft)
05.09.2016 22:48 13,2 C 13,2 C 82 % 1022,6 hPa 0,0 mm 1,1 km/h (1 Bft) W-SW 242 0 min 0,000 mm 0,0 UV-I 0 W/m 10,2 C 1,6 km/h (1 Bft)
05.09.2016 22:49 13,2 C 13,2 C 82 % 1022,6 hPa 0,0 mm 2,3 km/h (1 Bft) W-SW 242 0 min 0,000 mm 0,0 UV-I 0 W/m 10,2 C 4,8 km/h (1 Bft)
05.09.2016 22:50 13,2 C 13,2 C 82 % 1022,6 hPa 0,0 mm 1,5 km/h (1 Bft) W-SW 242 0 min 0,000 mm 0,0 UV-I 0 W/m 10,2 C 3,2 km/h (1 Bft)
05.09.2016 22:51 13,2 C 13,2 C 81 % 1022,6 hPa 0,0 mm 1,9 km/h (1 Bft) SW 216 0 min 0,000 mm 0,0 UV-I 0 W/m 10,0 C 3,2 km/h (1 Bft)
05.09.2016 22:52 13,2 C 13,2 C 81 % 1022,6 hPa 0,0 mm 3,0 km/h (1 Bft) W-SW 245 0 min 0,000 mm 0,0 UV-I 0 W/m 10,0 C 4,8 km/h (1 Bft)
05.09.2016 22:53 13,3 C 13,3 C 81 % 1022,6 hPa 0,0 mm 2,3 km/h (1 Bft) S-SW 205 0 min 0,000 mm 0,0 UV-I 0 W/m 10,1 C 4,8 km/h (1 Bft)
05.09.2016 22:54 13,3 C 13,3 C 81 % 1022,6 hPa 0,0 mm 3,0 km/h (1 Bft) SW 219 0 min 0,000 mm 0,0 UV-I 0 W/m 10,1 C 4,8 km/h (1 Bft)
05.09.2016 22:55 13,2 C 13,3 C 81 % 1022,6 hPa 0,0 mm 3,1 km/h (1 Bft) S 188 0 min 0,000 mm 0,0 UV-I 0 W/m 10,0 C 4,8 km/h (1 Bft)
05.09.2016 22:56 13,3 C 13,3 C 81 % 1022,6 hPa 0,0 mm 2,9 km/h (1 Bft) S-SW 202 0 min 0,000 mm 0,0 UV-I 0 W/m 10,1 C 6,4 km/h (2 Bft)
05.09.2016 22:57 13,3 C 13,3 C 82 % 1022,6 hPa 0,0 mm 5,4 km/h (1 Bft) SW 236 0 min 0,000 mm 0,0 UV-I 0 W/m 10,3 C 6,4 km/h (2 Bft)
05.09.2016 22:58 13,3 C 13,3 C 81 % 1022,6 hPa 0,0 mm 2,1 km/h (1 Bft) S-SW 207 0 min 0,000 mm 0,0 UV-I 0 W/m 10,1 C 4,8 km/h (1 Bft)
05.09.2016 22:59 13,3 C 13,3 C 81 % 1022,5 hPa 0,0 mm 3,4 km/h (1 Bft) SW 235 0 min 0,000 mm 0,0 UV-I 0 W/m 10,1 C 6,4 km/h (2 Bft)
05.09.2016 23:00 13,3 C 13,3 C 81 % 1022,5 hPa 0,0 mm 2,2 km/h (1 Bft) SW 234 0 min 0,000 mm 0,0 UV-I 0 W/m 10,1 C 3,2 km/h (1 Bft)
05.09.2016 23:01 13,3 C 13,3 C 81 % 1022,5 hPa 0,0 mm 2,4 km/h (1 Bft) S 186 0 min 0,025 mm 0,0 UV-I 0 W/m 10,1 C 4,8 km/h (1 Bft)
05.09.2016 23:02 13,3 C 13,3 C 81 % 1022,5 hPa 0,0 mm 2,9 km/h (1 Bft) S-SW 194 0 min 0,000 mm 0,0 UV-I 0 W/m 10,1 C 4,8 km/h (1 Bft)
05.09.2016 23:03 13,3 C 13,3 C 81 % 1022,5 hPa 0,0 mm 3,6 km/h (1 Bft) S-SW 196 0 min 0,000 mm 0,0 UV-I 0 W/m 10,1 C 6,4 km/h (2 Bft)
05.09.2016 23:04 13,3 C 13,3 C 81 % 1022,5 hPa 0,0 mm 2,8 km/h (1 Bft) S 188 0 min 0,000 mm 0,0 UV-I 0 W/m 10,1 C 4,8 km/h (1 Bft)
05.09.2016 23:05 13,3 C 13,3 C 81 % 1022,4 hPa 0,0 mm 2,5 km/h (1 Bft) S-SW 206 0 min 0,000 mm 0,0 UV-I 0 W/m 10,1 C 4,8 km/h (1 Bft)
05.09.2016 23:06 13,4 C 13,4 C 81 % 1022,4 hPa 0,0 mm 2,1 km/h (1 Bft) S-SW 196 0 min 0,000 mm 0,0 UV-I 0 W/m 10,2 C 3,2 km/h (1 Bft)
05.09.2016 23:07 13,4 C 13,4 C 80 % 1022,4 hPa 0,0 mm 3,4 km/h (1 Bft) S 180 0 min 0,000 mm 0,0 UV-I 0 W/m 10,0 C 6,4 km/h (2 Bft)
05.09.2016 23:08 13,4 C 13,4 C 80 % 1022,4 hPa 0,0 mm 1,0 km/h (0 Bft) S 180 0 min 0,000 mm 0,0 UV-I 0 W/m 10,0 C 3,2 km/h (1 Bft)
05.09.2016 23:09 13,4 C 13,4 C 81 % 1022,5 hPa 0,0 mm 0,9 km/h (0 Bft) S-SW 204 0 min 0,000 mm 0,0 UV-I 0 W/m 10,2 C 1,6 km/h (1 Bft)
05.09.2016 23:10 13,4 C 13,4 C 81 % 1022,6 hPa 0,0 mm 2,1 km/h (1 Bft) W 281 0 min 0,000 mm 0,0 UV-I 0 W/m 10,2 C 4,8 km/h (1 Bft)
05.09.2016 23:11 13,3 C 13,4 C 82 % 1022,6 hPa 0,0 mm 3,2 km/h (1 Bft) W-NW 291 0 min 0,000 mm 0,0 UV-I 0 W/m 10,3 C 4,8 km/h (1 Bft)
05.09.2016 23:12 13,2 C 13,3 C 83 % 1022,7 hPa 0,0 mm 2,2 km/h (1 Bft) W-NW 295 0 min 0,000 mm 0,0 UV-I 0 W/m 10,4 C 3,2 km/h (1 Bft)
05.09.2016 23:13 13,1 C 13,2 C 83 % 1022,7 hPa 0,0 mm 0,5 km/h (0 Bft) W-NW 296 0 min 0,000 mm 0,0 UV-I 0 W/m 10,3 C 1,6 km/h (1 Bft)
05.09.2016 23:14 13,1 C 13,2 C 83 % 1022,7 hPa 0,0 mm 0,2 km/h (0 Bft) W-NW 295 0 min 0,000 mm 0,0 UV-I 0 W/m 10,3 C 1,6 km/h (1 Bft)
05.09.2016 23:15 13,1 C 13,1 C 83 % 1022,8 hPa 0,0 mm 0,0 km/h (0 Bft) W-NW 295 0 min 0,000 mm 0,0 UV-I 0 W/m 10,3 C 0,0 km/h (0 Bft)
05.09.2016 23:16 13,1 C 13,1 C 83 % 1022,8 hPa 0,0 mm 0,1 km/h (0 Bft) W-NW 295 0 min 0,000 mm 0,0 UV-I 0 W/m 10,3 C 1,6 km/h (1 Bft)
05.09.2016 23:17 13,1 C 13,1 C 82 % 1022,8 hPa 0,0 mm 0,6 km/h (0 Bft) W-NW 295 0 min 0,000 mm 0,0 UV-I 0 W/m 10,1 C 1,6 km/h (1 Bft)
05.09.2016 23:18 13,1 C 13,1 C 83 % 1022,8 hPa 0,0 mm 0,7 km/h (0 Bft) W 266 0 min 0,000 mm 0,0 UV-I 0 W/m 10,3 C 1,6 km/h (1 Bft)
05.09.2016 23:19 13,2 C 13,2 C 82 % 1022,8 hPa 0,0 mm 0,7 km/h (0 Bft) W 266 0 min 0,000 mm 0,0 UV-I 0 W/m 10,2 C 1,6 km/h (1 Bft)
05.09.2016 23:20 13,1 C 13,2 C 84 % 1022,8 hPa 0,0 mm 0,5 km/h (0 Bft) W 266 0 min 0,000 mm 0,0 UV-I 0 W/m 10,5 C 1,6 km/h (1 Bft)
05.09.2016 23:21 13,2 C 13,2 C 83 % 1022,8 hPa 0,0 mm 0,0 km/h (0 Bft) W 266 0 min 0,000 mm 0,0 UV-I 0 W/m 10,4 C 0,0 km/h (0 Bft)
05.09.2016 23:22 13,2 C 13,2 C 83 % 1022,8 hPa 0,0 mm 0,6 km/h (0 Bft) W 266 0 min 0,000 mm 0,0 UV-I 0 W/m 10,4 C 1,6 km/h (1 Bft)
05.09.2016 23:23 13,3 C 13,3 C 82 % 1022,8 hPa 0,0 mm 1,1 km/h (1 Bft) W-SW 252 0 min 0,000 mm 0,0 UV-I 0 W/m 10,3 C 1,6 km/h (1 Bft)
05.09.2016 23:24 13,3 C 13,3 C 82 % 1022,8 hPa 0,0 mm 1,4 km/h (1 Bft) W-SW 247 0 min 0,000 mm 0,0 UV-I 0 W/m 10,3 C 1,6 km/h (1 Bft)
05.09.2016 23:25 13,4 C 13,4 C 82 % 1022,8 hPa 0,0 mm 1,9 km/h (1 Bft) W-SW 247 0 min 0,000 mm 0,0 UV-I 0 W/m 10,4 C 3,2 km/h (1 Bft)
05.09.2016 23:26 13,4 C 13,4 C 82 % 1022,8 hPa 0,0 mm 1,2 km/h (1 Bft) W-SW 247 0 min 0,000 mm 0,0 UV-I 0 W/m 10,4 C 1,6 km/h (1 Bft)
05.09.2016 23:27 13,4 C 13,4 C 82 % 1022,8 hPa 0,0 mm 1,9 km/h (1 Bft) SW 229 0 min 0,000 mm 0,0 UV-I 0 W/m 10,4 C 3,2 km/h (1 Bft)
05.09.2016 23:28 13,4 C 13,4 C 82 % 1022,8 hPa 0,0 mm 1,1 km/h (1 Bft) SW 229 0 min 0,000 mm 0,0 UV-I 0 W/m 10,4 C 1,6 km/h (1 Bft)
05.09.2016 23:29 13,4 C 13,4 C 82 % 1022,8 hPa 0,0 mm 2,6 km/h (1 Bft) SW 229 0 min 0,000 mm 0,0 UV-I 0 W/m 10,4 C 3,2 km/h (1 Bft)
05.09.2016 23:30 13,4 C 13,4 C 82 % 1022,8 hPa 0,0 mm 2,0 km/h (1 Bft) W 265 0 min 0,000 mm 0,0 UV-I 0 W/m 10,4 C 4,8 km/h (1 Bft)
05.09.2016 23:31 13,4 C 13,4 C 82 % 1022,8 hPa 0,0 mm 3,6 km/h (1 Bft) W-SW 248 0 min 0,000 mm 0,0 UV-I 0 W/m 10,4 C 8,0 km/h (2 Bft)
05.09.2016 23:32 13,4 C 13,4 C 82 % 1022,8 hPa 0,0 mm 6,0 km/h (2 Bft) SW 232 0 min 0,000 mm 0,0 UV-I 0 W/m 10,4 C 9,7 km/h (2 Bft)
05.09.2016 23:33 13,4 C 13,4 C 82 % 1022,8 hPa 0,0 mm 3,7 km/h (1 Bft) W-SW 244 0 min 0,000 mm 0,0 UV-I 0 W/m 10,4 C 6,4 km/h (2 Bft)
05.09.2016 23:34 13,4 C 13,4 C 82 % 1022,8 hPa 0,0 mm 3,8 km/h (1 Bft) SW 234 0 min 0,000 mm 0,0 UV-I 0 W/m 10,4 C 4,8 km/h (1 Bft)
05.09.2016 23:35 13,4 C 13,4 C 82 % 1022,8 hPa 0,0 mm 4,6 km/h (1 Bft) W-SW 248 0 min 0,000 mm 0,0 UV-I 0 W/m 10,4 C 6,4 km/h (2 Bft)
05.09.2016 23:36 13,4 C 13,4 C 82 % 1022,8 hPa 0,0 mm 3,1 km/h (1 Bft) W-SW 250 0 min 0,000 mm 0,0 UV-I 0 W/m 10,4 C 4,8 km/h (1 Bft)
05.09.2016 23:37 13,5 C 13,5 C 82 % 1022,9 hPa 0,0 mm 4,8 km/h (1 Bft) W-SW 254 0 min 0,000 mm 0,0 UV-I 0 W/m 10,5 C 6,4 km/h (2 Bft)
05.09.2016 23:38 13,5 C 13,5 C 82 % 1022,8 hPa 0,0 mm 5,8 km/h (2 Bft) W-SW 255 0 min 0,000 mm 0,0 UV-I 0 W/m 10,5 C 8,0 km/h (2 Bft)
05.09.2016 23:39 13,5 C 13,5 C 82 % 1022,9 hPa 0,0 mm 3,6 km/h (1 Bft) W-SW 249 0 min 0,000 mm 0,0 UV-I 0 W/m 10,5 C 6,4 km/h (2 Bft)
05.09.2016 23:40 13,6 C 13,6 C 82 % 1022,9 hPa 0,0 mm 7,0 km/h (2 Bft) W-SW 257 0 min 0,000 mm 0,0 UV-I 0 W/m 10,6 C 11,3 km/h (2 Bft)
05.09.2016 23:41 13,6 C 13,6 C 82 % 1022,9 hPa 0,0 mm 5,0 km/h (1 Bft) W 265 0 min 0,000 mm 0,0 UV-I 0 W/m 10,6 C 9,7 km/h (2 Bft)
05.09.2016 23:42 13,5 C 13,6 C 81 % 1022,9 hPa 0,0 mm 1,9 km/h (1 Bft) SW 220 0 min 0,000 mm 0,0 UV-I 0 W/m 10,3 C 4,8 km/h (1 Bft)
05.09.2016 23:43 13,6 C 13,6 C 81 % 1022,9 hPa 0,0 mm 1,3 km/h (1 Bft) W-SW 245 0 min 0,000 mm 0,0 UV-I 0 W/m 10,4 C 3,2 km/h (1 Bft)
05.09.2016 23:44 13,6 C 13,6 C 81 % 1022,8 hPa 0,0 mm 1,4 km/h (1 Bft) W-SW 245 0 min 0,000 mm 0,0 UV-I 0 W/m 10,4 C 3,2 km/h (1 Bft)
05.09.2016 23:45 13,6 C 13,6 C 81 % 1022,9 hPa 0,0 mm 2,7 km/h (1 Bft) SW 227 0 min 0,000 mm 0,0 UV-I 0 W/m 10,4 C 6,4 km/h (2 Bft)
05.09.2016 23:46 13,6 C 13,6 C 81 % 1022,9 hPa 0,0 mm 4,5 km/h (1 Bft) W-SW 244 0 min 0,000 mm 0,0 UV-I 0 W/m 10,4 C 6,4 km/h (2 Bft)
05.09.2016 23:47 13,7 C 13,7 C 81 % 1022,9 hPa 0,0 mm 6,0 km/h (2 Bft) W 267 0 min 0,000 mm 0,0 UV-I 0 W/m 10,5 C 8,0 km/h (2 Bft)
05.09.2016 23:48 13,7 C 13,7 C 81 % 1022,9 hPa 0,0 mm 1,5 km/h (1 Bft) W 267 0 min 0,000 mm 0,0 UV-I 0 W/m 10,5 C 3,2 km/h (1 Bft)
05.09.2016 23:49 13,6 C 13,7 C 81 % 1022,9 hPa 0,0 mm 4,0 km/h (1 Bft) S 191 0 min 0,000 mm 0,0 UV-I 0 W/m 10,4 C 6,4 km/h (2 Bft)
05.09.2016 23:50 13,6 C 13,7 C 81 % 1023,0 hPa 0,0 mm 5,7 km/h (1 Bft) W-SW 250 0 min 0,000 mm 0,0 UV-I 0 W/m 10,4 C 9,7 km/h (2 Bft)
05.09.2016 23:51 13,7 C 13,7 C 80 % 1023,0 hPa 0,0 mm 3,1 km/h (1 Bft) S 187 0 min 0,000 mm 0,0 UV-I 0 W/m 10,3 C 4,8 km/h (1 Bft)
05.09.2016 23:52 13,7 C 13,7 C 80 % 1022,9 hPa 0,0 mm 5,0 km/h (1 Bft) S-SO 165 0 min 0,000 mm 0,0 UV-I 0 W/m 10,3 C 8,0 km/h (2 Bft)
05.09.2016 23:53 13,7 C 13,7 C 81 % 1023,0 hPa 0,0 mm 2,4 km/h (1 Bft) S-SO 166 0 min 0,000 mm 0,0 UV-I 0 W/m 10,5 C 4,8 km/h (1 Bft)
05.09.2016 23:54 13,7 C 13,7 C 81 % 1023,0 hPa 0,0 mm 4,4 km/h (1 Bft) W-SW 252 0 min 0,000 mm 0,0 UV-I 0 W/m 10,5 C 6,4 km/h (2 Bft)
05.09.2016 23:55 13,7 C 13,7 C 81 % 1023,0 hPa 0,0 mm 3,8 km/h (1 Bft) W 265 0 min 0,000 mm 0,0 UV-I 0 W/m 10,5 C 6,4 km/h (2 Bft)
05.09.2016 23:56 13,6 C 13,7 C 81 % 1023,0 hPa 0,0 mm 2,3 km/h (1 Bft) W-SW 255 0 min 0,000 mm 0,0 UV-I 0 W/m 10,4 C 6,4 km/h (2 Bft)
05.09.2016 23:57 13,7 C 13,7 C 81 % 1023,0 hPa 0,0 mm 2,3 km/h (1 Bft) W-SW 237 0 min 0,000 mm 0,0 UV-I 0 W/m 10,5 C 4,8 km/h (1 Bft)
05.09.2016 23:58 13,6 C 13,7 C 80 % 1022,9 hPa 0,0 mm 3,9 km/h (1 Bft) W 263 0 min 0,000 mm 0,0 UV-I 0 W/m 10,2 C 6,4 km/h (2 Bft)
05.09.2016 23:59 13,6 C 13,6 C 81 % 1023,0 hPa 0,0 mm 2,7 km/h (1 Bft) W 263 0 min 0,000 mm 0,0 UV-I 0 W/m 10,4 C 6,4 km/h (2 Bft)
_ Min-Zeit 06:11 06:10 15:24 01:13 - 23:21 - - - - - - 07:23 23:21
Minimum _ 11,6 C 11,6 C 63 % 1015,4 hPa - 0,0 km/h (0 Bft) - - - - - - 8,9 C 0,0 km/h (0 Bft)
_ Max-Zeit 15:12 15:13 01:42 20:58 01:27 12:36 - - 15:18 14:01 13:35 15:06 01:42 14:21
Maximum _ 18,1 C 18,1 C 94 % 1024,6 hPa 0,6 mm 23,8 km/h
W (4 Bft)
- - 1 min 0,508 mm 6,5 UV-I 997 W/m 12,9 C 37,0 km/h
W-NW (5 Bft)
Durchschnitt _ 14,0 C 14,1 C 81 % 1018,6 hPa #11,6 mm 7,1 km/h (2 Bft) W-SW - #2:43 h #2,235 mm 2,5 UV-I 137 W/m 10,8 C 11,8 km/h (2 Bft)